[[{"header":{"parameterUnit":"m.s-1","parameterCategory":1,"la1":30.6,"la2":28.766,"lo1":-90.7593,"lo2":-88.6598,"dx":0.0162,"dy":0.0183,"nx":116,"ny":114,"refTime":"2022-12-28T06:00:00:Z","depth":0,"parameterNumber":2,"parameterNumberName":"U-component_of_WINDS"},"data":[0.0,0.0,0.0,0.0,0.0,0.0,0.0,0.0,0.0,0.0,0.0,0.0,0.0,0.0,0.0,0.0,0.0,0.0,0.0,0.0,0.0,0.0,0.0,0.0,0.0,0.0,0.0,0.0,0.0,0.0,0.0,0.0,0.0,0.0,0.0,0.0,0.0,0.0,0.0,0.0,0.0,0.0,0.0,0.0,0.0,0.0,0.0,0.0,0.0,0.0,0.0,0.0,0.0,0.0,0.0,0.0,0.0,0.0,0.0,0.0,0.0,0.0,0.0,0.0,0.0,0.0,0.0,0.0,0.0,0.0,0.0,0.0,0.0,0.0,0.0,0.0,0.0,0.0,0.0,0.0,0.0,0.0,0.0,0.0,0.0,0.0,0.0,0.0,0.0,0.0,0.0,0.0,0.0,0.0,0.0,0.0,0.0,0.0,0.0,0.0,0.0,0.0,0.0,0.0,0.0,0.0,0.0,0.0,0.0,0.0,0.0,0.0,0.0,0.0,0.0,0.0,0.0,0.0,0.0,0.0,0.0,0.0,0.0,0.0,0.0,0.0,0.0,0.0,0.0,0.0,0.0,0.0,0.0,0.0,0.0,0.0,0.0,0.0,0.0,0.0,0.0,0.0,0.0,0.0,0.0,0.0,0.0,0.0,0.0,0.0,0.0,0.0,0.0,0.0,0.0,0.0,0.0,0.0,0.0,0.0,0.0,0.0,0.0,0.0,0.0,0.0,0.0,0.0,0.0,0.0,0.0,0.0,0.0,0.0,0.0,0.0,0.0,0.0,0.0,0.0,0.0,0.0,0.0,0.0,0.0,0.0,0.0,0.0,0.0,0.0,0.0,0.0,0.0,0.0,0.0,0.0,0.0,0.0,0.0,0.0,0.0,0.0,0.0,0.0,0.0,0.0,0.0,0.0,0.0,0.0,0.0,0.0,0.0,0.0,0.0,0.0,0.0,0.0,0.0,0.0,0.0,0.0,0.0,0.0,0.0,0.0,0.0,0.0,0.0,0.0,0.0,0.0,0.0,0.0,0.0,0.0,0.0,0.0,0.0,0.0,0.0,0.0,0.0,0.0,0.0,0.0,0.0,0.0,0.0,0.0,0.0,0.0,0.0,0.0,0.0,0.0,0.0,0.0,0.0,0.0,0.0,0.0,0.0,0.0,0.0,0.0,0.0,0.0,0.0,0.0,0.0,0.0,0.0,0.0,0.0,0.0,0.0,0.0,0.0,0.0,0.0,0.0,0.0,0.0,0.0,0.0,0.0,0.0,0.0,0.0,0.0,0.0,0.0,0.0,0.0,0.0,0.0,0.0,0.0,0.0,0.0,0.0,0.0,0.0,0.0,0.0,0.0,0.0,0.0,0.0,0.0,0.0,0.0,0.0,0.0,0.0,0.0,0.0,0.0,0.0,0.0,0.0,0.0,0.0,0.0,0.0,0.0,0.0,0.0,0.0,0.0,0.0,0.0,0.0,0.0,0.0,0.0,0.0,0.0,0.0,0.0,0.0,0.0,0.0,0.0,0.0,0.0,0.0,0.0,0.0,0.0,0.0,0.0,0.0,0.0,0.0,0.0,0.0,0.0,0.0,0.0,0.0,0.0,0.0,0.0,0.0,0.0,0.0,0.0,0.0,0.0,0.0,0.0,0.0,0.0,0.0,0.0,0.0,0.0,0.0,0.0,0.0,0.0,0.0,0.0,0.0,0.0,0.0,0.0,0.0,0.0,0.0,0.0,0.0,0.0,0.0,0.0,0.0,0.0,0.0,0.0,0.0,0.0,0.0,0.0,0.0,0.0,0.0,0.0,0.0,0.0,0.0,0.0,0.0,0.0,0.0,0.0,0.0,0.0,0.0,0.0,0.0,0.0,0.0,0.0,0.0,0.0,0.0,0.0,0.0,0.0,0.0,0.0,0.0,0.0,0.0,0.0,0.0,0.0,0.0,0.0,0.0,0.0,0.0,0.0,0.0,0.0,0.0,0.0,0.0,0.0,0.0,0.0,0.0,0.0,0.0,0.0,0.0,0.0,0.0,0.0,0.0,0.0,0.0,0.0,0.0,0.0,0.0,0.0,0.0,0.0,0.0,0.0,0.0,0.0,0.0,0.0,0.0,0.0,0.0,0.0,0.0,0.0,0.0,0.0,0.0,0.0,0.0,0.0,0.0,0.0,0.0,0.0,0.0,0.0,0.0,0.0,0.0,0.0,0.0,0.0,0.0,0.0,0.0,0.0,0.0,0.0,0.0,0.0,0.0,0.0,0.0,0.0,0.0,0.0,0.0,0.0,0.0,0.0,0.0,0.0,0.0,0.0,0.0,0.0,0.0,0.0,0.0,0.0,0.0,0.0,0.0,0.0,0.0,0.0,0.0,0.0,0.0,0.0,0.0,0.0,0.0,0.0,0.0,0.0,0.0,0.0,0.0,0.0,0.0,0.0,0.0,0.0,0.0,0.0,0.0,0.0,0.0,0.0,0.0,0.0,0.0,0.0,0.0,0.0,0.0,0.0,0.0,0.0,0.0,0.0,0.0,0.0,0.0,0.0,0.0,0.0,0.0,0.0,0.0,0.0,0.0,0.0,0.0,0.0,0.0,0.0,0.0,0.0,0.0,0.0,0.0,0.0,0.0,0.0,0.0,0.0,0.0,0.0,0.0,0.0,0.0,0.0,0.0,0.0,0.0,0.0,0.0,0.0,0.0,0.0,0.0,0.0,0.0,0.0,0.0,0.0,0.0,0.0,0.0,0.0,0.0,0.0,0.0,0.0,0.0,0.0,0.0,0.0,0.0,0.0,0.0,0.0,0.0,0.0,0.0,0.0,0.0,0.0,0.0,0.0,0.0,0.0,0.0,0.0,0.0,0.0,0.0,0.0,0.0,0.0,0.0,0.0,0.0,0.0,0.0,0.0,0.0,0.0,0.0,0.0,0.0,0.0,0.0,0.0,0.0,0.0,0.0,0.0,0.0,0.0,0.0,0.0,0.0,0.0,0.0,0.0,0.0,0.0,0.0,0.0,0.0,0.0,0.0,0.0,0.0,0.0,0.0,0.0,0.0,0.0,0.0,0.0,0.0,0.0,0.0,0.0,0.0,0.0,0.0,0.0,0.0,0.0,0.0,0.0,0.0,0.0,0.0,0.0,0.0,0.0,0.0,0.0,0.0,0.0,0.0,0.0,0.0,0.0,0.0,0.0,0.0,0.0,0.0,0.0,0.0,0.0,0.0,0.0,0.0,0.0,0.0,0.0,0.0,0.0,0.0,0.0,0.0,0.0,0.0,0.0,0.0,0.0,0.0,0.0,0.0,0.0,0.0,0.0,0.0,0.0,0.0,0.0,0.0,0.0,0.0,0.0,0.0,0.0,0.0,0.0,0.0,0.0,0.0,0.0,0.0,0.0,0.0,0.0,0.0,0.0,0.0,0.0,0.0,0.0,0.0,0.0,0.0,0.0,0.0,0.0,0.0,0.0,0.0,0.0,0.0,0.0,0.0,0.0,0.0,0.0,0.0,0.0,0.0,0.0,0.0,0.0,0.0,0.0,0.0,0.0,0.0,0.0,0.0,0.0,0.0,0.0,0.0,0.0,0.0,0.0,0.0,0.0,0.0,0.0,0.0,0.0,0.0,0.0,0.0,0.0,0.0,0.0,0.0,0.0,0.0,0.0,0.0,0.0,0.0,0.0,0.0,0.0,0.0,0.0,0.0,0.0,0.0,0.0,0.0,0.0,0.0,0.0,0.0,0.0,0.0,0.0,0.0,0.0,0.0,0.0,0.0,0.0,0.0,0.0,0.0,0.0,0.0,0.0,0.0,0.0,0.0,0.0,0.0,0.0,0.0,0.0,0.0,0.0,0.0,0.0,0.0,0.0,0.0,0.0,0.0,0.0,0.0,0.0,0.0,0.0,0.0,0.0,0.0,0.0,0.0,0.0,0.0,0.0,0.0,0.0,0.0,0.0,0.0,0.0,0.0,0.0,0.0,0.0,0.0,0.0,0.0,0.0,0.0,0.0,0.0,0.0,0.0,0.0,0.0,0.0,0.0,0.0,0.0,0.0,0.0,0.0,0.0,0.0,0.0,0.0,0.0,0.0,0.0,0.0,0.0,0.0,0.0,0.0,0.0,0.0,0.0,0.0,0.0,0.0,0.0,0.0,0.0,0.0,0.0,0.0,0.0,0.0,0.0,0.0,0.0,0.0,0.0,0.0,0.0,0.0,0.0,0.0,0.0,0.0,0.0,0.0,0.0,0.0,0.0,0.0,0.0,0.0,0.0,0.0,0.0,0.0,0.0,0.0,0.0,0.0,0.0,0.0,0.0,0.0,0.0,0.0,0.0,0.0,0.0,0.0,0.0,0.0,0.0,0.0,0.0,0.0,0.0,0.0,0.0,0.0,0.0,0.0,0.0,0.0,0.0,0.0,0.0,0.0,0.0,0.0,0.0,0.0,0.0,0.0,0.0,0.0,0.0,0.0,0.0,0.0,0.0,0.0,0.0,0.0,0.0,0.0,0.0,0.0,0.0,0.0,0.0,0.0,0.0,0.0,0.0,0.0,0.0,0.0,0.0,0.0,0.0,0.0,0.0,0.0,0.0,0.0,0.0,0.0,0.0,0.0,0.0,0.0,0.0,0.0,0.0,0.0,0.0,0.0,0.0,0.0,0.0,0.0,0.0,0.0,0.0,0.0,0.0,0.0,0.0,0.0,0.0,0.0,0.0,0.0,0.0,0.0,0.0,0.0,0.0,0.0,0.0,0.0,0.0,0.0,0.0,0.0,0.0,0.0,0.0,0.0,0.0,0.0,0.0,0.0,0.0,0.0,0.0,0.0,0.0,0.0,0.0,0.0,0.0,0.0,0.0,0.0,0.0,0.0,0.0,0.0,0.0,0.0,0.0,0.0,0.0,0.0,0.0,0.0,0.0,0.0,0.0,0.0,0.0,0.0,0.0,0.0,0.0,0.0,0.0,0.0,0.0,0.0,0.0,0.0,0.0,0.0,0.0,0.0,0.0,0.0,0.0,0.0,0.0,0.0,0.0,0.0,0.0,0.0,0.0,0.0,0.0,0.0,0.0,0.0,0.0,0.0,0.0,0.0,0.0,0.0,0.0,0.0,0.0,0.0,0.0,0.0,0.0,0.0,0.0,0.0,0.0,0.0,0.0,0.0,0.0,0.0,0.0,0.0,0.0,0.0,0.0,0.0,0.0,0.0,0.0,0.0,0.0,0.0,0.0,0.0,0.0,0.0,0.0,0.0,0.0,0.0,0.0,0.0,0.0,0.0,0.0,0.0,0.0,0.0,0.0,0.0,0.0,0.0,0.0,0.0,0.0,0.0,0.0,0.0,0.0,0.0,0.0,0.0,0.0,0.0,0.0,0.0,0.0,0.0,0.0,0.0,0.0,0.0,0.0,0.0,0.0,0.0,0.0,0.0,0.0,0.0,0.0,0.0,0.0,0.0,0.0,0.0,0.0,0.0,0.0,0.0,0.0,0.0,0.0,0.0,0.0,0.0,0.0,0.0,0.0,0.0,0.0,0.0,0.0,0.0,0.0,0.0,0.0,0.0,0.0,0.0,0.0,0.0,0.0,0.0,0.0,0.0,0.0,0.0,0.0,0.0,0.0,0.0,0.0,0.0,0.0,0.0,0.0,0.0,0.0,0.0,0.0,0.0,0.0,0.0,0.0,0.0,0.0,0.0,0.0,0.0,0.0,0.0,0.0,0.0,0.0,0.0,0.0,0.0,0.0,0.0,0.0,0.0,0.0,0.0,0.0,0.0,0.0,0.0,0.0,0.0,0.0,0.0,0.0,0.0,0.0,0.0,0.0,0.0,0.0,0.0,0.0,0.0,0.0,0.0,0.0,0.0,0.0,0.0,0.0,0.0,0.0,0.0,0.0,0.0,0.0,0.0,0.0,0.0,0.0,0.0,0.0,0.0,0.0,0.0,0.0,0.0,0.0,0.0,0.0,0.0,0.0,0.0,0.0,0.0,0.0,0.0,0.0,0.0,0.0,0.0,0.0,0.0,0.0,0.0,0.0,0.0,0.0,0.0,0.0,0.0,0.0,0.0,0.0,0.0,0.0,0.0,0.0,0.0,0.0,0.0,0.0,0.0,0.0,-5.9188,-5.6605,0.0,0.0,0.0,0.0,0.0,0.0,0.0,0.0,0.0,0.0,0.0,0.0,0.0,0.0,0.0,0.0,0.0,0.0,0.0,0.0,0.0,0.0,0.0,0.0,0.0,0.0,0.0,0.0,0.0,0.0,0.0,0.0,0.0,0.0,0.0,0.0,-4.6008,-4.5901,-4.7922,-4.9818,-5.1443,-4.9576,-4.8343,-4.7682,0.0,0.0,0.0,0.0,0.0,0.0,0.0,0.0,0.0,0.0,0.0,0.0,0.0,0.0,0.0,0.0,0.0,0.0,0.0,0.0,0.0,0.0,0.0,0.0,0.0,0.0,0.0,0.0,0.0,0.0,0.0,0.0,0.0,0.0,0.0,0.0,0.0,0.0,0.0,0.0,0.0,0.0,0.0,0.0,0.0,0.0,0.0,0.0,0.0,0.0,0.0,0.0,0.0,0.0,0.0,0.0,0.0,0.0,0.0,0.0,0.0,0.0,0.0,0.0,0.0,0.0,0.0,0.0,0.0,0.0,-6.163,-6.0031,0.0,0.0,0.0,0.0,0.0,0.0,0.0,0.0,0.0,0.0,0.0,0.0,0.0,0.0,0.0,0.0,0.0,0.0,0.0,0.0,0.0,0.0,0.0,-4.566,-4.5515,-4.535,-4.5192,-4.5064,0.0,0.0,0.0,0.0,0.0,0.0,0.0,-4.829,-4.9288,-4.9359,-5.1403,-5.306,-5.4423,-5.5147,-5.398,-5.13,-5.1389,0.0,0.0,0.0,0.0,0.0,0.0,0.0,0.0,0.0,0.0,0.0,0.0,0.0,0.0,0.0,0.0,0.0,0.0,0.0,0.0,0.0,0.0,0.0,0.0,0.0,0.0,0.0,0.0,0.0,0.0,0.0,0.0,0.0,0.0,0.0,0.0,0.0,0.0,0.0,0.0,0.0,0.0,0.0,0.0,0.0,0.0,0.0,0.0,0.0,0.0,0.0,0.0,0.0,0.0,0.0,0.0,0.0,0.0,0.0,0.0,0.0,0.0,0.0,-6.3548,-6.3532,-6.4075,-6.3306,-6.3396,-6.4038,-6.3589,-6.3385,-6.3226,-6.2279,0.0,0.0,0.0,0.0,0.0,0.0,0.0,0.0,0.0,0.0,0.0,0.0,0.0,0.0,0.0,0.0,0.0,0.0,0.0,0.0,0.0,-4.9267,-4.9505,-4.8814,-4.9094,-4.9299,-4.9299,0.0,0.0,0.0,0.0,0.0,-5.151,-5.1824,-5.2247,-5.2749,-5.647,-5.8354,-5.846,-5.9384,-5.9141,-5.7813,-5.5133,-5.4252,-5.4678,0.0,0.0,0.0,0.0,0.0,0.0,0.0,0.0,0.0,0.0,0.0,0.0,0.0,0.0,0.0,0.0,0.0,0.0,0.0,0.0,0.0,0.0,0.0,0.0,0.0,0.0,0.0,0.0,0.0,0.0,0.0,0.0,0.0,0.0,0.0,0.0,0.0,0.0,0.0,0.0,0.0,-5.5839,-5.5221,0.0,0.0,0.0,0.0,0.0,0.0,0.0,0.0,0.0,0.0,0.0,0.0,0.0,-6.423,-6.4737,-6.4784,-6.4772,-6.4806,-6.5149,-6.5331,-6.5433,-6.5331,-6.5662,-6.6373,-6.6271,0.0,-6.2618,-6.37,0.0,0.0,0.0,0.0,0.0,0.0,0.0,0.0,0.0,0.0,0.0,0.0,0.0,0.0,0.0,0.0,0.0,0.0,0.0,0.0,0.0,-5.1323,-5.148,-5.1442,-5.1892,-5.2011,-5.1528,-5.1862,0.0,0.0,0.0,-5.3217,-5.3158,-5.4511,-5.5727,-5.6851,-5.8966,-5.9963,-6.0,-6.0809,-6.0687,-5.9832,-5.8877,-5.7886,-5.6859,-5.5354,0.0,0.0,0.0,0.0,0.0,0.0,0.0,0.0,0.0,0.0,0.0,0.0,0.0,0.0,0.0,0.0,0.0,0.0,0.0,0.0,0.0,0.0,0.0,0.0,0.0,0.0,0.0,0.0,0.0,0.0,0.0,0.0,0.0,0.0,0.0,0.0,0.0,0.0,0.0,-5.515,-5.6012,-5.7357,-5.8116,-5.8875,0.0,0.0,0.0,0.0,0.0,0.0,0.0,0.0,0.0,-6.5147,-6.5164,-6.5453,-6.6079,-6.5596,-6.559,-6.5955,-6.5771,-6.6136,-6.6914,-6.6508,-6.6981,-6.8064,-6.7624,-6.6677,-6.5493,-6.573,-6.5662,-6.5392,0.0,0.0,0.0,0.0,-6.4816,-6.4343,0.0,0.0,0.0,0.0,0.0,0.0,0.0,0.0,0.0,0.0,0.0,0.0,-5.2639,-5.2907,-5.311,-5.332,-5.3813,-5.3794,-5.2977,-5.3497,-5.3868,0.0,-5.4834,-5.5352,-5.531,-5.7031,-5.8619,-5.9952,-6.0522,-6.0943,-6.1235,-6.1728,-6.1618,-6.1043,-6.163,-6.0786,-5.8877,-5.807,-5.7483,-5.6969,0.0,0.0,0.0,0.0,0.0,0.0,0.0,0.0,0.0,0.0,0.0,0.0,0.0,0.0,0.0,0.0,0.0,0.0,0.0,0.0,0.0,0.0,0.0,0.0,0.0,0.0,0.0,0.0,0.0,0.0,0.0,0.0,0.0,0.0,0.0,0.0,0.0,-5.6702,-5.7667,-5.9909,-6.053,-6.1151,0.0,0.0,0.0,0.0,0.0,0.0,-6.5998,-6.5647,-6.5579,-6.5874,-6.6086,-6.6607,-6.7387,-6.6643,-6.6643,-6.7387,-6.6812,-6.7151,-6.8199,-6.7658,-6.803,-6.9079,-6.847,-6.8199,-6.8166,-6.7624,-6.7387,-6.7387,-6.7387,-6.7286,-6.7049,-6.6711,-6.644,-6.6373,0.0,0.0,0.0,0.0,0.0,0.0,0.0,0.0,0.0,0.0,0.0,-5.4384,-5.2857,-5.4292,-5.5047,-5.43,-5.4671,-5.4611,-5.3794,-5.5949,-5.7249,-5.7249,-5.8772,-5.9568,-5.9568,-5.9631,-6.0085,-6.0937,-6.1579,-6.2238,-6.2892,-6.2929,-6.2855,-6.267,-6.2707,-6.2254,-6.1374,-6.0566,-6.0639,-6.108,-5.8694,0.0,0.0,0.0,0.0,0.0,0.0,0.0,0.0,0.0,0.0,0.0,0.0,0.0,0.0,0.0,0.0,0.0,0.0,0.0,0.0,0.0,0.0,0.0,0.0,0.0,0.0,0.0,0.0,0.0,0.0,0.0,0.0,0.0,0.0,0.0,0.0,0.0,0.0,-6.3358,-6.4634,0.0,0.0,0.0,0.0,-6.4738,-6.5203,-6.5764,-6.6251,-6.6078,-6.652,-6.7734,-6.7083,-6.7489,-6.8977,-6.8199,-6.8199,-6.8977,-6.8944,-6.8977,-6.9045,-6.9011,-6.9045,-6.9113,-6.9079,-6.9045,-6.9045,-6.9011,-6.8977,-6.8977,-6.8977,-6.8504,-6.7929,-6.8673,-6.8436,-6.7895,0.0,0.0,0.0,0.0,0.0,-4.9394,-5.0818,-5.1279,-5.1856,-5.301,-5.3855,-5.4484,-5.4786,-5.5697,-5.6518,-5.7095,-5.7756,-5.8029,-5.7732,-5.9552,-6.0184,-5.9107,-6.063,-6.1521,-6.1521,-6.0892,-6.1456,-6.3308,-6.3946,-6.4377,-6.4622,-6.5037,-6.4949,-6.4457,-6.4971,-6.4751,-6.3906,-6.2511,-6.2108,-6.2254,-6.086,-6.0126,0.0,0.0,0.0,0.0,0.0,0.0,0.0,0.0,0.0,0.0,0.0,0.0,0.0,0.0,0.0,0.0,0.0,0.0,0.0,0.0,0.0,0.0,0.0,0.0,0.0,0.0,0.0,0.0,0.0,0.0,0.0,0.0,0.0,0.0,0.0,0.0,0.0,-6.2875,-6.422,0.0,-6.4738,-6.5842,-6.6669,-6.6876,-6.7369,-6.7999,-6.8706,-6.841,-6.8396,-6.8854,-6.8488,-6.8774,-6.9789,-6.9519,-6.9755,-7.0534,-7.1007,-7.1481,-7.1921,-7.1921,-7.2191,-7.2597,-7.165,-7.121,-7.121,-7.121,-7.0669,-6.9857,-7.0331,-7.0364,-7.0195,-7.0939,-7.0737,-7.0195,0.0,0.0,0.0,-4.9817,-5.0048,-5.0625,-5.1731,-5.2385,-5.3203,-5.4357,-5.4803,-5.5361,-5.6307,-5.7241,-5.8141,-5.9053,-5.9568,-5.9754,-5.9515,-6.1076,-6.1521,-6.0407,-6.193,-6.2933,-6.3193,-6.2324,-6.2932,-6.512,-6.546,-6.557,-6.5582,-6.5981,-6.5867,-6.5338,-6.5852,-6.5815,-6.5264,-6.442,-6.3723,-6.3172,-6.2328,-6.1998,-6.1814,0.0,0.0,0.0,0.0,0.0,0.0,0.0,0.0,0.0,0.0,0.0,0.0,0.0,0.0,0.0,0.0,0.0,0.0,0.0,0.0,0.0,0.0,0.0,0.0,0.0,0.0,0.0,0.0,0.0,0.0,0.0,0.0,0.0,0.0,-6.2117,-6.322,-6.322,-6.4772,-6.5738,-6.5497,-6.6635,-6.7566,-6.8049,-6.8607,-6.92,-6.994,-6.9842,-6.9823,-7.0042,-7.0148,-7.0567,-7.1312,-7.1312,-7.1548,-7.2056,-7.2529,-7.3003,-7.3477,-7.3477,-7.3747,-7.4153,-7.2935,-7.2394,-7.2394,-7.2394,-7.1819,-7.1007,-7.1751,-7.2056,-7.209,-7.2597,-7.2462,-7.2124,0.0,-5.0712,-5.0712,-5.0712,-5.1356,-5.1923,-5.1923,-5.3395,-5.4511,-5.4549,-5.6099,-5.7207,-5.7245,-5.8858,-5.9903,-5.9998,-5.9998,-5.968,-5.8921,-6.0444,-6.141,-6.141,-6.2822,-6.4025,-6.4805,-6.4062,-6.447,-6.6105,-6.5949,-6.5804,-6.578,-6.563,-6.5503,-6.5375,-6.5375,-6.5375,-6.5411,-6.6182,-6.5595,-6.409,-6.3282,-6.289,-6.2743,0.0,0.0,0.0,0.0,0.0,0.0,0.0,0.0,0.0,0.0,0.0,0.0,0.0,0.0,0.0,0.0,0.0,0.0,0.0,0.0,0.0,0.0,0.0,0.0,0.0,0.0,0.0,0.0,0.0,0.0,0.0,0.0,0.0,-6.1737,-6.3324,-6.4703,-6.4772,-6.6738,-6.7807,-6.7118,-6.7738,-6.8187,-6.8221,-6.871,-6.9262,-6.9833,-7.0336,-7.0822,-7.1345,-7.2056,-7.2766,-7.3477,-7.351,-7.351,-7.351,-7.3544,-7.3544,-7.3544,-7.3578,-7.3578,-7.351,-7.28,-7.2496,-7.2462,-7.2462,-7.2462,-7.2529,-7.3206,-7.3477,-7.3477,-7.351,-7.351,-7.351,-5.0712,-5.0712,-5.0712,-5.0712,-5.1356,-5.2115,-5.2741,-5.378,-5.4934,-5.6137,-5.6823,-5.7677,-5.8889,-5.9552,-6.0385,-6.1633,-6.2264,-6.2487,-6.2264,-6.4382,-6.5645,-6.5645,-6.4879,-6.4842,-6.5719,-6.5534,-6.5895,-6.6839,-6.6679,-6.6851,-6.7314,-6.7158,-6.7079,-6.7026,-6.7026,-6.7026,-6.7026,-6.6659,-6.6219,-6.5815,-6.5595,-6.5485,-6.5375,0.0,0.0,0.0,0.0,0.0,0.0,0.0,0.0,0.0,0.0,0.0,0.0,0.0,0.0,0.0,0.0,0.0,0.0,0.0,0.0,0.0,0.0,0.0,0.0,0.0,0.0,0.0,0.0,0.0,0.0,0.0,-6.5048,-6.5324,-6.4703,-6.4669,-6.5117,-6.6221,-6.7394,-6.8256,-6.8601,-6.9325,-7.0222,-7.1325,-7.1393,-7.1825,-7.2908,-7.2959,-7.2972,-7.2868,-7.3071,-7.3274,-7.3477,-7.4018,-7.4289,-7.4289,-7.483,-7.51,-7.51,-7.5709,-7.5642,-7.5067,-7.4864,-7.4492,-7.4018,-7.4018,-7.4018,-7.3984,-7.3612,-7.3477,-7.3544,-7.4086,-7.4289,-7.4221,-5.0789,-5.0712,-5.0827,-5.1125,-5.1895,-5.2741,-5.3626,-5.4472,-5.5626,-5.7319,-5.7624,-5.8359,-6.008,-6.0675,-6.1484,-6.2784,-6.3044,-6.3565,-6.4605,-6.6314,-6.6982,-6.6277,-6.6017,-6.6091,-6.6611,-6.6611,-6.6972,-6.7679,-6.7555,-6.7677,-6.8081,-6.7873,-6.7794,-6.7794,-6.7741,-6.7687,-6.765,-6.7173,-6.699,-6.699,-6.699,-6.6806,-6.6402,-6.5632,-6.4787,-6.4053,-6.3686,-6.2511,-6.1166,-6.1627,0.0,0.0,0.0,0.0,0.0,0.0,0.0,0.0,0.0,0.0,0.0,0.0,0.0,0.0,0.0,0.0,0.0,0.0,0.0,0.0,0.0,0.0,0.0,0.0,-6.6497,-6.6911,-6.7256,-6.6635,-6.6324,-6.6911,-6.8221,-6.9222,-6.9704,-7.0429,-7.1498,-7.3015,-7.2991,-7.3292,-7.4148,-7.4378,-7.432,-7.395,-7.4255,-7.4559,-7.4897,-7.5033,-7.5405,-7.6048,-7.6149,-7.6352,-7.6657,-7.6826,-7.6657,-7.6183,-7.554,-7.4999,-7.4593,-7.4289,-7.4153,-7.4153,0.0,0.0,0.0,0.0,-7.5067,-7.4999,-5.1125,-5.0981,-5.1202,-5.1923,-5.2779,-5.3626,-5.4395,-5.5164,-5.6319,-5.8088,-5.8273,-5.9003,-6.0913,-6.1799,-6.2673,-6.3653,-6.3193,-6.3825,-6.6202,-6.6797,-6.65,-6.525,-6.6574,-6.7354,-6.7428,-6.754,-6.7887,-6.863,-6.8581,-6.8506,-6.8407,-6.814,-6.7999,-6.7899,-6.7767,-6.7687,-6.7687,-6.7687,-6.7687,-6.7687,-6.7687,-6.7247,-6.6549,-6.5852,-6.5118,-6.4383,-6.3649,-6.2438,-6.1337,-6.2219,0.0,0.0,0.0,0.0,0.0,0.0,0.0,0.0,0.0,0.0,0.0,0.0,0.0,0.0,0.0,0.0,0.0,0.0,0.0,0.0,0.0,0.0,0.0,0.0,-6.8187,-6.8532,-6.9394,-6.8911,-6.8221,-6.7566,-6.9291,-7.0532,-7.0636,-7.1256,-7.2257,-7.3809,-7.3912,-7.4075,-7.4456,-7.5094,0.0,0.0,0.0,-7.6163,-7.7029,-7.6149,-7.642,-7.7874,-7.713,-7.7096,-7.7705,-7.7164,-7.686,-7.669,-7.5405,-7.483,-7.4695,-7.4018,-7.3747,-7.3849,-7.4999,-7.5506,-7.5574,-7.5574,-7.5642,-7.5709,-5.2895,-5.2702,-5.2779,-5.2933,-5.3664,-5.4318,-5.4472,-5.5164,-5.6319,-5.8088,-5.7777,-5.8586,-6.1633,-6.1649,-6.2301,-6.4359,-6.5088,-6.6165,-6.7924,-6.629,-6.603,-6.7725,-6.7465,-6.7614,-6.8221,-6.889,-6.9274,-6.9322,-6.9927,-6.985,-6.9119,-6.8963,-6.8515,-6.7899,-6.7767,-6.7687,-6.7687,-6.7687,-6.7687,-6.7687,-6.7687,-6.7614,-6.743,-6.7283,-6.7136,-6.6953,-6.6806,-6.6549,-6.6219,-6.5783,-6.4685,-6.3329,-6.2599,-6.1803,0.0,0.0,0.0,0.0,0.0,0.0,0.0,0.0,0.0,0.0,0.0,0.0,0.0,0.0,0.0,0.0,0.0,0.0,0.0,-6.8049,-6.8635,-6.9532,-7.0877,-7.0946,-7.0774,-7.0636,-7.1015,-7.1532,-7.2188,-7.236,-7.3084,-7.4602,-7.4531,-7.4929,-7.5982,-7.6187,-7.6331,-7.6454,-7.6171,-7.6578,-7.7773,-7.6386,-7.6183,-7.7096,-7.6318,0.0,-7.6149,-7.6657,-7.6555,-7.5946,-7.6318,-7.6082,-7.5473,-7.5337,-7.527,-7.5168,-7.4255,-7.4289,-7.483,-7.483,-7.5202,-7.5709,-5.4549,-5.378,-5.3356,-5.378,-5.4203,-5.4626,-5.5049,-5.5434,-5.6165,-5.7473,-5.7531,-5.8418,-6.0928,-6.1087,-6.2217,-6.5127,-6.7111,-6.7947,-6.7317,-6.7256,-6.7441,-6.7874,-6.7911,-6.8097,-6.8481,-6.9261,-6.9645,-6.9595,-7.0003,-6.9978,-6.9494,-6.8882,-6.8399,-6.8004,-6.7794,-6.7687,-6.7687,-6.7687,-6.7687,-6.7687,-6.7687,-6.7687,-6.7687,-6.7687,-6.743,-6.7136,-6.754,-6.7687,-6.7614,-6.7247,-6.7158,-6.7056,-6.5916,-6.5301,-6.4837,0.0,0.0,0.0,0.0,0.0,0.0,0.0,0.0,0.0,0.0,0.0,0.0,0.0,0.0,-6.6669,-6.7394,0.0,-6.8221,-6.8635,-6.998,-7.1084,-7.1429,-7.2153,-7.236,-7.1567,-7.1843,-7.2395,-7.3153,-7.3222,-7.4016,-7.5903,-7.5608,-7.575,-7.6576,-7.6541,-7.648,-7.651,-7.6103,-7.6428,-7.7435,-7.6284,-7.6284,-7.7435,-7.6657,-7.6487,-7.6826,-7.6893,-7.669,-7.6284,-7.6284,-7.6082,-7.5709,-7.5709,-7.5946,-7.6217,-7.5473,-7.5168,-7.5168,-7.5168,-7.5371,-7.5709,-5.5703,-5.4626,-5.3895,-5.4626,-5.4741,-5.4934,-5.5588,-5.5703,-5.6011,-5.6907,-5.7429,-5.8266,-5.9793,-6.0675,-6.2432,-6.5595,-6.8303,-6.8855,-6.6486,-6.832,-6.889,-6.7614,-6.832,-6.8654,-6.8481,-6.9261,-6.9707,-6.9707,-6.9855,-6.9855,-6.967,-6.8777,-6.8306,-6.8158,-6.7899,-6.7767,-6.7741,-6.7741,-6.7714,-6.7687,-6.7687,-6.7687,-6.7687,-6.7687,-6.7283,-6.6806,-6.7467,-6.7907,-6.8091,-6.7797,-6.8752,-6.9879,-6.8517,-6.808,-6.7926,-6.7024,-6.7141,0.0,0.0,0.0,0.0,0.0,0.0,0.0,0.0,-6.5048,-6.5186,-6.6117,-6.6428,-6.6911,-6.8118,-6.8325,-6.867,-6.9773,-7.136,-7.2395,-7.2188,-7.3222,-7.3533,-7.2326,-7.2602,-7.3161,-7.374,-7.3912,-7.4843,-7.6844,-7.6464,-7.6297,-7.6759,-7.6645,-7.6517,-7.6373,-7.5967,-7.6245,-7.7193,-7.6197,-7.6386,-7.7773,-7.7164,-7.7198,-7.7773,-7.7299,-7.7029,-7.686,-7.6048,-7.5709,-7.5709,-7.5879,-7.6318,-7.6927,-7.7063,-7.6724,-7.6115,-7.598,-7.5946,-7.5912,-5.5703,-5.5549,-5.5434,-5.5549,-5.5549,-5.5588,-5.5703,-5.5703,-5.6011,-5.6907,-5.7391,-5.8075,-5.9015,-6.0896,-6.3005,-6.5286,-6.7142,-6.7882,-6.7192,-6.8097,-6.8556,-6.837,-6.9113,-6.9224,-6.8518,-6.9261,-6.9707,-6.9707,-7.0412,-7.0375,-6.967,-6.9471,-6.895,-6.8259,-6.8132,-6.8004,-6.7899,-6.7899,-6.782,-6.7687,-6.7687,-6.7687,-6.7687,-6.7687,-6.7614,-6.7577,-6.765,-6.8605,-6.9596,-6.8164,-6.8752,-6.9963,-6.9073,-6.8788,-6.8556,-6.7186,-6.64,-6.5568,-6.3937,-6.4131,-6.4927,-6.54,-6.4979,-6.4841,0.0,-6.6221,-6.6152,-6.7566,-6.8394,-6.8946,-6.9118,-6.9153,-6.9842,-7.1988,-7.1912,-7.2326,-7.4257,-7.4662,-7.4697,-7.4524,-7.4016,-7.3705,-7.3774,-7.4395,-7.5145,-7.6154,-7.6154,-7.6297,-7.6759,-7.6748,-7.6999,-7.7405,-7.6556,-7.672,-7.8114,-7.653,-7.6149,-7.7029,-7.6927,-7.6927,-7.7029,-7.7604,-7.7502,-7.686,-7.6048,-7.5709,-7.5743,-7.6454,-7.6826,-7.6961,-7.7604,-7.7807,-7.7638,-7.6995,-7.6758,-7.6657,-5.5703,-5.5703,-5.5703,-5.5703,-5.5703,-5.5703,-5.5703,-5.5703,-5.5818,-5.6214,-5.6422,-5.6877,-5.7721,-6.1272,-6.3863,-6.452,-6.726,-6.8152,-6.6275,-6.7645,-6.8296,-6.7837,-6.858,-6.8816,-6.8506,-6.9261,-6.9707,-6.9707,-7.0041,-7.0004,-6.967,-6.9063,-6.8642,-6.8284,-6.8183,-6.8044,-6.7993,-6.7952,-6.7873,-6.782,-6.7741,-6.7687,-6.7687,-6.7687,-6.7687,-6.7687,-6.7687,-6.8421,0.0,-6.8054,-6.9082,-7.0587,-6.9302,-6.9262,-6.9493,-6.8371,-6.7855,-6.7573,-6.6984,-6.674,-6.6651,-6.6543,-6.629,-6.6221,-6.6842,-6.7083,-6.7463,-6.8566,-6.9394,-7.0049,-7.0498,-7.0567,-7.105,-7.2506,-7.3119,-7.3843,-7.4766,-7.5283,-7.5637,-7.5637,-7.5326,-7.5154,-7.5154,-7.543,-7.5947,-7.6706,-7.6606,-7.6665,-7.7009,-7.6782,-7.6724,-7.6939,-7.6842,-7.6979,-7.7445,-7.7179,-7.7198,-7.7536,-7.7536,-7.7536,-7.7536,-7.7841,-7.7807,-7.7502,-7.7164,-7.7029,-7.7063,-7.7401,-7.7773,-7.8213,-7.8517,-7.8889,-7.9126,-7.7976,-7.7536,-7.7468,-5.5703,-5.5703,-5.5703,-5.5703,-5.5703,-5.5703,-5.5703,-5.5703,-5.5703,-5.5703,-5.5895,-5.6472,-5.755,-6.1204,-6.3476,-6.3312,-6.637,-6.7467,-6.5445,-6.7328,-6.8333,-6.7961,-6.8704,-6.9038,-6.8816,-6.9187,-6.9373,-6.9373,-6.9373,-6.9373,-6.9335,-6.8643,-6.8358,-6.8334,-6.8259,-6.8208,-6.8158,-6.8055,-6.7978,-6.7899,-6.7794,-6.7741,-6.7687,-6.7687,-6.7834,-6.8017,-6.8017,-6.8531,-6.9192,-6.8825,-6.9706,-7.0807,-6.9853,-6.9718,-6.9828,-6.9368,-6.9345,-6.9417,-6.9235,-6.8788,-6.8174,-6.7246,-6.7152,-6.729,-6.729,-6.7876,-6.8635,-6.9428,-7.0187,-7.0912,-7.167,-7.1808,-7.2222,-7.3429,-7.4361,-7.4972,-7.5179,-7.5913,-7.6361,-7.612,-7.6292,-7.643,-7.643,-7.643,-7.6637,-7.7189,-7.7009,-7.7009,-7.7178,-7.6816,-7.669,-7.6895,-7.7174,-7.7312,-7.7406,-7.7949,-7.822,-7.822,-7.8424,-7.8477,-7.8379,-7.833,-7.828,-7.828,-7.8077,-7.7976,-7.801,-7.8213,-7.8619,-7.9126,-7.9329,-7.9735,-8.0073,-7.8991,-7.8483,-7.8247,-5.5703,-5.5703,-5.5703,-5.5703,-5.5703,-5.5703,-5.5703,-5.5703,-5.5703,-5.5703,-5.6445,-5.7599,-5.9242,-6.0319,-6.1095,-6.1554,-6.3557,-6.4973,-6.5295,-6.7328,-6.8816,-6.9595,-7.0375,-7.045,-6.967,-6.8927,-6.8543,-6.8543,-6.8543,-6.8543,-6.8543,-6.8518,-6.8481,-6.8481,-6.8481,-6.8408,-6.8284,-6.8284,-6.8132,-6.7926,-6.7899,-6.782,-6.7687,-6.7687,-6.8164,-6.8862,-6.8862,-6.9376,-7.0183,-7.0954,-7.0734,-7.0257,-7.1027,-7.0155,-6.909,-6.9903,-7.0285,-7.0194,-6.9493,-6.931,-6.8914,-6.7384,-6.7532,-6.8049,-6.8049,-6.867,-6.9463,-7.0187,-7.0946,-7.1705,-7.2498,-7.2678,-7.3395,-7.5637,-7.5352,-7.5145,-7.5982,-7.6706,-7.6913,-7.6189,-7.674,-7.7189,-7.7189,-7.7189,-7.7189,-7.7223,-7.7178,-7.7178,-7.7223,-7.6964,-7.7171,-7.7914,-7.7728,-7.793,-7.8647,-7.8716,-7.875,-7.8716,-7.9467,-7.9698,-7.9439,-7.9192,-7.9092,-7.9025,-7.8314,-7.7976,-7.8044,-7.8788,-7.9092,-7.9194,-7.9904,-8.0175,-8.0175,-8.0141,-7.9667,-7.8957,-5.5703,-5.5703,-5.5703,-5.5703,-5.5703,-5.5703,-5.5703,-5.5703,-5.5703,-5.5703,-5.5972,0.0,0.0,0.0,0.0,0.0,-6.2772,-6.3492,-6.25,-6.5266,-6.7057,-6.7317,-6.9076,-7.0227,-7.0487,-7.0227,-7.0078,-7.0078,-6.9558,-6.9558,-7.0078,-6.9001,-6.9076,-7.0041,-6.8964,-6.8754,-6.9212,-6.8556,-6.8479,-6.8841,-6.8736,-6.8961,-6.9265,-6.9265,-6.9449,-6.9853,0.0,-7.1138,-7.0954,-7.1211,-7.1468,-7.1541,-7.077,-7.0587,-7.0678,-7.0972,-7.1078,-7.0904,-7.0163,-6.9988,-6.9785,-6.8803,-6.9084,-6.9739,-7.0222,-7.0567,-7.1118,-7.236,-7.2843,-7.3257,-7.4016,-7.4154,-7.4568,-7.5913,-7.5878,-7.5982,-7.674,-7.7051,-7.712,-7.6878,-7.7085,-7.7223,-7.7223,-7.7223,-7.7223,-7.7223,-7.7009,-7.725,-7.7982,-7.7755,-7.7926,-7.8716,-7.9102,-7.9385,-7.9515,-7.998,-8.0156,-7.9975,-8.0248,-8.0236,-7.9987,-8.0087,-7.9987,-7.9837,-7.9566,-7.9464,-7.9464,-7.9735,-7.9837,-7.9803,-7.9566,-7.9464,-7.9431,-7.8923,-7.8585,-7.8382,0.0,-5.5703,-5.5703,-5.5703,-5.5703,0.0,0.0,0.0,0.0,0.0,0.0,0.0,0.0,0.0,0.0,0.0,0.0,-6.1498,-6.0989,-6.3368,-6.5162,-6.6054,-6.8134,-6.9484,-7.0004,-7.0041,-7.019,-7.045,-6.967,-6.9818,-7.0858,-6.9818,-6.9893,-7.0858,-6.9818,-6.9633,-7.0078,-6.9484,-6.9406,-6.9669,-6.8999,-6.8914,-6.9229,-6.9229,-6.9229,0.0,-7.1725,-7.2165,-7.1835,-7.2386,-7.2386,-7.1908,-7.0844,-7.0734,-7.1168,-7.2043,-7.2076,-7.1733,-7.1291,-7.0982,-7.0661,-6.9876,-7.0222,-7.0912,-7.1394,-7.1705,-7.2188,-7.3188,-7.3602,-7.4016,-7.4731,-7.5154,-7.5602,-7.6395,-7.674,-7.7016,-7.7189,-7.7465,-7.7534,-7.7213,-7.7223,-7.7223,-7.7223,-7.7223,-7.7223,-7.7223,-7.7329,-7.7663,-7.8361,-7.85,-7.8809,-7.9471,-8.008,-8.0364,-8.0432,-8.1008,-8.1151,-8.0906,-8.0709,-8.051,-8.036,-8.041,-8.036,-8.0209,-8.0209,-8.0209,-8.0175,-7.9904,-7.9803,-7.9735,-7.8991,-7.872,-7.8653,-7.8145,-7.7807,-7.7705,0.0,0.0,-5.5703,0.0,0.0,0.0,0.0,0.0,0.0,0.0,0.0,0.0,0.0,0.0,0.0,0.0,0.0,0.0,-6.069,-6.1701,0.0,-6.5794,-6.7465,-6.8333,-6.8444,-6.8506,-6.889,-6.9707,-6.8927,-6.9335,-7.0821,-7.0747,-7.0747,-7.0747,-7.0672,-7.0672,-7.071,-7.0672,-7.052,-7.0212,-6.8735,-6.7989,-6.776,-6.7834,-6.7871,-6.8274,-7.1394,-7.2459,-7.2679,-7.4258,-7.3201,-7.1293,-7.1439,-7.0954,-7.0734,-7.312,-7.3191,-7.2568,-7.2652,-7.2152,-7.1434,-7.0678,-7.1063,-7.165,-7.1684,-7.2237,-7.2789,-7.2885,-7.3403,-7.4162,-7.4981,-7.5696,-7.6464,-7.7223,-7.7982,-7.8189,-7.7396,-7.7948,-7.8154,-7.743,-7.7213,-7.7258,-7.7292,-7.7258,-7.7258,-7.7292,-7.7982,-7.843,-7.8499,-7.9189,-7.9774,-8.0261,-8.0531,-8.091,-8.1393,-8.1668,-8.1585,-8.1345,-8.0857,-8.061,-8.056,-8.036,-8.0209,-8.0209,-8.0242,-8.0242,-8.0209,-7.9532,-7.9295,-7.9194,-7.8416,-7.8111,-7.8077,-7.801,-7.7536,-7.7063,0.0,0.0,0.0,0.0,0.0,0.0,0.0,0.0,0.0,0.0,0.0,0.0,0.0,0.0,0.0,0.0,0.0,0.0,-5.9019,-6.0,0.0,0.0,0.0,0.0,0.0,0.0,0.0,-6.9707,-6.9484,-6.9595,-6.9967,-6.8778,-6.8543,-6.9038,-6.785,-6.7688,-6.8208,-6.7577,-6.7543,-6.7885,0.0,-6.881,-6.8715,0.0,-7.0403,-7.0587,-7.1982,-7.2129,-7.1762,-7.2789,-7.2312,-7.1586,-7.345,-7.345,-7.312,-7.4955,-7.3715,-7.1898,-7.2512,-7.2152,-7.1693,-7.2022,-7.2678,-7.3377,-7.3972,-7.3797,-7.3839,-7.5008,-7.5358,-7.6063,-7.7969,-7.8051,-7.8085,-7.881,-7.9086,-7.8982,-7.8223,-7.8292,-7.8534,-7.8879,-7.7913,-7.7465,-7.8051,-7.7568,-7.7465,-7.8051,-7.8292,-7.8879,-7.9982,-8.0224,-8.066,-8.1371,-8.1453,-8.1556,-8.1715,-8.1345,-8.1054,-8.0808,-8.0659,-8.051,-8.0309,-8.046,-8.041,-8.0242,-8.0784,-8.1021,-8.1054,-8.1426,-8.1562,-8.1426,-8.0141,-7.9634,-7.9498,-7.8382,-7.7874,-7.7739,0.0,0.0,0.0,0.0,0.0,0.0,0.0,0.0,0.0,0.0,0.0,0.0,0.0,0.0,0.0,0.0,0.0,0.0,0.0,-5.8315,-5.9441,0.0,0.0,0.0,0.0,0.0,0.0,0.0,0.0,0.0,-7.0227,-6.9694,-6.9694,-7.0103,-6.9546,-6.936,-6.9434,-6.8951,0.0,0.0,0.0,0.0,0.0,0.0,-6.7907,-6.777,-6.9302,-7.0036,-7.0367,-7.1174,-7.1394,-7.1696,-7.4147,-7.4111,-7.3487,-7.5102,-7.4138,-7.2532,-7.2618,-7.2903,-7.3136,-7.3178,-7.401,-7.4972,-7.5395,-7.4918,-7.4657,-7.5875,-7.6098,-7.6559,-7.8186,-7.8154,-7.8258,-7.9327,-7.9224,-7.8982,-7.8913,-7.8603,-7.8672,-7.9431,-7.8154,-7.7534,-7.8327,-7.8017,-7.8051,-7.8844,-7.8879,-7.9396,-8.0569,-8.0948,-8.1328,-8.1776,-8.181,-8.1763,-8.162,-8.1102,-8.0759,-8.061,-8.051,-8.0529,-8.0682,-8.0834,-8.1004,-8.119,-8.1596,-8.1765,-8.1799,-8.1866,-8.19,-8.1799,-8.0648,-8.0209,-8.0107,-7.9261,-7.8957,-7.8991,0.0,0.0,0.0,0.0,0.0,0.0,0.0,0.0,0.0,0.0,-5.6242,-5.6049,-5.6049,-5.5934,0.0,0.0,0.0,0.0,0.0,0.0,-5.7546,0.0,0.0,0.0,0.0,0.0,-6.6202,-6.7688,-6.7887,0.0,0.0,0.0,0.0,0.0,0.0,0.0,0.0,0.0,0.0,0.0,0.0,0.0,0.0,0.0,0.0,-6.3429,-6.5705,-6.754,-6.9009,-6.9706,-7.055,-7.1696,-7.4147,-7.3891,-7.2973,-7.4588,-7.4535,-7.3823,-7.3114,-7.4154,-7.5226,-7.4482,-7.5419,-7.6533,-7.6511,-7.5956,-7.5697,-7.6353,-7.6534,-7.6748,-7.7405,-7.7436,-7.7841,-7.9258,-7.8982,-7.881,-7.9569,-7.9017,-7.8879,-7.9707,-7.8361,-7.7672,-7.8465,-7.8568,-7.881,-7.9465,-7.9603,-7.9982,-8.0741,-8.1431,-8.181,-8.181,-8.181,-8.1668,-8.1345,-8.0906,-8.061,-8.056,-8.0411,-8.0682,-8.1291,-8.1393,-8.1799,-8.2408,-8.2509,-8.2543,-8.2509,-8.1968,-8.1731,-8.1663,-8.0919,-8.0648,-8.0648,-8.0648,-8.0648,-8.075,0.0,0.0,0.0,0.0,0.0,0.0,0.0,0.0,0.0,0.0,-5.9165,-5.7857,0.0,0.0,0.0,0.0,0.0,0.0,0.0,0.0,0.0,-5.6692,0.0,0.0,0.0,-6.1187,-6.2524,-6.3453,-6.4791,-6.5585,0.0,0.0,0.0,0.0,0.0,0.0,0.0,0.0,0.0,0.0,0.0,0.0,0.0,0.0,0.0,0.0,-6.6109,-6.754,-6.8935,-6.9082,-7.0073,-7.1696,-7.4147,-7.4258,-7.3817,-7.5432,-7.5374,-7.4754,-7.4588,-7.5815,-7.7044,-7.6835,-7.7521,-7.817,-7.8096,-7.806,-7.7991,-7.8075,-7.8631,-7.9096,-7.9178,-7.8672,-7.8519,-7.9396,-7.9396,-7.9569,-8.0327,-7.9776,-7.9844,-8.1224,-7.95,-7.8499,-7.9258,-7.9327,-7.9362,-7.95,-8.0086,-8.0776,-8.1569,-8.1707,-8.181,-8.181,-8.181,-8.1538,-8.1054,-8.1005,-8.0709,-8.0259,-8.0868,-8.1156,-8.1291,-8.1934,-8.2272,-8.2441,-8.305,-8.3321,-8.3355,-8.3828,-8.4031,-8.3964,-8.3219,-8.2915,-8.2915,-8.2915,-8.2915,-8.3016,0.0,0.0,0.0,0.0,0.0,0.0,0.0,-6.1589,-6.2666,-6.5667,-6.4589,-6.2704,-6.0512,-5.8704,-5.7428,0.0,0.0,0.0,0.0,0.0,0.0,0.0,0.0,0.0,0.0,-5.9924,-6.115,-6.2413,0.0,-6.4196,-6.4173,-6.5028,-6.5422,-6.5422,-6.5459,-6.5236,-6.473,0.0,0.0,-6.2604,-6.2448,-6.1789,0.0,0.0,0.0,0.0,-6.3649,-6.5521,-6.7724,-6.8128,-6.9633,-7.1696,-7.4147,-7.4661,-7.4551,-7.5763,-7.6172,-7.6081,-7.5723,-7.7119,-7.8592,-7.815,-7.8919,-7.9676,-7.9288,-7.8867,-7.8561,-7.8495,-7.8493,-7.8423,-7.8406,-7.776,-7.7607,-7.8739,-7.8603,-7.8844,-8.0396,-7.9982,-7.9913,-8.1052,-7.9879,-7.8982,-7.8948,-7.9638,-7.9913,-7.9534,-8.0569,-8.1397,-8.1776,-8.181,-8.181,-8.181,-8.1633,-8.1442,-8.12,-8.0956,-8.083,-8.0953,-8.1224,-8.1697,-8.2441,-8.2813,-8.3186,-8.3592,-8.393,-8.4065,-8.4099,-8.4471,-8.464,-8.4573,-8.4234,-8.4065,-8.4133,-8.4539,-8.4674,-8.4843,0.0,0.0,0.0,0.0,0.0,0.0,0.0,-6.4743,-6.6167,-6.9783,-6.9321,-6.7359,-6.382,-6.1012,-5.8753,0.0,0.0,0.0,0.0,0.0,0.0,0.0,0.0,0.0,0.0,0.0,0.0,-6.1633,-6.2413,0.0,0.0,0.0,0.0,0.0,-6.5041,-6.4893,-6.4179,-6.3776,-6.3117,0.0,0.0,-6.0515,0.0,0.0,0.0,0.0,0.0,-6.3613,-6.6366,-6.7173,-6.8935,-7.1211,-7.345,-7.4478,-7.5065,-7.5873,-7.679,-7.7401,-7.6639,-7.8098,-7.9599,-7.882,-7.9633,-8.0424,-7.949,-7.9015,-7.869,-7.8327,-7.7891,-7.7411,-7.6922,-7.6287,-7.617,-7.7263,-7.7189,-7.7775,-8.0051,-7.9879,-7.9776,-8.0534,-8.012,-7.9396,-7.8499,-7.9741,-8.0293,-7.9569,-8.0948,-8.181,-8.181,-8.181,-8.181,-8.181,-8.162,-8.1442,-8.1297,-8.1043,-8.117,-8.1597,-8.1698,-8.2272,-8.3287,-8.3592,-8.3964,-8.4403,-8.4539,-8.464,-8.464,-8.464,-8.464,-8.464,-8.464,-8.4742,-8.4979,-8.5723,-8.6129,-8.6433,0.0,0.0,0.0,0.0,0.0,0.0,0.0,-6.5282,-6.7282,-7.1437,-7.0591,-6.9129,-6.7936,-6.4846,-6.1748,0.0,0.0,0.0,0.0,0.0,0.0,0.0,0.0,0.0,0.0,0.0,0.0,-5.9032,-5.985,0.0,0.0,0.0,0.0,0.0,0.0,-6.2447,-6.217,-6.0669,0.0,0.0,0.0,0.0,0.0,0.0,0.0,0.0,0.0,-6.3246,-6.5521,-6.6329,-6.7724,-6.9412,-7.1101,-7.3156,-7.5065,-7.5873,-7.7231,-7.8264,-7.7432,-7.8453,-7.9617,-7.882,-7.9265,-7.948,-7.7897,-7.8636,-7.9228,-7.7694,-7.7982,-7.7823,-7.5693,-7.5187,-7.4909,-7.4314,-7.5326,-7.7016,-7.9293,-7.9569,-7.9776,-8.0534,-8.0569,-7.9948,-7.8534,-7.9741,-8.0293,-7.9569,-8.0948,-8.181,-8.181,-8.181,-8.181,-8.181,-8.181,-8.1538,-8.1054,-8.1654,-8.173,-8.1342,-8.2644,-8.3016,-8.2543,-8.3896,-8.42,-8.3625,-8.4336,-8.464,-8.464,-8.464,-8.464,-8.464,-8.464,-8.5046,-8.5757,-8.6535,-8.7211,-8.7888,0.0,0.0,0.0,0.0,0.0,0.0,-6.6013,-6.632,-6.7975,-7.3745,-7.3014,-7.1668,-7.0783,-6.8771,-6.5144,-5.9208,0.0,0.0,0.0,0.0,0.0,0.0,0.0,0.0,0.0,0.0,-5.7881,-5.8698,-5.9032,0.0,0.0,0.0,0.0,0.0,0.0,-5.9923,-5.9849,-5.9087,0.0,0.0,0.0,0.0,0.0,0.0,0.0,0.0,0.0,0.0,-6.5411,-6.6219,-6.7577,-6.9119,-7.022,-7.1908,-7.3707,-7.4992,-7.6203,-7.7231,-7.7892,-7.8589,-7.9103,-7.9286,-7.9176,-7.8772,-7.7567,-7.7451,-7.7231,-7.6093,-7.613,-7.5802,-7.4009,-7.4011,-7.3852,-7.2617,-7.4499,-7.674,-7.8603,-7.9603,-8.0293,-8.0603,-8.1052,-8.0362,-7.7913,-7.9465,-8.05,-8.0189,-8.119,-8.181,-8.181,-8.181,-8.181,-8.181,-8.181,-8.162,-8.1248,-8.1821,-8.2103,-8.2225,-8.2595,-8.2915,-8.3084,-8.3219,-8.3118,-8.2847,-8.3152,-8.3287,-8.3321,-8.3761,-8.3964,-8.4031,-8.4979,-8.552,-8.5926,-8.7144,-8.7753,-8.8091,0.0,0.0,0.0,0.0,0.0,-6.0589,-6.6397,-6.6898,-6.8513,-7.3783,-7.3707,-7.2783,-7.1898,-7.0241,-6.6701,-6.0557,-5.8949,0.0,0.0,0.0,0.0,0.0,0.0,0.0,0.0,0.0,-5.7881,-5.8698,-5.8698,-5.8635,0.0,0.0,-5.8465,-5.8465,0.0,0.0,0.0,0.0,0.0,0.0,0.0,0.0,0.0,0.0,0.0,0.0,0.0,0.0,0.0,0.0,0.0,-6.8385,-6.9412,-7.0697,-7.2129,-7.3744,-7.5102,-7.635,-7.7524,-7.8038,-7.8369,-7.8919,-7.8442,-7.7635,-7.679,-7.5983,-7.5175,-7.4368,-7.4184,-7.3757,-7.2254,-7.2798,-7.2966,-7.1405,-7.374,-7.6292,-7.7844,-7.9362,-8.0465,-8.0914,-8.1672,-8.1017,-7.8189,-7.9362,-8.0396,-8.0603,-8.1362,-8.181,-8.181,-8.181,-8.181,-8.181,-8.1715,-8.1538,-8.1297,-8.1961,-8.2325,-8.2326,-8.2613,-8.278,-8.2847,-8.2543,-8.2272,-8.2103,-8.2543,-8.2746,-8.278,-8.3524,-8.3828,-8.393,-8.5012,-8.5723,-8.623,-8.7279,-8.7955,-8.8395,0.0,0.0,0.0,0.0,0.0,0.0,-6.4128,-6.6782,-6.9013,-7.0744,-7.1668,-7.186,-7.1014,-6.831,-6.5731,-6.3723,-6.1655,0.0,0.0,0.0,0.0,0.0,0.0,0.0,0.0,0.0,-5.7881,-5.8698,-5.8698,-5.8635,-5.8508,-5.8459,-5.8393,-5.8393,0.0,0.0,0.0,0.0,0.0,0.0,0.0,0.0,-5.8107,0.0,0.0,0.0,0.0,0.0,0.0,0.0,0.0,0.0,0.0,-6.9486,-7.044,-7.2055,-7.4221,-7.6093,-7.613,-7.6717,-7.731,-7.731,-7.6717,-7.5909,-7.5139,-7.4294,-7.3487,-7.2679,-7.2532,-7.2078,-7.0606,-7.1586,-7.2152,-7.0643,-7.2946,-7.543,-7.7016,-7.8568,-8.0086,-8.1603,-8.2431,-8.2017,-7.9707,-7.95,-7.981,-8.0569,-8.1362,-8.181,-8.181,-8.181,-8.181,-8.181,-8.1538,-8.1248,-8.1005,-8.2173,-8.2293,-8.1325,-8.278,-8.2712,-8.1325,-8.2069,-8.2002,-8.1393,-8.2847,-8.349,-8.3558,-8.4302,-8.4606,-8.4606,-8.464,-8.5554,-8.6907,-8.6907,-8.7854,-8.9072,0.0,0.0,0.0,0.0,0.0,0.0,0.0,-6.3935,-6.5089,-6.7936,-6.8052,-6.8436,-6.9937,-6.7927,-6.6039,-6.4848,0.0,0.0,0.0,0.0,0.0,0.0,0.0,0.0,0.0,-5.8586,-5.9807,-6.107,-6.1649,-6.1795,-6.1587,-6.154,-6.095,-5.9918,-5.9766,-5.9472,0.0,0.0,0.0,0.0,0.0,-5.7997,-5.8143,0.0,0.0,0.0,0.0,0.0,0.0,0.0,0.0,0.0,0.0,0.0,0.0,-7.055,-7.2569,-7.4441,-7.4441,-7.5065,-7.5689,-7.5689,-7.5065,-7.4258,-7.345,-7.2642,-7.1835,-7.1027,-7.1321,-7.1208,-6.9749,-7.1193,-7.1975,-6.9951,-7.2602,-7.5292,-7.6326,-7.8223,-7.9879,-8.0879,-8.0293,-7.9948,-8.0224,-7.981,-7.981,-8.0569,-8.1362,-8.181,-8.181,-8.181,-8.181,-8.181,-8.1538,-8.1248,-8.1005,-8.1712,-8.2021,-8.2069,-8.2002,-8.2272,-8.278,-8.2002,-8.1799,-8.2069,-8.2543,-8.2746,-8.2813,-8.3558,-8.4167,-8.4742,-8.579,-8.6805,-8.7719,-8.8226,-8.87,-8.9072,0.0,0.0,0.0,0.0,0.0,0.0,0.0,-6.2474,-6.3281,-6.5397,-6.5243,-6.5897,-6.8436,-6.6548,-6.497,-6.4664,0.0,0.0,0.0,0.0,0.0,0.0,0.0,0.0,-5.8401,-5.9658,-6.1078,-6.2655,-6.3423,-6.3651,-6.3456,-6.3751,-6.3051,-6.1506,-6.1055,-6.0638,0.0,0.0,0.0,0.0,-5.8767,-5.8731,-5.8621,0.0,0.0,0.0,0.0,0.0,0.0,0.0,0.0,0.0,0.0,0.0,0.0,0.0,-7.0917,-7.2459,-7.3083,-7.3817,-7.4441,-7.4441,-7.4074,-7.356,-7.3083,-7.2092,-7.1174,-7.066,-7.0954,-7.0843,-6.9391,-7.123,-7.2469,-7.0851,-7.3291,-7.5844,-7.7189,-7.8603,-8.0017,-8.1328,-7.9913,-7.9534,-8.1328,-8.0293,-7.9948,-8.0983,-8.1535,-8.181,-8.181,-8.181,-8.181,-8.181,-8.1538,-8.1248,-8.1005,-8.1474,-8.1783,-8.1968,-8.1494,-8.1765,-8.2611,-8.1426,-8.1291,-8.2002,-8.2272,-8.2746,0.0,-8.4031,-8.464,-8.5182,-8.6433,-8.7177,-8.7685,-8.8395,-8.8835,-8.9072,0.0,0.0,0.0,0.0,0.0,0.0,0.0,-6.2127,-6.3128,-6.3128,-6.3128,-6.4051,-6.6474,-6.4197,-6.278,-6.3382,0.0,0.0,0.0,0.0,0.0,0.0,0.0,0.0,-6.0051,-6.0796,-6.1989,-6.3632,-6.4302,-6.4586,-6.4561,-6.5297,-6.4781,-6.3211,-6.223,-6.1777,-6.1763,-6.1532,-6.0566,-5.9258,-6.0015,-5.9869,0.0,0.0,0.0,0.0,0.0,0.0,0.0,0.0,0.0,0.0,0.0,0.0,0.0,0.0,0.0,0.0,0.0,-7.2863,-7.3523,-7.3597,-7.3597,-7.3597,-7.3523,-7.2422,0.0,-7.1248,-7.1293,-7.0916,-6.943,-7.1622,-7.3425,-7.279,-7.4602,-7.6878,-7.9051,-7.9431,-8.0327,-8.25,-8.0776,-8.0293,-8.2535,-8.0776,-8.0155,-8.1672,-8.181,-8.181,-8.181,-8.181,-8.181,-8.181,-8.1538,-8.1297,-8.1005,-8.1356,-8.1512,-8.1359,-8.1325,-8.1359,-8.1494,-8.075,-8.0818,-8.1562,-8.2306,-8.3422,-8.4776,-8.5554,-8.5892,-8.5993,-8.6704,-8.7008,-8.7144,-8.782,-8.8497,-8.9072,0.0,0.0,0.0,0.0,0.0,0.0,0.0,0.0,0.0,0.0,-6.1396,-6.1858,-6.314,-6.1849,-6.108,0.0,0.0,0.0,0.0,0.0,0.0,0.0,0.0,0.0,-6.1626,-6.2419,-6.382,-6.5851,-6.6673,-6.7295,-6.7787,-6.7998,-6.7226,-6.5584,-6.4152,-6.283,-6.1569,-6.0309,-5.9551,-5.9221,-5.9404,-5.9368,0.0,0.0,0.0,0.0,-6.2511,-6.278,0.0,0.0,0.0,0.0,0.0,0.0,0.0,0.0,-6.8605,-6.8458,-6.9486,0.0,-7.2018,-7.2642,-7.2789,-7.2606,0.0,-7.2055,-7.1872,-7.0624,-7.1358,-7.1756,-7.0289,-7.1586,-7.2823,-7.2721,-7.4602,-7.6499,-7.7603,-7.8775,-7.9913,-8.1017,-7.9672,-7.9327,-8.0983,-8.0155,-8.0155,-8.1672,-8.181,-8.181,-8.181,-8.181,-8.181,-8.181,-8.1763,-8.149,-8.1005,-8.073,-8.1072,-8.2137,-8.1562,-8.2171,-8.3828,-8.305,-8.3118,-8.3896,-8.464,-8.5182,-8.5587,-8.6332,-8.6974,-8.7482,-8.7685,-8.8091,-8.8598,-8.8767,-8.8937,-8.9072,0.0,0.0,0.0,0.0,0.0,0.0,0.0,0.0,0.0,0.0,0.0,0.0,0.0,0.0,0.0,0.0,0.0,0.0,0.0,0.0,0.0,0.0,0.0,-6.2724,-6.384,-6.4559,-6.5816,-6.7763,-6.8151,-6.8733,-6.9449,-6.9449,-6.8788,-6.7504,-6.5521,-6.3943,-6.2695,-6.1814,-6.1006,-6.0346,-6.0713,0.0,0.0,0.0,0.0,0.0,-6.2658,-6.278,0.0,-6.4237,-6.464,-6.4861,0.0,0.0,0.0,0.0,-6.776,-6.7871,-6.8678,-6.9816,-7.0844,-7.1284,-7.2239,-7.2936,-7.2496,-7.301,-7.345,-7.2973,-7.356,-7.3721,-7.222,-7.3512,-7.4522,-7.3829,-7.5637,-7.7534,-7.8637,-7.9189,-7.9776,-8.0534,-7.9603,-7.9362,-8.05,-8.0258,-8.05,-8.1707,-8.181,-8.181,-8.181,-8.181,-8.181,-8.181,-8.1715,-8.1393,-8.1005,-8.0709,-8.1207,-8.2408,-8.1629,-8.2272,-8.4065,-8.3321,-8.3592,-8.464,-8.508,-8.5824,-8.6839,-8.7245,-8.7651,-8.8023,-8.8361,-8.8531,-8.8632,-8.897,-8.9072,-8.9072,0.0,0.0,0.0,0.0,0.0,0.0,0.0,0.0,0.0,0.0,0.0,0.0,0.0,0.0,0.0,0.0,0.0,0.0,0.0,0.0,0.0,0.0,-6.2826,-6.4348,-6.6087,-6.6602,-6.7605,-6.9061,-6.932,-6.9853,-7.066,-7.066,-6.9963,-6.8641,-6.6476,-6.4971,-6.4053,-6.3833,-6.2879,-6.1667,-6.2365,0.0,0.0,0.0,0.0,0.0,0.0,0.0,0.0,-6.4457,-6.5007,-6.5228,-6.5925,0.0,0.0,0.0,0.0,0.0,-6.8825,-6.9669,-7.0293,-7.0293,-7.1908,-7.3523,-7.3523,-7.4331,-7.5212,-7.5652,-7.6019,-7.5839,-7.4332,-7.5616,-7.654,-7.5422,-7.7223,-7.9189,-8.0431,-7.9982,-7.9707,-8.0224,-7.9741,-7.9672,-8.0534,-8.0741,-8.1155,-8.2086,-8.2155,-8.2155,-8.2155,-8.2017,-8.2017,-8.2121,-8.1778,-8.142,-8.1175,-8.1024,-8.1458,-8.2408,-8.1765,-8.2238,-8.3659,-8.3152,-8.3625,-8.4809,-8.5046,-8.623,-8.7989,-8.8125,-8.8158,-8.8226,-8.8835,-8.87,-8.8226,-8.8869,-8.9072,-8.9072,0.0,0.0,0.0,0.0,0.0,0.0,0.0,0.0,0.0,0.0,0.0,0.0,0.0,0.0,0.0,0.0,0.0,0.0,0.0,0.0,0.0,-6.2798,-6.3772,-6.5287,-6.7546,-6.7668,-6.8104,-6.8926,-7.0954,-7.2349,-7.3156,-7.3156,-7.1248,-6.7834,-6.6769,-6.5485,-6.4016,-6.2585,-6.1814,-6.1594,-6.1741,0.0,0.0,0.0,0.0,0.0,0.0,0.0,0.0,-6.3074,-6.3686,-6.431,-6.442,0.0,0.0,0.0,0.0,0.0,-6.9522,-7.0513,-7.1138,-7.1138,-7.1908,-7.2679,-7.2679,-7.4368,-7.5579,-7.4331,-7.5689,-7.6647,-7.5049,-7.5044,-7.5581,-7.666,-7.8775,-8.0362,-8.0603,-7.9982,-7.9327,-7.881,-7.8637,-7.912,-8.05,-8.1224,-8.219,-8.3569,-8.3673,-8.3673,-8.3673,-8.3087,-8.3018,-8.3638,-8.281,-8.2174,-8.1927,-8.1115,-8.1257,-8.2408,-8.2306,-8.3016,-8.4471,-8.5012,-8.5384,-8.5689,-8.6941,-8.7685,-8.8057,-8.8666,-8.8903,-8.8937,-8.9038,-8.9004,-8.8937,-8.9038,-8.9072,-8.9072,0.0,0.0,0.0,0.0,0.0,0.0,0.0,0.0,0.0,0.0,0.0,0.0,0.0,0.0,0.0,0.0,0.0,0.0,0.0,0.0,-6.1208,-6.3567,-6.4045,-6.5591,-6.8489,-6.8887,-6.9678,-7.0844,-7.2386,-7.378,-7.4955,-7.367,-7.1835,-6.9559,-6.7907,-6.6476,-6.5301,-6.4127,-6.3099,-6.2254,0.0,0.0,0.0,0.0,0.0,0.0,0.0,0.0,0.0,0.0,-6.4053,-6.4677,-6.4237,0.0,0.0,0.0,0.0,0.0,-6.9119,-7.0036,-7.0954,-7.2275,-7.352,-7.454,-7.5012,-7.6298,-7.7417,-7.7578,-7.8163,-7.8259,-7.7123,-7.7195,-7.7779,-7.8854,-7.9258,-7.9707,-8.05,-7.9638,-7.8948,-7.8982,-7.9362,-8.0051,-8.1155,-8.1948,-8.2845,-8.3949,-8.3871,-8.3773,-8.3773,-8.3365,-8.3281,-8.3738,-8.3183,-8.2607,-8.2098,-8.1917,-8.1987,-8.2408,-8.2813,-8.3795,-8.5249,-8.5621,-8.623,-8.7008,-8.7719,-8.8226,-8.8598,-8.8937,-8.9072,-8.9072,-8.9072,-8.9072,-8.9072,-8.9072,-8.9072,-8.9072,0.0,0.0,0.0,0.0,0.0,0.0,0.0,0.0,0.0,0.0,0.0,0.0,0.0,0.0,0.0,0.0,0.0,0.0,0.0,-5.9776,-6.1507,-6.3686,-6.398,-6.572,-6.9282,-7.0018,-7.1174,-7.2789,-7.4368,-7.5542,-7.635,-7.4478,-7.2789,-7.1183,-6.9155,-6.7687,-6.6696,-6.5521,-6.4273,-6.3099,0.0,0.0,0.0,0.0,0.0,0.0,0.0,0.0,0.0,0.0,0.0,0.0,0.0,0.0,0.0,-6.5742,-6.6696,-6.8458,-6.9486,-7.0477,-7.1798,-7.4221,-7.5327,-7.6061,-7.7071,-7.8049,-7.9057,-7.9958,-7.9887,-7.9466,-7.8714,-7.9246,-7.9931,-8.0282,-7.9569,-7.9189,-7.9982,-7.912,-7.8603,-7.9189,-7.9913,-8.081,-8.1948,-8.2742,-8.3569,-8.4466,-8.4338,-8.4189,-8.414,-8.3853,-8.3768,-8.404,-8.3668,-8.3175,-8.251,-8.2956,-8.2953,-8.2408,-8.3321,-8.4471,-8.579,-8.6129,-8.6907,-8.8023,-8.8158,-8.8564,-8.9072,-8.9072,-8.9072,-8.9072,-8.9072,-8.9072,-8.9072,-8.9072,-8.9072,-8.9106,0.0,0.0,0.0,0.0,0.0,0.0,0.0,0.0,0.0,0.0,0.0,0.0,0.0,0.0,0.0,0.0,0.0,0.0,-5.9269,-5.9976,-6.1153,-6.2842,-6.3686,-6.5962,-6.9954,-7.0807,-7.2018,-7.3597,-7.7451,-7.8626,-7.72,-7.7017,-7.4925,-7.1284,-7.033,-6.9045,-6.7467,-6.5154,-6.4127,-6.3943,-6.3135,0.0,0.0,0.0,0.0,0.0,0.0,0.0,0.0,0.0,0.0,0.0,0.0,0.0,-6.6402,-6.5558,-6.7504,-7.0257,-7.1835,-7.3377,-7.5175,-7.7635,-7.6613,-7.5409,-7.6943,-7.8522,-7.9246,-7.7833,-7.8638,-7.9345,-7.8571,-7.9599,-8.0305,-7.9672,-8.0086,-8.0017,-7.8741,-7.8465,-7.843,-7.8465,-7.9155,-8.0431,-8.2604,-8.35,-8.4535,-8.6018,-8.6156,-8.5971,-8.577,-8.5267,-8.5133,-8.5361,-8.4626,-8.4063,-8.3738,-8.4257,-8.3761,-8.2441,-8.3862,-8.4979,-8.5824,-8.7211,-8.7888,-8.8023,-8.87,-8.9038,-8.9072,-8.9072,-8.9072,-8.9072,-8.9072,-8.9072,-8.9072,-8.9072,-8.9072,-8.9173,0.0,0.0,0.0,0.0,0.0,0.0,0.0,0.0,0.0,0.0,0.0,0.0,0.0,0.0,0.0,0.0,0.0,0.0,-5.9241,-5.9966,-6.1117,-6.2732,-6.3135,-6.5191,-6.9265,-7.0624,-7.2797,-7.5946,-7.8516,-7.8699,-7.6533,-7.5542,-7.4001,-7.1982,-7.066,-6.9192,-6.7614,-6.6182,-6.4714,-6.3282,-6.2952,-6.278,0.0,0.0,0.0,0.0,0.0,0.0,0.0,0.0,-6.3723,-6.4714,-6.387,-6.5264,-6.7173,-6.688,-6.8348,-7.044,-7.2055,-7.367,-7.5506,-7.7965,-7.8259,-7.8207,-7.929,-7.9612,-7.9818,-8.0139,-7.9874,-7.962,-7.9763,-7.9867,-7.9982,-8.0155,-7.9672,-7.9051,-7.8499,-7.8396,-7.8568,-7.9051,-7.9741,-8.1086,-8.3362,-8.3845,-8.4639,-8.6191,-8.5992,-8.584,-8.589,-8.5207,-8.5018,-8.548,-8.4844,-8.4279,-8.3908,-8.434,-8.4336,-8.3795,-8.4843,-8.5757,-8.6535,-8.755,-8.826,-8.87,-8.897,-8.9072,-8.9072,-8.9072,-8.9072,-8.9072,-8.9072,-8.9072,-8.914,-8.9613,-8.9782,-8.9884,0.0,0.0,0.0,0.0,0.0,0.0,0.0,0.0,0.0,0.0,0.0,0.0,0.0,0.0,0.0,0.0,0.0,0.0,-5.9538,-6.0089,-6.1263,-6.3135,-6.3466,-6.5154,-6.8458,-7.0367,-7.3127,-7.6937,-7.8075,-7.7635,-7.5689,-7.4074,-7.2899,-7.2055,-7.044,-6.9119,-6.7981,-6.6402,-6.4751,-6.3209,-6.2915,-6.278,0.0,0.0,0.0,0.0,0.0,0.0,0.0,0.0,-6.3759,-6.4787,-6.3943,-6.5338,-6.7357,-6.7614,-6.9376,-7.1541,-7.2899,-7.4808,-7.6864,-7.8552,-7.9567,-8.0269,-8.0767,-8.0424,-8.0246,-8.1069,-8.0535,-8.0061,-8.0524,-8.0224,-7.9948,-8.0224,-7.9224,-7.8396,-7.8396,-7.8396,-7.8775,-7.9741,-8.0534,-8.1776,-8.3811,-8.4225,-8.4915,-8.6191,-8.589,-8.5686,-8.589,-8.5343,-8.5116,-8.5359,-8.5063,-8.4634,-8.4125,-8.4423,-8.4742,-8.5012,-8.5757,-8.6535,-8.7279,-8.8023,-8.8598,-8.9072,-8.9072,-8.9072,-8.9072,-8.9072,-8.9072,-8.9072,-8.9072,-8.9241,-8.9512,-9.0019,-9.0357,-9.0662,0.0,0.0,0.0,0.0,0.0,0.0,0.0,0.0,0.0,0.0,0.0,0.0,0.0,0.0,0.0,0.0,-5.7997,-5.8694,-6.0309,-6.0419,-6.1484,-6.398,-6.4861,-6.6035,-6.7614,-7.0073,-7.2899,-7.6093,-7.6093,-7.5689,-7.4845,-7.3266,-7.2092,-7.1183,-6.9633,-6.8898,-6.8678,-6.5448,-6.409,-6.4016,-6.3172,-6.278,-6.278,0.0,0.0,0.0,0.0,0.0,0.0,0.0,-6.3392,-6.3943,-6.3099,-6.453,-6.6659,-6.7467,-7.055,-7.3891,-7.4698,-7.7304,-7.98,-7.98,-8.0378,-8.0875,-8.084,-8.0824,-8.0586,-7.9796,-8.0136,-8.0638,-8.0603,-8.0603,-8.0362,-7.9638,-7.8879,-7.8396,-7.8396,-7.843,-7.8982,-8.0465,-8.1328,-8.2397,-8.388,-8.4742,-8.5501,-8.626,-8.6043,-8.589,-8.589,-8.589,-8.5635,-8.5116,-8.5359,-8.5221,-8.464,-8.464,-8.5012,-8.579,-8.6569,-8.7279,-8.8023,-8.8734,-8.9072,-8.9072,-8.9072,-8.9072,-8.9072,-8.9072,-8.9072,-8.9072,-8.9072,-8.9545,-9.0222,-9.0222,-9.0696,-9.1406,0.0,0.0,0.0,0.0,0.0,0.0,0.0,0.0,0.0,0.0,0.0,0.0,0.0,0.0,0.0,0.0,0.0,-5.8694,-6.0309,-6.0419,-6.1227,-6.3099,-6.3429,-6.4347,-6.5999,-6.9486,-7.2577,-7.5285,-7.6387,-7.5365,-7.2357,-7.3046,-7.2018,-6.9596,-6.9119,-6.8274,-6.7063,-6.4971,-6.3759,-6.3209,-6.3576,-6.3356,-6.2879,0.0,0.0,0.0,0.0,0.0,0.0,0.0,0.0,0.0,-6.398,-6.5778,-6.8348,-6.9155,-7.1431,-7.4111,-7.6093,-7.8148,-8.0057,-8.1195,-8.1214,-8.1057,-8.152,-8.1648,-8.1586,-8.1274,-8.1363,-8.1293,-8.0707,-8.0189,-7.9603,-7.8844,-7.8534,-7.8396,-7.8396,-7.9293,-8.012,-8.0569,-8.1776,-8.2949,-8.3914,-8.4742,-8.5501,-8.626,-8.6043,-8.5992,-8.6144,-8.5635,-8.5325,-8.5411,-8.5063,-8.48,-8.464,-8.464,-8.5283,-8.6569,-8.6805,-8.7279,-8.8023,-8.8734,-8.9072,-8.9072,-8.9072,-8.9072,-8.9072,-8.9072,-8.9072,-8.9072,-8.9072,-8.9545,-9.0256,-9.0797,-9.144,-9.2184,0.0,0.0,0.0,0.0,0.0,0.0,0.0,0.0,-5.8465,-5.8465,-5.829,-5.8179,0.0,0.0,0.0,-5.7997,-5.7997,-5.8694,-6.0309,-6.0419,-6.1263,-6.3246,-6.3319,-6.409,-6.5742,-6.8788,-7.1211,-7.301,-7.4955,-7.4478,-7.1798,-7.2789,-7.2018,-6.9853,-6.9853,-6.9155,-6.7797,-6.5852,-6.4567,-6.3833,-6.4016,-6.3796,-6.3392,0.0,0.0,0.0,0.0,0.0,0.0,0.0,0.0,0.0,-6.4237,-6.6072,-6.8752,-7.055,-7.2753,-7.5249,-7.8038,-7.9727,-8.1048,-8.2333,-8.1774,-8.1042,-8.179,-8.1725,-8.1442,-8.1399,-8.1609,-8.1672,-8.119,-8.0224,-7.9362,-7.8913,-7.8603,-7.8499,-7.881,-7.9879,-8.0741,-8.1052,-8.2431,-8.3535,-8.3983,-8.4984,-8.5811,-8.626,-8.5941,-8.584,-8.6144,-8.5583,-8.5273,-8.5359,-8.5063,-8.4853,-8.464,-8.4945,-8.5689,-8.6907,-8.7211,-8.7719,-8.8429,-8.8869,-8.9072,-8.9072,-8.9072,-8.9072,-8.9072,-8.9072,-8.9072,-8.9106,-8.941,-8.9985,-9.0696,-9.1135,-9.1981,-9.2895,0.0,0.0,0.0,0.0,0.0,0.0,0.0,-5.8422,-5.8371,-5.8371,-5.8282,-5.8156,0.0,0.0,0.0,-5.7997,-5.7997,-5.8657,-6.0199,-6.0382,-6.1447,-6.3759,-6.4016,-6.4824,-6.6366,-6.7981,-6.9192,-7.0,-7.2459,-7.3193,-7.2275,-7.2569,-7.2165,-7.1211,-7.1211,-7.0807,-6.9926,-6.743,-6.5962,-6.5264,-6.4494,-6.4127,-6.398,-6.4053,0.0,0.0,0.0,0.0,0.0,0.0,0.0,0.0,-6.409,-6.5742,-6.8274,-7.1394,-7.4037,-7.668,-7.991,-8.1415,-8.2296,-8.3151,-8.2178,-8.1105,-8.1575,-8.1179,-8.0707,-8.08,-8.134,-8.1776,-8.1707,-8.05,-7.95,-7.95,-7.8948,-7.8775,-7.95,-8.0258,-8.0983,-8.1707,-8.3121,-8.4018,-8.4018,-8.5397,-8.6294,-8.6244,-8.584,-8.5635,-8.589,-8.5635,-8.5411,-8.5116,-8.5325,-8.5168,-8.464,-8.5384,-8.6163,-8.6907,-8.7651,-8.8395,-8.9072,-8.9072,-8.9072,-8.9072,-8.9072,-8.9072,-8.9072,-8.9072,-8.914,-8.9241,-8.9951,-9.0696,-9.1406,-9.1406,-9.2319,-9.347,0.0,0.0,0.0,0.0,0.0,0.0,-5.8437,-5.8327,-5.826,-5.826,-5.8111,-5.8042,-5.8042,-5.802,0.0,-5.7997,-5.7997,-5.84,-5.9368,-6.0052,-6.0933,-6.2071,-6.3392,-6.4567,-6.5558,-6.7136,-6.8348,-6.9155,-7.2202,-7.2642,-7.066,-7.3193,-7.2936,-7.0367,-7.0367,-7.0257,-6.9889,-6.6843,-6.5485,-6.5301,-6.5118,-6.4273,-6.3172,-6.3833,-6.398,0.0,0.0,0.0,0.0,0.0,0.0,0.0,-6.409,-6.5742,-6.8054,-7.0036,-7.2789,-7.5763,-7.8405,-8.0167,-8.1615,-8.3008,-8.2958,-8.2164,-8.0428,-8.0812,-8.1735,-8.2412,-8.2164,-8.1603,-8.0983,-8.012,-7.95,-7.95,-7.9396,-7.9534,-8.0258,-8.1052,-8.1603,-8.1776,-8.3121,-8.4018,-8.4018,-8.5397,-8.6194,-8.5992,-8.6043,-8.6043,-8.589,-8.5635,-8.5463,-8.5411,-8.5011,-8.4747,-8.464,-8.5384,-8.6163,-8.6907,-8.7651,-8.8395,-8.9072,-8.9072,-8.9072,-8.9072,-8.9072,-8.9072,-8.9072,-8.9072,-8.9444,-8.9985,-9.0154,-9.1,-9.2184,-9.2184,-9.2759,-9.3571,0.0,0.0,0.0,0.0,0.0,0.0,0.0,0.0,-5.897,-5.8198,-5.8042,-5.7997,-5.7997,-5.7997,0.0,0.0,-5.7997,-5.8327,-5.9148,-5.9588,-6.0199,-6.1006,-6.2218,-6.3099,-6.3539,-6.5888,-6.7504,-6.8311,-7.0403,-7.077,-6.9596,-7.2422,-7.2459,-7.011,-7.0917,-7.1248,-7.1101,-6.8641,-6.7136,-6.6402,-6.6035,-6.5118,-6.4053,-6.4494,-6.4677,-6.4604,-6.4163,0.0,0.0,0.0,0.0,0.0,0.0,0.0,-6.8678,-7.066,-7.2973,-7.5616,-7.8883,-8.0094,-8.0813,-8.2322,-8.2892,-8.2655,-8.1011,-8.124,-8.1918,-8.2361,-8.2118,-8.1569,-8.0776,-8.0017,-7.95,-7.95,-7.95,-7.9776,-8.05,-8.1293,-8.181,-8.181,-8.3121,-8.4018,-8.4018,-8.5397,-8.6194,-8.5941,-8.6043,-8.5941,-8.5532,-8.5514,-8.5377,-8.5063,-8.4906,-8.4969,-8.5182,-8.5926,-8.6704,-8.7448,-8.8158,-8.8734,-8.9072,-8.9072,-8.9072,-8.9072,-8.9072,-8.9072,-8.9106,-8.9478,-8.985,-9.029,-9.1,-9.1744,-9.2421,-9.2421,-9.2928,-9.3537,0.0,0.0,0.0,0.0,0.0,0.0,0.0,0.0,0.0,-5.818,-5.7997,-5.7997,-5.7997,-5.7997,-5.7997,0.0,0.0,0.0,-5.8927,-5.9111,-5.9625,-6.0566,-6.1227,-6.1667,-6.1814,-6.4751,-6.6549,-6.7063,-6.8017,-6.8495,-6.8531,-7.0954,-7.1284,-6.9963,-7.1431,-7.2165,-7.2202,-7.0587,-6.9192,-6.8017,-6.71,-6.6219,-6.5485,-6.5375,-6.5411,-6.5485,-6.5375,-6.5411,-6.5375,-6.4567,0.0,0.0,0.0,0.0,-6.9155,-7.1431,-7.334,-7.5542,-7.9323,-8.0291,-8.0539,-8.1959,-8.262,-8.2716,-8.2058,-8.1847,-8.1792,-8.1823,-8.181,-8.1603,-8.0948,-8.012,-7.9603,-7.9844,-7.9672,-7.981,-8.0707,-8.1397,-8.181,-8.181,-8.3121,-8.4018,-8.4018,-8.5397,-8.6144,-8.584,-8.589,-8.5686,-8.515,-8.5307,-8.5168,-8.4694,-8.4906,-8.5279,-8.5757,-8.6535,-8.7279,-8.7989,-8.8734,-8.9072,-8.9072,-8.9072,-8.9072,-8.9072,-8.9072,-8.914,-8.9342,-8.9951,-9.0357,-9.0696,-9.1812,-9.2319,-9.2421,-9.2421,-9.2827,-9.33,0.0,0.0,0.0,0.0,0.0,0.0,0.0,0.0,0.0,0.0,-5.7997,-5.7997,-5.7997,-5.7997,-5.7997,-5.7997,-5.7997,-5.8033,-5.8143,0.0,0.0,-6.1374,-6.152,-6.1924,-6.2622,-6.4494,-6.5191,-6.4567,-6.6072,-6.6806,-6.688,-6.9302,-6.9926,-6.9119,-7.0,-7.0807,-7.1358,-6.9743,-6.9339,-6.9633,-6.8128,-6.7063,-6.6256,-6.5595,-6.5742,-6.6256,-6.5558,-6.5742,-6.6219,-6.5411,-6.5228,0.0,0.0,0.0,-6.8201,-6.9926,-7.2055,-7.4441,-7.7084,-7.9752,-8.2033,-8.2976,-8.2658,-8.2134,-8.1942,-8.1883,-8.1843,-8.1827,-8.181,-8.1776,-8.1672,-8.0465,-7.9948,-8.1293,-8.0362,-8.0017,-8.1431,-8.1741,-8.181,-8.181,-8.3121,-8.4018,-8.4018,-8.5397,-8.6093,-8.5583,-8.5788,-8.5686,-8.515,-8.5116,-8.515,-8.5011,-8.48,-8.5066,-8.579,-8.6535,-8.7279,-8.7989,-8.8734,-8.9072,-8.9072,-8.9072,-8.9072,-8.9072,-8.9072,-8.9444,-9.0053,-9.0154,-9.0966,-9.2083,-9.1609,-9.1846,-9.2421,-9.2421,-9.2489,-9.2658,0.0,0.0,0.0,0.0,0.0,0.0,0.0,0.0,0.0,0.0,0.0,-5.7997,-5.7997,-5.7997,-5.7997,-5.7997,-5.7997,-5.7997,-5.7997,-5.8327,-5.8841,-5.9538,-5.9575,-5.9979,-6.0762,-6.3319,-6.4457,-6.409,-6.6145,-6.7614,-6.8531,-6.9155,-6.9229,-6.8898,-6.8348,-6.9302,-7.1219,-7.0073,-7.0036,-7.077,-7.0477,-7.0183,-6.9779,-6.8972,-6.9449,-7.044,-6.9633,-6.9265,-6.9009,-6.776,-6.732,-6.721,-6.6659,0.0,0.0,0.0,-7.1505,-7.3744,-7.7121,-7.9685,-8.1961,-8.4169,-8.3728,-8.2811,-8.3187,-8.289,-8.2406,-8.1896,-8.181,-8.1672,-8.1224,-8.0258,-8.0017,-8.1569,-8.05,-8.0189,-8.2155,-8.2052,-8.181,-8.181,-8.3121,-8.4018,-8.4018,-8.5397,-8.6144,-8.5737,-8.584,-8.5686,-8.515,-8.5063,-8.5011,-8.4853,-8.51,-8.5655,-8.6399,-8.7144,-8.7888,-8.8598,-8.8937,-8.9072,-8.9072,-8.9072,-8.9072,-8.9072,-8.9072,-8.9512,-9.0256,-9.0662,-9.1203,-9.1812,-9.188,-9.188,-9.1846,-9.2252,-9.2421,-9.2522,0.0,0.0,0.0,0.0,0.0,0.0,0.0,0.0,0.0,0.0,0.0,-5.8621,-5.8621,0.0,0.0,0.0,-5.8107,-5.7997,-5.7997,-5.7997,-5.7997,-5.7997,-5.7997,-5.84,-5.9184,-6.2218,-6.3759,-6.3759,-6.5999,-6.8017,-6.9779,-6.8752,-6.8752,-6.9449,-6.8054,-6.8531,-7.0403,-7.0403,-7.0991,-7.2018,-7.301,-7.3413,-7.3377,-7.301,-7.3597,-7.4515,-7.3707,-7.3046,-7.2239,-7.044,-6.9816,-6.9522,-6.7907,-6.8788,0.0,0.0,0.0,-7.3854,-7.7341,-7.9271,-8.1116,-8.4364,-8.4064,-8.3161,-8.3906,-8.3713,-8.3068,-8.2012,-8.1948,-8.1845,-8.1052,-8.0293,-8.0224,-8.1569,-8.0845,-8.0672,-8.2397,-8.2328,-8.2017,-8.181,-8.2949,-8.3811,-8.3983,-8.5225,-8.5937,-8.584,-8.584,-8.5635,-8.5011,-8.5063,-8.506,-8.4911,-8.5486,-8.623,-8.7177,-8.7922,-8.8531,-8.9072,-8.9072,-8.9072,-8.9072,-8.9072,-8.9173,-8.9376,-8.9376,-8.9782,-9.0527,-9.1068,-9.1406,-9.1609,-9.1778,-9.1643,-9.1372,-9.1913,-9.2252,-9.2522,0.0,0.0,0.0,0.0,0.0,0.0,0.0,0.0,0.0,0.0,0.0,-6.0272,-6.0272,-5.9588,-5.9148,-5.9148,-5.8437,-5.7997,-5.7997,-5.7997,-5.7997,-5.7997,-5.7997,0.0,-5.9184,-6.1606,-6.2879,-6.2879,-6.4604,-6.6659,-6.8935,-6.7357,-6.8238,-7.1109,-7.0293,-6.9155,-6.8017,-7.0293,-7.2165,-7.3707,-7.5285,-7.5909,-7.5983,-7.6686,-7.7017,-7.698,-7.6203,-7.5873,-7.5506,-7.312,-7.2312,-7.2018,-7.0403,-7.0513,-7.1248,0.0,0.0,0.0,-7.687,-7.8044,-7.948,-8.2704,-8.2891,-8.245,-8.3112,-8.3779,-8.377,-8.2118,-8.2362,-8.2638,-8.1879,-8.1086,-8.0845,-8.1672,-8.1741,-8.1707,-8.1845,-8.2431,-8.2604,-8.1879,-8.25,-8.3225,-8.3949,-8.4777,-8.5336,-8.5498,-8.5737,-8.5532,-8.4694,-8.4906,-8.5298,-8.5689,-8.5757,-8.6467,-8.7922,-8.8666,-8.9038,-8.9072,-8.9072,-8.9072,-8.9072,-8.9072,-8.9478,-9.0154,-9.0154,-9.056,-9.1237,-9.1271,-9.1711,-9.2218,-9.0865,-9.0729,-9.1305,-9.1338,-9.1812,-9.2522,0.0,0.0,0.0,0.0,0.0,0.0,0.0,0.0,0.0,0.0,0.0,0.0,0.0,-6.0162,-5.9979,-5.9979,-5.9245,-5.8767,-5.8767,-5.829,-5.7997,-5.7997,-5.7997,-5.8143,-5.8437,-6.0786,-6.1777,-6.1263,-6.398,-6.6292,-6.8128,-6.8054,-6.8678,-6.9743,-6.8898,-6.8788,-6.9302,-7.0146,-7.1762,-7.3927,-7.6607,-7.8002,-7.8552,-7.936,-8.0021,-8.0351,-7.9543,-7.8222,-7.6754,-7.5873,-7.3891,-7.1651,-7.1064,-7.1064,-7.1431,-7.1945,-7.2679,-7.3964,-7.6576,-7.7157,0.0,-8.1672,-8.2406,-8.2226,-8.2356,-8.3035,-8.3393,-8.2637,-8.2328,-8.2259,-8.2466,-8.1466,-8.1052,-8.2293,-8.1672,-8.1397,-8.2362,-8.2328,-8.2086,-8.1845,-8.2466,-8.3018,-8.3293,-8.3983,-8.4644,-8.5286,-8.522,-8.5172,-8.5186,-8.5592,-8.5807,-8.579,-8.6704,-8.7685,-8.87,-8.897,-8.9072,-8.9072,-8.9072,-8.9072,-8.9106,-8.9579,-8.9681,-8.9545,-9.0493,-9.1068,-9.1305,-9.1305,-9.1169,-9.0966,-9.0425,-9.0357,-9.0662,-9.1135,-9.1778,-9.2522,0.0,0.0,0.0,0.0,0.0,0.0,0.0,0.0,-6.163,-6.163,0.0,0.0,0.0,0.0,-6.0676,-6.0419,-6.0162,-5.9795,-5.9221,-5.8951,-5.8547,-5.8033,-5.7997,-5.7997,-5.7997,-5.9832,-6.0786,-6.0786,-6.2989,-6.5044,-6.6916,-6.743,-6.7834,-6.8091,-6.7797,-6.8274,-6.9339,-6.9853,-7.1468,-7.4001,-7.7561,-7.947,-8.0351,-8.1709,-8.27,-8.3251,-8.2186,-8.1085,-8.0094,-7.9512,-7.7414,-7.4882,-7.4331,-7.3597,-7.2936,-7.2899,-7.2716,-7.3046,-7.5432,-7.5689,-7.6093,-7.9323,-8.0975,-8.1678,-8.1317,-8.2424,-8.3393,-8.2637,-8.2535,-8.2604,-8.288,-8.2086,-8.1638,-8.2397,-8.1879,-8.1638,-8.2431,-8.2328,-8.2086,-8.1845,-8.2466,-8.2914,-8.2914,-8.3811,-8.4486,-8.4629,-8.4961,-8.5121,-8.5001,-8.5747,-8.6263,-8.6501,-8.7719,-8.8598,-8.9072,-8.9072,-8.9072,-8.9072,-8.9072,-8.9072,-8.9106,-8.9613,-8.9681,-8.9512,-9.0493,-9.0932,-9.0932,-9.0932,-9.0628,-9.0188,-8.9918,-9.0121,-9.0628,-9.1102,-9.1947,-9.2895,0.0,0.0,0.0,0.0,0.0,0.0,0.0,0.0,-6.409,-6.4053,0.0,0.0,0.0,0.0,0.0,-6.0566,-6.1227,-6.1043,-5.9404,-6.0015,-5.9722,-5.8143,0.0,0.0,-5.7997,-5.8804,-6.0015,-6.1594,-6.1594,-6.2842,-6.5264,-6.5264,-6.5668,-6.6512,-6.7283,-6.7687,-6.7871,-6.9486,-7.1505,-7.3964,-7.8148,-8.0277,-8.1195,-8.3654,-8.5086,-8.56,-8.4022,-8.4425,-8.549,-8.3948,-8.281,-8.1819,-8.0204,-7.8075,-7.5836,-7.4221,-7.3156,-7.2679,0.0,0.0,0.0,-7.5726,-7.8589,-8.0765,-7.9849,-8.2072,-8.3861,-8.2164,-8.2997,-8.3742,-8.3052,-8.2914,-8.2673,-8.1948,-8.2431,-8.2638,-8.1914,-8.2431,-8.2604,-8.1879,-8.2431,-8.288,-8.288,-8.4259,-8.4712,-8.3709,-8.4998,-8.5344,-8.4061,-8.5437,-8.6806,-8.7989,-8.8734,-8.9072,-8.9072,-8.9072,-8.9072,-8.9072,-8.9072,-8.9072,-8.9072,-8.9072,-8.9478,-9.0188,-9.0188,-9.0188,-9.0188,-9.0188,-9.0188,-9.0121,-8.9376,-8.9985,-9.1305,-9.1305,-9.2252,-9.3571,0.0,0.0,0.0,0.0,0.0,-6.278,-6.278,-6.3539,-6.387,0.0,0.0,0.0,-6.409,-6.4714,-6.4604,-6.3209,-6.3796,-6.3576,-6.19,-6.1484,-6.0823,-5.9795,-5.9208,-5.8621,-5.7997,-5.8804,-6.0015,-6.1594,-6.1594,-6.2548,-6.442,-6.3796,-6.4273,-6.5632,-6.5852,-6.7247,-6.9522,-7.1138,-7.1541,-7.1651,-7.8075,-8.0094,-7.9653,-8.3251,-8.5086,-8.5673,-8.4646,-8.4168,-8.4022,-8.3581,-8.1709,-7.9396,-7.8332,-7.7524,-7.668,-7.5065,-7.3597,-7.2679,-7.3487,0.0,0.0,0.0,0.0,0.0,-8.0587,-8.2569,-8.4119,-8.2919,-8.3005,-8.3241,-8.2989,-8.2914,-8.2845,-8.2638,-8.2328,-8.2052,-8.1845,-8.1983,-8.2017,-8.181,-8.1983,-8.2121,-8.2121,-8.2983,-8.3624,-8.3886,-8.485,-8.5529,-8.582,-8.6894,-8.7931,-8.8767,-8.897,-8.9072,-8.9072,-8.9072,-8.9072,-8.9072,-8.8564,-8.8564,-8.9072,-8.9072,-8.9207,-8.941,-8.9985,-8.9918,-8.9444,-8.9985,-8.9884,-8.9376,-8.9173,-8.9985,-9.1305,-9.1305,-9.2252,-9.3571,0.0,0.0,-6.2978,-6.283,-6.3099,-6.3209,-6.2853,-6.4127,-6.4787,0.0,0.0,0.0,-6.464,-6.5742,-6.5852,-6.4237,-6.5154,-6.5118,-6.3466,-6.3209,-6.2622,-6.1447,-6.0309,-5.9318,-5.851,-5.8327,-5.9171,-6.108,-6.0419,-6.1117,-6.3025,-6.2181,-6.2695,-6.431,-6.5338,-6.721,-6.9853,-7.3487,-7.4111,-7.3083,-7.8369,-8.0351,-8.0461,-8.3801,-8.538,-8.5747,-8.527,-8.5013,-8.5013,-8.571,-8.4205,-8.1856,-8.0351,-7.8919,-7.7598,-7.6276,-7.4074,-7.2165,-7.2973,-7.2606,-7.2532,-7.4771,0.0,0.0,-8.0329,-8.1994,-8.3395,-8.312,-8.3271,-8.3485,-8.3355,-8.3362,-8.3362,-8.3362,-8.2742,-8.2259,-8.2259,-8.2259,-8.2155,-8.1845,-8.2086,-8.2259,-8.2259,-8.2949,-8.3431,-8.3535,-8.4373,-8.5378,-8.6666,-8.724,-8.8023,-8.9038,-8.9072,-8.9072,-8.9072,-8.9072,-8.8937,-8.8632,-8.8497,-8.8497,-8.8632,-8.8937,-8.9072,-8.9106,-8.9545,-8.9478,-8.9106,-8.9545,-8.9478,-8.9072,-8.9072,-8.9985,-9.1305,-9.1305,-9.2049,-9.3131,0.0,0.0,-6.2879,-6.3062,-6.3649,-6.3906,-6.3429,-6.5154,-6.6329,0.0,-6.6476,-6.6769,-6.6035,-6.6623,-6.6402,-6.4751,-6.5999,-6.6182,-6.4457,-6.5191,-6.4934,-6.3147,-6.163,-6.0346,-5.9331,-5.7827,-5.8217,-6.0529,-5.9024,-5.9391,-6.1557,-6.0786,-6.1263,-6.289,-6.5301,-6.7504,-6.9816,-7.5616,-7.7561,-7.6974,-7.936,-8.1085,-8.248,-8.4976,-8.5967,-8.604,-8.5967,-8.6407,-8.7215,-8.8683,-8.8206,-8.6591,-8.4278,-8.1636,-7.9103,-7.7714,-7.4742,-7.2027,-7.2422,0.0,0.0,-7.2642,-7.5689,0.0,-7.9526,-8.0835,-8.2036,-8.263,-8.3295,-8.3759,-8.3651,-8.3624,-8.368,-8.3853,-8.3307,-8.2914,-8.2914,-8.2983,-8.2776,-8.2121,-8.2569,-8.2914,-8.2914,-8.35,-8.3638,-8.3087,-8.3955,-8.5221,-8.6725,-8.6941,-8.7617,-8.8937,-8.9038,-8.9072,-8.9072,-8.9072,-8.8767,-8.8125,-8.87,-8.8666,-8.8125,-8.87,-8.9004,-8.9072,-8.9072,-8.9072,-8.9072,-8.9072,-8.9072,-8.9072,-8.9072,-8.9951,-9.1169,-9.1169,-9.1643,-9.2387,-6.3824,-6.3395,-6.3333,-6.4604,-6.442,-6.4677,-6.6476,-6.6623,-6.6916,-6.8054,-6.9486,-7.033,-7.0155,-7.0265,-6.9743,-6.8091,-6.8825,-6.8421,-6.6182,-6.7393,-6.7173,-6.4934,-6.3906,-6.2365,-6.0236,-5.9221,-5.9612,-6.1374,-6.0419,-6.0493,-6.1557,-6.0786,-6.1263,-6.2853,-6.4714,-6.8238,-7.2863,-7.4111,-7.7121,-8.1158,-8.2957,-8.3067,-8.2517,-8.56,-8.7178,-8.7655,-8.6995,-8.6885,-8.7068,-8.7362,-8.7288,-8.6701,-8.4939,-8.4389,-8.3471,-7.8699,-7.6723,-7.5586,-7.3156,-7.2386,-7.2789,-7.4882,-7.6497,0.0,-7.9458,-8.0502,-8.1041,-8.0478,-8.1475,-8.2278,-8.1555,-8.1372,-8.1732,-8.2991,-8.3008,-8.2914,-8.2914,-8.3431,-8.3742,-8.3604,-8.319,-8.2914,-8.2914,-8.3052,-8.3328,-8.3776,-8.5274,-8.6211,-8.6317,-8.7253,-8.7922,-8.8192,-8.8767,-8.9072,-8.9072,-8.9072,-8.9004,-8.8869,-8.8429,-8.8429,-8.8869,-8.8395,-8.8531,-8.9072,-8.9072,-8.9072,-8.9072,-8.9072,-8.9072,-8.9072,-8.9072,-8.9613,-9.0425,-9.0425,-9.0899,-9.1541,-6.3444,-6.3198,-6.3284,-6.4494,-6.5044,-6.5815,-6.743,-6.8017,-6.8715,-6.9963,-7.1505,-7.1908,-7.0293,-7.1541,-7.1541,-6.9119,-7.0367,-7.0624,-6.9009,-6.9669,-6.9376,-6.776,-6.6145,-6.4347,-6.2291,-6.1043,-6.1006,-6.2218,-6.1006,-6.1227,-6.2805,-6.1594,-6.2952,-6.6476,-6.732,-7.0587,-7.5616,-7.7231,-7.9103,-8.1122,-8.2774,-8.3875,-8.4866,-8.7288,-8.8463,-8.8757,-8.8353,-8.8463,-8.8757,-8.8353,-8.7949,-8.7472,-8.6664,-8.5563,-8.4058,-8.1195,-7.8626,-7.6276,-7.4258,-7.2826,-7.2312,-7.3891,-7.5506,0.0,0.0,-7.9804,-8.024,-7.9788,-8.0946,-8.1753,-8.0891,-8.1378,-8.1924,-8.1874,-8.2436,-8.2535,-8.1375,-8.3156,-8.4466,-8.4052,-8.3673,-8.3604,-8.4018,-8.3362,-8.3128,-8.3556,-8.4437,-8.5204,-8.5938,-8.6894,-8.7617,-8.7989,-8.8361,-8.8734,-8.9072,-8.8361,-8.8192,-8.8531,-8.8158,-8.8192,-8.8531,-8.8531,-8.8734,-8.9072,-8.9072,-8.9072,-8.9072,-8.9072,-8.9072,-8.9072,-8.9072,-8.9545,-9.0222,-9.0222,-9.0425,-9.0865,-6.3099,-6.289,-6.3172,-6.4347,-6.5521,-6.6696,-6.7944,-6.9009,-7.0073,-7.1358,-7.3487,-7.3891,-7.1284,-7.3303,-7.3817,-7.1248,-7.2496,-7.3046,-7.2055,-7.2283,-7.1982,-7.0844,-6.8641,-6.6659,-6.5044,-6.3099,-6.2401,-6.3062,-6.1594,-6.1961,-6.4053,-6.2695,-6.4604,-6.9229,-7.0293,-7.2863,-7.6613,-8.0534,-8.1525,-8.0608,-8.226,-8.4719,-8.7619,-8.9087,-8.9858,-9.0078,-8.9565,-8.9821,-9.0298,-8.9821,-8.9197,-8.8647,-8.85,-8.6775,-8.4572,-8.3508,-8.0388,-7.6974,-7.5542,-7.3597,-7.2202,-7.301,-7.4551,-7.6313,0.0,0.0,0.0,-7.9203,-8.0333,-8.1066,-8.0422,-8.1383,-8.1707,-8.0069,-8.1005,-8.1164,-7.9154,-8.1879,-8.4018,-8.3811,-8.4052,-8.4432,-8.4915,-8.4397,-8.3807,-8.343,-8.3926,-8.4676,-8.554,-8.6298,-8.6974,-8.755,-8.7719,-8.8125,-8.8869,-8.7583,-8.7347,-8.8192,-8.8057,-8.8057,-8.8226,-8.8801,-8.9072,-8.9072,-8.9072,-8.9072,-8.9072,-8.9072,-8.9072,-8.9072,-8.9072,-8.9444,-8.9985,-8.9985,-8.9985,-9.0188,-6.409,-6.3319,-6.3539,-6.5815,-6.5778,-6.6439,-6.9376,-6.8752,-6.9009,-7.1982,-7.6276,-7.8956,-7.8589,-7.8883,-7.8956,-7.8589,-7.7451,-7.6099,-7.4588,-7.5806,-7.5616,-7.3377,-7.1651,-7.0,-6.8385,-6.5375,-6.387,-6.3943,-6.2989,-6.3062,-6.409,-6.3906,-6.453,-6.6072,-7.1064,-7.3193,-7.345,-7.958,-8.2517,-8.3141,-8.4719,-8.6885,-8.9234,-9.0115,-9.14,-9.2391,-9.0225,-8.9455,-8.9602,-9.0262,-9.0408,-9.0225,-8.9491,-8.9528,-8.8793,-8.3801,-8.1929,-8.0681,-7.6974,-7.5249,-7.4698,-7.5506,-7.5359,-7.5469,-7.7053,0.0,-7.6704,-7.7406,0.0,-7.8958,-7.8849,0.0,0.0,-7.6937,-7.7408,-7.7607,-7.6632,-7.8603,-8.0879,-8.2811,-8.4225,-8.4811,-8.4225,-8.6467,-8.6919,-8.4353,-8.671,-8.7249,-8.4843,-8.5486,-8.596,-8.6027,-8.667,-8.738,-8.8125,-8.7313,-8.7617,-8.897,-8.8294,-8.8328,-8.897,-8.9038,-8.9072,-8.9072,-8.9072,-8.9072,-8.9072,-8.9072,-8.9072,-8.9072,-8.9072,-8.914,-8.9207,-8.9207,-8.9207,-8.9342,-6.4971,-6.4494,-6.4897,-6.6843,-6.7283,-6.8311,-7.1064,-7.2092,-7.3046,-7.4404,-7.7231,-7.8919,-7.8405,-7.9617,-8.0131,-7.9176,-7.9727,-7.925,-7.7194,-7.7671,0.0,-7.5175,-7.312,-7.1248,-6.9633,-6.7834,-6.6659,-6.6208,-6.5338,-6.5595,-6.688,-6.5925,-6.6916,-6.9633,-7.2936,-7.5542,-7.7671,-8.1342,-8.4168,-8.6187,-8.6407,-8.8793,-9.206,-9.0519,-9.0372,-9.0886,-9.0298,-8.9821,-8.9492,-9.0335,-9.0298,-9.0005,-9.0592,-9.0702,-8.9968,-8.6664,-8.4682,-8.292,-7.98,-7.8369,-7.7708,-7.7561,-7.8369,-7.8956,-7.8222,-7.8148,-7.7928,-7.6827,0.0,0.0,0.0,0.0,0.0,0.0,-7.5904,-7.6216,-7.4939,-7.712,-7.9534,-8.1362,-8.2949,-8.3914,-8.4018,-8.6811,-8.7435,-8.4524,-8.63,-8.6704,-8.4708,-8.4945,-8.552,-8.6399,-8.6332,-8.7008,-8.8598,-8.6602,-8.6771,-8.9072,-8.7922,-8.7955,-8.9072,-8.9072,-8.9072,-8.9072,-8.9072,-8.9072,-8.9072,-8.9072,-8.9072,-8.9072,-8.9072,-8.9072,-8.9072,-8.9072,-8.9342,-8.985,-6.6439,-6.5742,-6.5815,-6.7393,-6.8164,-6.9376,-7.1798,-7.4404,-7.6093,-7.6093,-7.8332,-7.969,-7.9035,-8.0975,-8.1856,-8.0681,-8.1966,-8.2003,-8.0057,-7.991,-7.9286,-7.7818,-7.5249,-7.3193,-7.1762,-7.0513,-6.9486,-6.8678,-6.7871,-6.8091,-6.9192,-6.7797,-6.8715,-7.1615,-7.3891,-7.657,-7.9507,-8.226,-8.4903,-8.7215,-8.7288,-8.9601,-9.2758,-9.1069,-8.9969,-8.9455,-9.0078,-8.9931,-8.9455,-9.0078,-8.9895,-8.9565,-9.0776,-9.074,-8.9935,-8.8289,-8.6392,-8.4316,-8.1897,-8.0685,-7.9983,-7.9663,-8.0755,-8.1525,-8.0204,-7.9837,-7.9181,-7.6941,-7.6603,0.0,0.0,0.0,0.0,0.0,0.0,-7.4087,-7.2451,-7.4533,-7.7085,-7.9396,-8.1052,-8.25,-8.388,-8.6811,-8.7504,-8.4797,-8.6403,-8.667,-8.4674,-8.464,-8.5148,-8.623,-8.5757,-8.6332,-8.8158,-8.6027,-8.623,-8.8767,-8.7719,-8.7854,-8.9072,-8.9072,-8.9072,-8.9072,-8.9072,-8.9072,-8.9072,-8.9072,-8.9072,-8.9072,-8.9072,-8.9072,-8.9072,-8.9072,-8.9579,-9.0324,-6.8935,-6.6916,-6.5815,-6.7393,-6.7724,-6.8531,-7.0991,-7.4037,-7.6093,-7.6093,-8.0277,-8.3251,-8.3214,-8.4682,-8.5637,-8.5563,-8.4939,-8.4168,-8.3324,-8.3251,-8.2884,-8.2039,-7.8883,-7.679,-7.5946,-7.3597,-7.1982,-7.1183,-7.0367,-7.0,-7.0036,-6.9229,-6.8898,-6.9192,-7.3156,-7.4992,-7.5469,-8.1048,-8.3911,-8.4903,-8.7215,-8.872,-8.9821,-9.2134,-9.151,-8.9382,-8.9419,-8.9419,-8.9382,-8.9419,-8.9419,-8.9382,-8.9455,-8.9384,-8.9027,-8.7322,-8.6193,-8.4952,-8.2608,-8.1382,-8.0981,-8.1842,-8.1562,-8.1452,-8.292,-8.1452,-7.9348,-7.778,-7.6197,-7.4371,-7.2182,0.0,0.0,0.0,0.0,0.0,0.0,0.0,0.0,0.0,-7.8672,-8.0776,-8.3742,-8.6811,-8.7745,-8.5634,-8.8179,-8.834,-8.4776,-8.464,-8.464,-8.4708,-8.4674,-8.5046,-8.5892,-8.579,-8.6501,-8.8023,-8.7989,-8.8361,-8.9072,-8.9072,-8.9072,-8.9072,-8.9072,-8.9072,-8.9072,-8.9072,-8.9072,-8.9072,-8.9072,-8.9072,-8.9072,-8.9072,-8.9579,-9.0324,-6.9853,-6.8605,-6.8201,-6.9816,-7.0513,-7.1872,-7.4815,-7.668,-7.8148,-7.9213,-8.1269,-8.281,-8.3361,-8.3911,-8.4205,-8.4205,-8.4462,-8.4278,-8.3471,-8.3398,-8.3287,-8.303,-7.991,-7.7524,-7.613,-7.4258,-7.2642,-7.1293,-7.0477,-7.0367,-7.0881,-6.9522,0.0,0.0,-7.334,-7.613,-7.8332,-8.1342,-8.5233,-8.9454,-9.0298,-8.9821,-8.8757,-9.0152,-8.9821,-8.861,-8.861,-8.828,-8.7912,-8.8426,-8.8216,-8.7848,-8.8357,-8.8146,-8.7429,-8.6311,-8.578,-8.5216,-8.3852,-8.4076,-8.455,-8.3786,-8.5437,-8.6679,-8.4444,-8.341,-8.2032,-7.8745,-7.6008,-7.368,-7.1935,0.0,0.0,0.0,0.0,0.0,0.0,0.0,-7.2464,0.0,0.0,0.0,0.0,0.0,-8.644,-8.56,-8.72,-8.6967,-8.3998,-8.3862,-8.4099,-8.4606,-8.464,-8.5249,-8.6535,-8.6027,-8.6535,-8.7989,-8.7989,-8.8395,-8.9072,-8.9072,-8.9072,-8.9072,-8.9072,-8.9072,-8.9072,-8.9072,-8.9072,-8.9072,-8.9072,-8.9072,-8.914,-8.9647,-9.029,-9.1102,-7.0697,-7.033,-7.033,-7.0807,-7.2496,-7.4698,-7.7378,-7.8736,-7.9837,-8.0865,-8.2186,-8.3251,-8.3765,-8.4095,-8.4242,-8.4242,-8.4719,-8.4939,-8.4719,-8.4425,-8.4499,-8.5086,-8.2039,-7.98,-7.8736,-7.657,-7.4625,-7.301,-7.1908,-7.1211,-7.0881,0.0,0.0,0.0,-7.301,-7.635,-8.0277,-8.1012,-8.4903,-9.0519,-9.0555,-8.9638,-8.8243,-8.8463,-8.8426,-8.8169,-8.7876,-8.7224,-8.6645,-8.7157,-8.6716,-8.6099,-8.6604,-8.6399,-8.5749,-8.5252,-8.5029,-8.4811,-8.4053,-8.4812,-8.5642,-8.4914,-8.6522,-8.774,-8.5579,-8.437,-8.2843,-7.987,-7.6583,-7.4036,-7.3332,0.0,0.0,0.0,0.0,0.0,0.0,-7.0912,0.0,0.0,0.0,0.0,0.0,0.0,0.0,-8.5498,0.0,0.0,0.0,-8.3896,-8.4133,-8.4606,-8.4911,-8.5384,-8.6095,-8.6399,-8.6907,-8.7617,-8.8125,-8.8632,-8.9072,-8.9072,-8.9072,-8.9072,-8.9072,-8.9072,-8.9072,-8.9072,-8.9072,-8.9072,-8.9072,-8.9072,-8.9173,-8.9918,-9.0831,-9.188,-7.1688,-7.2129,-7.2165,-7.077,-7.3707,-7.6827,-7.8479,-8.0094,-8.1122,-8.1158,-8.3177,-8.4609,-8.4609,-8.527,-8.5747,-8.5747,-8.5747,-8.6077,-8.6885,-8.6224,-8.6481,-8.8059,-8.5123,-8.3471,-8.3398,-8.0241,-7.7781,-7.6093,-7.4441,-7.2459,-7.022,0.0,0.0,0.0,-7.2312,-7.5799,-8.1012,-8.0241,-8.3104,-8.8133,-8.8169,-8.8206,-8.8096,-8.7325,-8.7545,-8.8169,-8.7362,-8.6537,-8.584,-8.5838,-8.5225,-8.4503,-8.4426,-8.4251,-8.4137,-8.4067,-8.4054,-8.3832,-8.3155,-8.3521,-8.4307,-8.5153,-8.4908,-8.4842,-8.6303,-8.4344,-8.1927,-8.1055,-7.7866,-7.537,-7.5975,-7.2533,0.0,0.0,0.0,0.0,0.0,0.0,0.0,0.0,0.0,0.0,0.0,0.0,0.0,0.0,0.0,0.0,0.0,-8.4674,-8.4674,-8.4539,-8.5351,-8.5384,-8.4573,-8.6839,-8.7617,-8.6941,-8.8395,-8.9072,-8.9072,-8.9072,-8.9072,-8.9072,-8.9072,-8.9072,-8.9072,-8.9072,-8.9072,-8.9072,-8.9072,-8.914,-8.9275,-9.0019,-9.1203,-9.259,-7.4808,-7.4551,-7.4735,-7.6166,-7.7745,-7.9176,-8.0241,-8.1746,-8.2994,-8.3618,-8.4205,-8.4609,-8.4609,-8.4792,-8.4903,-8.4903,-8.4903,-8.5233,-8.604,-8.5894,-8.6261,-8.7252,-8.538,-8.4022,-8.3434,-8.0241,-7.7781,-7.6093,-7.3891,-7.2496,-7.1908,0.0,0.0,0.0,0.0,-7.7671,-8.1893,-8.1672,-8.3801,-8.7362,-8.7949,-8.8206,-8.8096,-8.7325,-8.7876,-8.9014,-8.8169,-8.7735,-8.7522,-8.744,-8.6805,-8.5876,-8.4624,-8.3771,-8.3122,-8.2568,-8.276,-8.3135,-8.2959,-8.3456,-8.3967,-8.3612,-8.5248,-8.6702,-8.5775,-8.5073,-8.4185,-8.2697,-7.9796,-7.7213,-7.6302,-7.4671,-7.3291,0.0,0.0,0.0,0.0,0.0,0.0,-6.7807,0.0,0.0,0.0,0.0,0.0,0.0,0.0,0.0,-8.3949,-8.5565,-8.5463,-8.305,-8.4809,-8.5148,-8.3795,-8.6602,-8.7617,-8.6941,-8.8395,-8.9072,-8.9072,-8.9072,-8.9072,-8.9072,-8.9072,-8.9072,-8.9072,-8.9072,-8.9072,-8.9072,-8.9072,-8.9748,-9.0763,-9.0932,-9.1981,-9.33,-7.7084,-7.7121,-7.7598,-7.9323,-8.1195,-8.2333,-8.2113,-8.3434,-8.4756,-8.5563,-8.5637,-8.5783,-8.6151,-8.5857,-8.5637,-8.5637,-8.5637,-8.6004,-8.6811,-8.6518,-8.6848,-8.8023,-8.6518,-8.56,-8.549,-8.237,-7.991,-7.8259,-7.6166,-7.4625,-7.356,0.0,0.0,0.0,0.0,-7.9653,-8.3801,-8.4499,-8.5857,-8.7582,-8.8023,-8.7986,0.0,-8.7582,-8.8096,-8.8833,-8.8728,-8.8436,-8.807,-8.7591,-8.6841,-8.587,-8.4575,-8.3759,-8.3259,-8.25,-8.2569,-8.2845,-8.2535,-8.2983,-8.3431,-8.3018,-8.4292,-8.5481,-8.4855,-8.45,-8.4297,-8.3991,-8.1776,-8.0017,-8.05,-7.8568,-7.643,0.0,0.0,0.0,0.0,0.0,0.0,0.0,-7.0567,0.0,0.0,0.0,0.0,0.0,0.0,0.0,0.0,-8.5419,-8.506,-8.3422,-8.4945,-8.5215,-8.3998,-8.6332,-8.7313,-8.6941,-8.8057,-8.8767,-8.9072,-8.9072,-8.9072,-8.9072,-8.9072,-8.9072,-8.9072,-8.9072,-8.9072,-8.9072,-8.9072,-8.9985,-9.1305,-9.1305,-9.2252,-9.3571,-7.9066,-7.9727,-8.0534,-8.1342,-8.3948,-8.549,-8.4095,-8.5049,-8.6224,-8.6921,-8.6921,-8.7142,-8.7949,-8.7435,-8.6995,-8.6995,-8.6995,-8.7325,-8.7986,-8.7399,-8.7619,-8.9015,-8.7766,-8.7399,-8.8169,-8.5159,-8.292,-8.1636,-7.991,-7.8038,-7.6056,0.0,0.0,0.0,0.0,0.0,0.0,-8.7729,-8.8316,-8.8206,-8.8206,-8.7766,-8.7252,-8.7949,-8.8316,-8.8613,-8.9267,-8.8999,-8.8266,-8.7175,-8.6391,-8.5666,-8.4543,-8.4156,-8.4018,-8.3259,-8.3052,-8.2914,-8.2259,-8.25,-8.2914,-8.3018,-8.3052,-8.3225,-8.388,-8.35,-8.3466,-8.4915,-8.3535,-8.2914,-8.5639,-8.2742,-7.9569,0.0,0.0,-7.5775,-7.3602,0.0,0.0,0.0,0.0,0.0,0.0,0.0,0.0,0.0,0.0,0.0,0.0,0.0,-8.4619,-8.4471,-8.5317,-8.5418,-8.464,-8.6129,-8.6974,-8.7076,-8.7685,-8.8395,-8.9072,-8.9072,-8.9072,-8.9072,-8.9072,-8.9072,-8.9072,-8.9072,-8.9072,-8.9072,-8.9072,-8.9985,-9.1305,-9.1305,-9.2252,-9.3571,-8.1562,-8.2223,-8.303,-8.3838,-8.5527,-8.6701,-8.6407,-8.6628,-8.6848,-8.6995,-8.6407,-8.6334,-8.7142,-8.7105,-8.6995,-8.6995,-8.6995,-8.7068,-8.7215,-8.7105,-8.7142,-8.7435,-8.7178,-8.7399,-8.8169,-8.571,-8.4572,-8.4939,-8.2663,-8.1709,-8.1929,0.0,0.0,0.0,0.0,0.0,-8.7839,-8.8793,-8.883,-8.8206,-8.8206,-8.8133,-8.8023,-8.8133,-8.9014,-9.0189,-9.0337,-9.0264,-8.9895,-8.8117,-8.7966,-8.8083,-8.5707,-8.4984,-8.4846,-8.4052,-8.3811,-8.3811,-8.3673,-8.3259,-8.3052,-8.3673,-8.3811,-8.3845,-8.3983,-8.3914,-8.4087,-8.5018,-8.4363,-8.3983,-8.5156,-8.3707,-8.2431,-8.2776,-8.0638,-7.8327,-7.6671,0.0,0.0,0.0,0.0,-7.7051,0.0,0.0,0.0,0.0,0.0,0.0,0.0,0.0,-8.7332,-8.3795,-8.5046,-8.5418,-8.464,-8.6129,-8.7211,-8.782,-8.7955,-8.8395,-8.9072,-8.9072,-8.9072,-8.9072,-8.9072,-8.9072,-8.9072,-8.9072,-8.9072,-8.9072,-8.9072,-8.9985,-9.1305,-9.1305,-9.2252,-9.3571,-8.3618,-8.4756,-8.5894,-8.5857,-8.7545,-8.861,-8.7766,-8.7619,-8.7766,-8.8206,-8.7545,-8.7362,-8.8169,-8.7876,-8.7619,-8.7619,-8.7619,-8.7619,-8.7619,-8.7252,-8.6995,-8.6995,-8.6995,-8.7399,-8.8169,-8.7068,-8.6848,-8.7692,-8.6518,-8.6371,-8.7142,-8.6738,0.0,0.0,0.0,-8.8647,0.0,-8.861,-8.8573,-8.8169,-8.7766,-8.7839,-8.8243,-8.8683,-8.9564,-9.0593,-9.0554,-9.0849,-9.0996,-8.96,-8.9449,-8.942,-8.7188,-8.6503,-8.622,-8.4993,-8.4639,-8.4535,-8.4121,-8.3742,-8.3569,-8.3914,-8.3707,-8.3535,-8.3914,-8.4018,-8.4225,-8.5018,-8.488,-8.4742,-8.5121,-8.5225,-8.5121,-8.4708,-8.3397,-8.1776,-7.9879,0.0,-7.843,0.0,0.0,0.0,0.0,0.0,0.0,0.0,0.0,0.0,0.0,0.0,-8.6924,-8.4167,-8.4809,-8.5012,-8.464,-8.5351,-8.6298,-8.7448,-8.7448,-8.8023,-8.9072,-8.9072,-8.9072,-8.9072,-8.9072,-8.9072,-8.9072,-8.9072,-8.9072,-8.9072,-8.9072,-8.9985,-9.1305,-9.1305,-9.2252,-9.3571,-8.5563,-8.6885,-8.8059,-8.7619,-8.9087,-8.9858,-8.8426,-8.8206,-8.839,-8.883,-8.85,-8.8426,-8.9087,-8.872,-8.8463,-8.8463,-8.8463,-8.8463,-8.8463,-8.7692,-8.7252,-8.7252,-8.7105,-8.7399,-8.8169,-8.8206,-8.8683,-8.9639,-8.9858,-8.9638,-8.9087,-9.0005,-9.14,-9.3051,-9.184,-9.0335,-8.8683,-8.8353,-8.8206,-8.8133,-8.7509,-8.7729,-8.8536,-8.9381,-9.0152,-9.085,-9.08,-9.1209,-9.173,-9.1018,-9.0631,-9.0155,-8.8265,-8.7702,-8.741,-8.5866,-8.5432,-8.5294,-8.4673,-8.4397,-8.4294,-8.4466,-8.3949,-8.3535,-8.4121,-8.4259,-8.4432,-8.5052,-8.5328,-8.5535,-8.5846,-8.6605,-8.7018,-8.6467,-8.5708,-8.4673,-8.319,0.0,0.0,0.0,0.0,0.0,-8.1224,0.0,0.0,0.0,0.0,0.0,-8.6583,-8.6996,-8.6598,-8.5148,-8.5114,-8.5182,-8.5351,-8.5182,-8.579,-8.7144,-8.7144,-8.782,-8.9072,-8.9072,-8.9072,-8.9072,-8.9072,-8.9072,-8.9072,-8.9072,-8.9072,-8.9072,-8.9072,-8.9884,-9.1102,-9.1237,-9.215,-9.3368,-8.7619,-8.8023,-8.8426,-8.9087,-8.9345,-8.9234,-8.8316,-8.8206,-8.7986,-8.7325,-8.7802,-8.8243,-8.8316,-8.8904,-8.9307,-8.9307,-8.9307,-8.9307,-8.9307,-8.8536,-8.8096,-8.8096,-8.7399,-8.7399,-8.8169,-8.8206,-8.894,-9.0482,-9.1216,-8.8977,-8.4205,-9.0776,-9.3565,-9.3015,-9.0665,-8.9895,-9.0298,-8.883,-8.8206,-8.8206,-8.8133,-8.8573,-8.9381,-9.0188,-9.0996,-9.1693,-9.1694,-9.173,-9.1803,-9.173,-9.1133,-9.0155,-8.8265,-8.7702,-8.7515,-8.6489,-8.6191,-8.6191,-8.6122,-8.5604,-8.5259,-8.5915,-8.5535,-8.5018,-8.5087,-8.5087,-8.5121,-8.519,-8.5742,-8.6639,-8.8019,-8.726,-8.726,-8.9847,-8.7432,-8.5604,-8.6742,-8.5052,-8.3431,-8.2776,0.0,0.0,0.0,-8.6294,0.0,0.0,0.0,0.0,0.0,-8.8715,-8.849,-8.6738,-8.6704,-8.7008,-8.7685,-8.7042,-8.711,-8.7888,-8.7888,-8.8294,-8.9072,-8.9072,-8.9072,-8.9072,-8.9072,-8.9072,-8.9072,-8.9072,-8.9072,-8.9072,-8.9072,-8.9579,-9.0391,-9.1034,-9.1812,-9.2624,-8.7545,-8.8647,-8.9454,-8.8793,-8.9491,-8.9858,-8.905,-8.894,-8.883,-8.85,-8.872,-8.894,-8.894,-8.9638,-9.0115,-9.0115,-9.0115,-9.0115,-9.0115,-8.9381,-8.894,-8.894,-8.8169,-8.8096,-8.8904,-8.8463,-8.8977,-9.0592,-9.195,-9.1913,-9.0702,-9.3639,-9.4042,-9.2281,-9.1326,-9.0262,-8.916,-8.9014,-8.8647,-8.8243,-8.872,-8.9417,-9.0188,-9.0482,-9.1106,-9.1803,-9.1803,-9.1803,-9.1803,-9.1803,-9.1583,-9.1057,-8.9785,-8.9019,-8.8355,-8.7408,-8.6755,-8.6294,-8.6294,-8.6087,-8.5949,-8.6225,-8.5742,-8.519,-8.519,-8.519,-8.519,-8.519,-8.5777,-8.6363,-8.6536,-8.7156,-8.7777,-8.8053,-8.7605,-8.7122,-8.6811,-8.5949,0.0,-8.4984,0.0,0.0,0.0,0.0,0.0,0.0,0.0,0.0,0.0,-9.0849,-9.0513,-8.8937,-8.7177,-8.6602,-8.7347,-8.7076,-8.7076,-8.7347,-8.7786,-8.8395,-8.9072,-8.9072,-8.9342,-8.9748,-8.9748,-9.0019,-9.0425,-9.0425,-9.0425,-9.0425,-9.0425,-9.0865,-9.1575,-9.188,-9.2455,-9.3165,-8.7545,-8.894,-8.9895,-8.8757,-8.9711,-9.0335,-8.9492,-8.9565,-8.9784,-8.9784,-8.9968,-9.0041,-8.9784,-9.0482,-9.0959,-9.0959,-9.0959,-9.0959,-9.0959,-9.0225,-8.9784,-8.9784,-8.8977,-8.883,-8.9417,-8.8867,-8.9124,-9.0262,-9.1693,-9.1987,-9.1216,-9.1253,-9.1326,-9.1436,-9.0996,-8.9968,-8.8573,-8.8904,-8.8867,-8.861,-8.9454,-9.0115,-9.0629,-9.0849,-9.1326,-9.1803,-9.1803,-9.1803,-9.1803,-9.1803,-9.1803,-9.1583,-9.0473,-8.9618,-8.8845,-8.7656,-8.6818,-8.6294,-8.6294,-8.6294,-8.6294,-8.6294,-8.5915,-8.5535,-8.5535,-8.5535,-8.5535,-8.5535,-8.5949,-8.6156,-8.5639,-8.6846,-8.7708,-8.7087,-8.7501,-8.7708,-8.7087,-8.6398,0.0,-8.7191,-8.7501,-8.7329,-8.6605,-8.9898,0.0,0.0,0.0,0.0,-9.1079,-9.1702,-9.133,-8.9613,-8.7313,-8.6467,-8.7211,-8.7245,-8.711,-8.6941,-8.7854,-8.8598,-8.9072,-8.9072,-8.9478,-9.0222,-9.0222,-9.0628,-9.1305,-9.1305,-9.1305,-9.1305,-9.1305,-9.1609,-9.2116,-9.2353,-9.2759,-9.3267,-8.8023,-8.8867,-8.9382,-8.9382,-9.0078,-9.0335,-8.9492,-9.0078,-9.0592,-9.0592,-9.1289,-9.1473,-9.0665,-9.1289,-9.1803,-9.1803,-9.1803,-9.1803,-9.1803,-9.1033,-9.0592,-9.0592,-8.9821,-8.9382,-8.9382,-8.9382,-8.9382,-8.9382,-9.0225,-8.7399,-8.1195,-8.1195,-8.4572,-9.0555,-8.894,-8.8683,-8.9308,-8.8536,-8.8683,-8.9455,-9.0262,-9.0592,-9.0702,-9.1473,-9.1803,-9.1803,-9.1803,-9.1803,-9.1803,-9.1803,-9.1803,-9.1509,-8.9702,-8.9106,-8.8712,-8.6867,-8.6294,-8.6294,-8.6294,-8.6294,-8.6294,-8.6294,-8.6294,-8.6294,-8.6294,-8.6294,-8.6294,-8.6294,-8.6294,-8.6294,-8.6294,-8.6329,-8.6811,-8.8329,-8.7329,-8.6846,-8.8364,-8.6639,-8.6329,-8.9295,-9.0295,-9.0467,-8.9709,-9.2852,0.0,0.0,-9.1851,-9.2095,-8.9121,-9.076,-9.0629,-8.8091,-8.7279,-8.7245,-8.7989,-8.7989,-8.7617,-8.6941,-8.8395,-8.9072,-8.9072,-8.9072,-8.9478,-9.0222,-9.0222,-9.0628,-9.1305,-9.1305,-9.1305,-9.1305,-9.1305,-9.1305,-9.1406,-9.215,-9.2421,-9.2556,-8.9087,-8.9674,-9.0078,-8.9528,-9.0078,-9.0519,-9.0262,-9.0922,-9.162,-9.2244,-9.2537,-9.2794,-9.3088,-9.2868,-9.2684,-9.2684,-9.3198,-9.3272,-9.2721,-9.2464,-9.206,-9.1436,-9.0665,-9.0225,-9.0225,-8.9711,-8.9382,-8.9382,-9.0776,-9.0665,-8.9271,-8.9271,-8.9748,-9.0592,-9.0078,-8.9674,-8.9454,-8.9711,-9.0005,-9.0298,-9.1106,-9.1436,-9.1436,-9.1693,-9.1803,-9.1877,-9.2464,-9.2684,-9.2758,-9.3308,-9.3042,-9.2304,-9.1068,-9.0276,-8.9734,-8.8999,-8.8366,-8.7881,-8.7881,-8.7467,-8.7053,-8.7053,-8.6674,-8.6294,-8.6294,-8.6294,-8.6294,-8.6294,-8.6294,-8.6294,-8.6294,-8.6294,-8.6467,-8.6949,-8.6639,-8.6467,-8.6949,-8.6398,-8.6329,-8.726,-8.7605,-8.7639,-8.7398,-9.0101,-9.1903,-9.1859,-9.4425,-9.4499,-9.1045,-9.0513,-9.0018,-8.9512,-8.7313,-8.6738,-8.7989,-8.7989,-8.7888,-8.7651,-8.8632,-8.9072,-8.9072,-8.9072,-8.9782,-9.0966,-9.0966,-9.1677,-9.2861,-9.2861,-9.2861,-9.2861,-9.2861,-9.2861,-9.2895,-9.3131,-9.3199,-9.3233,-8.9564,-9.0298,-9.0812,-9.0005,-9.0519,-9.1179,-9.151,-9.1987,-9.2574,-9.3455,-9.3565,-9.3749,-9.4226,-9.4116,-9.3896,-9.3565,-9.4006,-9.4079,-9.3565,-9.3565,-9.3161,-9.2317,-9.1803,-9.14,-9.1069,-9.0262,-8.9858,-8.9858,-9.0555,-9.1179,-9.173,-9.173,-9.1143,-9.0152,-9.0152,-9.0041,-8.9895,-9.0408,-9.0776,-9.1106,-9.1583,-9.1803,-9.184,-9.217,-9.2281,-9.2391,-9.3235,-9.3565,-9.3565,-9.3702,-9.3343,-9.2615,-9.1613,-9.0946,-9.0361,-8.9695,-8.9044,-8.8605,-8.8605,-8.8226,-8.7846,-8.7846,-8.7501,-8.7087,-8.6777,-8.6501,-8.6294,-8.6294,-8.6294,-8.6294,-8.6294,-8.6294,-8.6294,-8.6294,-8.6294,-8.6294,-8.6294,-8.6294,-8.6639,-8.7467,-8.7468,-8.7417,-8.7417,-8.8824,-8.9933,-9.0471,-9.2035,-9.1941,-8.9678,-9.024,-9.0117,-8.9004,-8.6602,-8.6061,-8.7583,-8.7583,-8.7719,-8.7989,-8.8734,-8.9072,-8.9072,-8.9072,-8.9884,-9.1305,-9.1305,-9.215,-9.3571,-9.3571,-9.3571,-9.3571,-9.3571,-9.3571,-9.3571,-9.3571,-9.3571,-9.3571,-8.9895,-9.0959,-9.173,-9.0996,-9.1473,-9.2244,-9.3051,-9.3198,-9.3455,-9.4263,-9.4373,-9.441,-9.4446,-9.5144,-9.529,-9.452,-9.4446,-9.4446,-9.4373,-9.4373,-9.4006,-9.3235,-9.3198,-9.2794,-9.1987,-9.1253,-9.0849,-9.0776,-8.9968,-8.9565,-8.9565,-8.9565,-8.9565,-8.9565,-8.9565,-9.0005,-9.0702,-9.0702,-9.1106,-9.1803,-9.1877,-9.1877,-9.1987,-9.2868,-9.3198,-9.3308,-9.4079,-9.4373,-9.426,-9.3369,-9.3008,-9.2785,-9.1728,-9.1345,-9.0962,-8.9274,-8.8743,-8.8743,-8.8743,-8.8708,-8.8674,-8.8674,-8.8639,-8.8398,-8.7674,-8.6949,-8.6467,-8.6467,-8.6467,-8.6432,-8.6398,-8.6398,-8.6363,-8.6329,-8.6294,-8.6294,-8.6294,-8.6294,-8.7087,-8.9226,-8.9259,-8.9067,-8.9067,-8.8623,-8.7823,-8.6647,-8.6175,-8.6014,-8.6217,-8.9921,-9.0419,-8.6839,-8.5418,-8.5418,-8.6907,-8.6974,-8.7347,-8.8091,-8.8767,-8.9072,-8.9072,-8.914,-8.9951,-9.1305,-9.1338,-9.2218,-9.3571,-9.3571,-9.3571,-9.3571,-9.3571,-9.3571,-9.3571,-9.3571,-9.3571,-9.3571,-9.3161,-9.3455,-9.3639,-9.3455,-9.3565,-9.3786,-9.3969,-9.4006,-9.4299,-9.5107,-9.5217,-9.5474,-9.6061,-9.6318,-9.6355,-9.6135,-9.6135,-9.5878,-9.5254,-9.5217,-9.485,-9.4042,-9.4006,-9.3932,-9.3712,-9.3529,-9.3125,-9.2501,-9.1657,-9.1216,-9.1216,-9.1216,-9.1216,-9.1216,-9.1216,-9.1326,-9.151,-9.151,-9.162,-9.184,-9.2537,-9.2794,-9.2868,-9.3712,-9.4006,-9.4116,-9.4923,-9.5217,-9.5253,-9.5647,-9.5243,-9.459,-9.4309,-9.3721,-9.2766,-9.0865,-9.0295,-9.0295,-9.0295,-8.9881,-8.9433,-8.9433,-8.9019,-8.8536,-8.8364,-8.8191,-8.8053,-8.8053,-8.8053,-8.7881,-8.726,-8.7156,-8.6984,-8.6398,-8.6294,-8.6294,-8.6294,-8.6294,-8.6501,-8.7053,-8.7071,-8.6986,-8.6986,-8.656,-8.7359,-9.0104,-8.8204,-8.7967,-9.0311,-8.9743,-8.8035,-8.5249,-8.5384,-8.596,-8.6907,-8.7448,-8.8091,-8.8835,-8.9004,-8.9072,-8.9106,-8.9681,-9.0425,-9.1338,-9.1913,-9.2692,-9.3571,-9.3571,-9.3571,-9.3571,-9.3571,-9.3571,-9.3571,-9.3571,-9.3571,-9.3571,-9.4373,-9.4593,-9.474,-9.4373,-9.4299,-9.441,-9.4777,-9.485,-9.5144,-9.5951,-9.6061,-9.6208,-9.6649,-9.6685,-9.6685,-9.6685,-9.6685,-9.6502,-9.6098,-9.6061,-9.5694,-9.4887,-9.485,-9.4666,-9.4299,-9.4299,-9.4079,-9.3639,-9.3161,-9.2941,-9.2941,-9.2941,-9.2941,-9.2941,-9.2941,-9.2941,-9.2941,-9.2941,-9.2941,-9.2978,-9.3455,-9.3639,-9.3749,-9.4556,-9.485,-9.496,-9.5768,-9.6061,-9.6021,-9.5997,-9.5627,-9.5133,-9.4713,-9.4231,-9.3506,-9.1905,-9.1521,-9.1367,-9.0883,-9.0502,-9.0192,-9.0192,-8.964,-8.9088,-8.9088,-8.8846,-8.8605,-8.8605,-8.8605,-8.8467,-8.8019,-8.795,-8.7812,-8.7432,-8.7363,-8.7363,-8.7363,-8.7363,-8.7363,-8.7363,-8.7227,-8.7176,-8.7176,-8.6662,-8.739,-8.9942,-8.8552,-8.8367,-9.003,-8.891,-8.7443,-8.5723,-8.6095,-8.667,-8.7414,-8.8125,-8.87,-8.9072,-8.9072,-8.9072,-8.9106,-8.985,-9.0594,-9.1338,-9.2083,-9.2861,-9.3571,-9.3571,-9.3571,-9.3571,-9.3571,-9.3571,-9.3571,-9.3571,-9.3571,-9.3571,-9.4813,-9.5217,-9.5474,-9.4777,-9.4666,-9.4887,-9.5584,-9.5694,-9.5951,-9.6612,-9.6685,-9.6685,-9.6685,-9.6685,-9.6685,-9.6685,-9.6685,-9.6685,-9.6685,-9.6685,-9.6392,-9.5731,-9.5694,-9.5364,-9.4666,-9.452,-9.4483,-9.4483,-9.4336,-9.4299,-9.4299,-9.4299,-9.4299,-9.4299,-9.4299,-9.4299,-9.4299,-9.4299,-9.4299,-9.4299,-9.441,-9.4483,-9.4556,-9.5364,-9.5694,-9.5768,-9.6465,-9.6685,-9.657,-9.5708,-9.5462,-9.5259,-9.4495,-9.4231,-9.4007,-9.2848,-9.2511,-9.2302,-9.1144,-9.0812,-9.0812,-9.0812,-9.0329,-8.9881,-8.9881,-8.9398,-8.8915,-8.8915,-8.8915,-8.8881,-8.8777,-8.8777,-8.8915,-8.9364,-8.8984,-8.8812,-8.9364,-8.895,-8.8605,-8.8605,-8.8364,-8.8208,-8.8208,-8.7682,-8.7599,-8.8191,-8.7986,-8.782,-8.782,-8.7955,-8.7719,-8.711,-8.7076,-8.7414,-8.8158,-8.8767,-8.9072,-8.9072,-8.9072,-8.914,-8.9275,-9.0019,-9.0763,-9.1508,-9.2286,-9.2962,-9.3571,-9.3571,-9.3571,-9.3571,-9.3571,-9.3571,-9.3571,-9.3571,-9.3571,-9.3571,-9.6355,-9.6428,-9.6465,-9.6355,-9.6318,-9.6355,-9.6502,-9.6502,-9.6575,-9.6685,-9.6685,-9.6685,-9.6685,-9.6685,-9.6685,-9.6685,-9.6685,-9.6685,-9.6685,-9.6685,-9.6649,-9.6539,-9.6502,-9.6465,-9.6318,-9.5658,-9.5327,-9.5327,-9.463,-9.4299,-9.4299,-9.4299,-9.4299,-9.4299,-9.4299,-9.4299,-9.4299,-9.4299,-9.4299,-9.4336,-9.5034,-9.5327,-9.5401,-9.6208,-9.6502,-9.6539,-9.6649,-9.6685,-9.6647,-9.6531,-9.6455,-9.6416,-9.6299,-9.6259,-9.5866,-9.4097,-9.3598,-9.3179,-9.1316,-9.0812,-9.0812,-9.0812,-9.0709,-9.064,-9.064,-9.0536,-9.0467,-9.0467,-9.0467,-9.026,-8.964,-8.9536,-9.0364,-9.2985,-9.0709,-8.9709,-9.2951,-9.064,-8.8605,-8.8605,-8.8554,-8.8416,-8.8122,-8.7807,-8.761,-8.7477,-8.724,-8.7076,-8.7076,-8.7651,-8.7955,-8.782,-8.782,-8.8158,-8.8903,-8.9038,-8.9072,-8.9072,-8.9072,-8.941,-9.0053,-9.0797,-9.1541,-9.2286,-9.3064,-9.347,-9.3571,-9.3571,-9.3571,-9.3571,-9.3571,-9.3571,-9.3571,-9.3571,-9.3571,-9.3571,-9.6685,-9.6685,-9.6685,-9.6685,-9.6685,-9.6685,-9.6685,-9.6685,-9.6685,-9.6685,-9.6685,-9.6685,-9.6685,-9.6685,-9.6685,-9.6685,-9.6685,-9.6685,-9.6685,-9.6685,-9.6685,-9.6685,-9.6685,-9.6685,-9.6685,-9.6355,-9.6171,-9.6171,-9.5768,-9.5584,-9.5584,-9.5584,-9.5584,-9.5584,-9.5584,-9.5584,-9.5584,-9.5584,-9.5584,-9.5621,-9.5988,-9.6171,-9.6208,-9.6575,-9.6685,-9.6685,-9.6685,-9.6685,-9.6685,-9.6685,-9.6685,-9.6685,-9.6685,-9.6685,-9.6338,-9.4364,-9.3038,-9.1955,-9.104,-9.0812,-9.0812,-9.0812,-9.0812,-9.0812,-9.0812,-9.0812,-9.0812,-9.0812,-9.0812,-9.0709,-9.0364,-9.0295,-9.0778,-9.2192,-9.095,-9.0398,-9.2157,-9.0916,-8.9778,-8.9778,-8.9655,-8.9516,-8.9358,-8.8931,-8.8606,-8.8497,-8.8223,-8.8091,-8.8091,-8.8395,-8.8564,-8.8564,-8.8564,-8.8734,-8.9072,-8.9072,-8.9072,-8.9072,-8.9478,-8.9884,-9.0256,-9.1406,-9.2083,-9.2455,-9.3233,-9.3571,-9.3571,-9.3571,-9.3571,-9.3571,-9.3571,-9.3571,-9.3571,-9.3571,-9.3571,-9.3571,-9.6685,-9.6685,-9.6685,-9.6685,-9.6685,-9.6685,-9.6685,-9.6685,-9.6685,-9.6685,-9.6685,-9.6685,-9.6685,-9.6685,-9.6685,-9.6685,-9.6685,-9.6685,-9.6685,-9.6685,-9.6685,-9.6685,-9.6685,-9.6685,-9.6685,-9.6685,-9.6685,-9.6685,-9.6685,-9.6685,-9.6685,-9.6685,-9.6685,-9.6685,-9.6685,-9.6685,-9.6685,-9.6685,-9.6685,-9.6685,-9.6685,-9.6685,-9.6685,-9.6685,-9.6685,-9.6685,-9.6685,-9.6685,-9.6685,-9.6685,-9.6685,-9.6685,-9.6685,-9.6685,-9.6338,-9.4364,-9.24,-9.0812,-9.0812,-9.0812,-9.0812,-9.0812,-9.0812,-9.0812,-9.0812,-9.0812,-9.0812,-9.0812,-9.0812,-9.0812,-9.0812,-9.0812,-9.1088,-9.1985,-9.1399,-9.1123,-9.2019,-9.1364,-9.076,-9.0707,-9.0494,-9.0334,-9.0173,-8.9737,-8.9462,-8.9407,-8.9184,-8.9072,-8.9072,-8.9072,-8.9173,-8.9342,-8.9342,-8.9241,-8.9072,-8.9241,-8.9342,-8.9342,-8.9918,-9.0391,-9.0763,-9.1913,-9.2522,-9.2725,-9.3334,-9.3571,-9.3571,-9.3571,-9.3571,-9.3571,-9.3571,-9.3571,-9.3571,-9.3571,-9.3571,-9.3571,-9.6685,-9.6685,-9.6685,-9.6685,-9.6685,-9.6685,-9.6685,-9.6685,-9.6685,-9.6685,-9.6685,-9.6685,-9.6685,-9.6685,-9.6685,-9.6685,-9.6685,-9.6685,-9.6685,-9.6685,-9.6685,-9.6685,-9.6685,-9.6685,-9.6685,-9.6685,-9.6685,-9.6685,-9.6685,-9.6685,-9.6685,-9.6685,-9.6685,-9.6685,-9.6685,-9.6685,-9.6685,-9.6685,-9.6685,-9.6685,-9.6685,-9.6685,-9.6685,-9.6685,-9.6685,-9.6685,-9.6685,-9.6685,-9.6685,-9.6685,-9.6685,-9.6685,-9.6685,-9.6685,-9.6338,-9.4364,-9.24,-9.0812,-9.0812,-9.0812,-9.0812,-9.0812,-9.0812,-9.0812,-9.0812,-9.0812,-9.0812,-9.0812,-9.0812,-9.0812,-9.0812,-9.0812,-9.195,-9.5503,-9.3123,-9.2054,-9.5572,-9.302,-9.0707,-9.0441,-9.0422,-9.0173,-8.9628,-8.9517,-8.9407,-8.9128,-8.9128,-8.9072,-8.9072,-8.9072,-8.941,-9.0121,-9.0121,-8.9782,-8.9106,-8.9782,-9.0121,-9.0121,-9.0188,-9.0932,-9.2252,-9.2387,-9.2827,-9.3503,-9.3571,-9.3571,-9.3571,-9.3571,-9.3571,-9.3571,-9.3571,-9.3571,-9.3571,-9.3571,-9.3571,-9.3571,-9.6685,-9.6685,-9.6685,-9.6685,-9.6685,-9.6685,-9.6685,-9.6685,-9.6685,-9.6685,-9.6685,-9.6685,-9.6685,-9.6685,-9.6685,-9.6685,-9.6685,-9.6685,-9.6685,-9.6685,-9.6685,-9.6685,-9.6685,-9.6685,-9.6685,-9.6685,-9.6685,-9.6685,-9.6685,-9.6685,-9.6685,-9.6685,-9.6685,-9.6685,-9.6685,-9.6685,-9.6685,-9.6685,-9.6685,-9.6685,-9.6685,-9.6685,-9.6685,-9.6685,-9.6685,-9.6685,-9.6685,-9.6685,-9.6685,-9.6685,-9.6685,-9.6685,-9.6685,-9.6685,-9.6338,-9.4364,-9.28,-9.1588,-9.0935,-9.0812,-9.0812,-9.0812,-9.0812,-9.0812,-9.0812,-9.0812,-9.0812,-9.0812,-9.0812,-9.0812,-9.0812,-9.0812,-9.1295,-9.2744,-9.1744,-9.133,-9.2778,-9.1709,-9.0707,-9.0422,-9.0422,-9.0261,-8.9826,-8.9628,-8.9462,-8.9351,-8.9184,-8.9072,-8.9072,-8.9512,-8.9918,-9.0188,-9.1102,-9.1,-8.9782,-9.0053,-9.0222,-9.0222,-9.1135,-9.188,-9.2455,-9.2928,-9.33,-9.3571,-9.3571,-9.3571,-9.3571,-9.3571,-9.3571,-9.3571,-9.3571,-9.3571,-9.3571,-9.3571,-9.3571,-9.3571,-9.6685,-9.6685,-9.6685,-9.6685,-9.6685,-9.6685,-9.6685,-9.6685,-9.6685,-9.6685,-9.6685,-9.6685,-9.6685,-9.6685,-9.6685,-9.6685,-9.6685,-9.6685,-9.6685,-9.6685,-9.6685,-9.6685,-9.6685,-9.6685,-9.6685,-9.6685,-9.6685,-9.6685,-9.6685,-9.6685,-9.6685,-9.6685,-9.6685,-9.6685,-9.6685,-9.6685,-9.6685,-9.6685,-9.6685,-9.6685,-9.6685,-9.6685,-9.6685,-9.6685,-9.6685,-9.6685,-9.6685,-9.6685,-9.6685,-9.6685,-9.6685,-9.6685,-9.6685,-9.6455,-9.5947,-9.4626,-9.332,-9.2154,-9.147,-9.104,-9.0812,-9.0812,-9.0812,-9.0812,-9.0812,-9.0812,-9.0812,-9.0812,-9.0812,-9.0812,-9.0812,-9.0812,-9.0812,-9.0812,-9.0812,-9.0812,-9.0812,-9.0812,-9.0707,-9.0422,-9.0422,-9.0261,-8.9881,-8.9628,-8.9462,-8.9351,-8.9184,-8.9173,-8.941,-9.0357,-9.0899,-9.0899,-9.188,-9.1913,-9.0899,-9.0899,-9.0899,-9.0932,-9.1947,-9.2556,-9.2793,-9.3334,-9.3571,-9.3605,-9.3842,-9.3943,-9.3943,-9.418,-9.4146,-9.3943,-9.3943,-9.3774,-9.3571,-9.3571,-9.3571,-9.3571,-9.6685,-9.6685,-9.6685,-9.6685,-9.6685,-9.6685,-9.6685,-9.6685,-9.6685,-9.6685,-9.6685,-9.6685,-9.6685,-9.6685,-9.6685,-9.6685,-9.6685,-9.6685,-9.6685,-9.6685,-9.6685,-9.6685,-9.6685,-9.6685,-9.6685,-9.6685,-9.6685,-9.6685,-9.6685,-9.6685,-9.6685,-9.6685,-9.6685,-9.6685,-9.6685,-9.6685,-9.6685,-9.6685,-9.6685,-9.6685,-9.6685,-9.6685,-9.6685,-9.6685,-9.6685,-9.6685,-9.6685,-9.6685,-9.6685,-9.6685,-9.6685,-9.6685,-9.6685,-9.6024,-9.5217,-9.5217,-9.3836,-9.2302,-9.2302,-9.1572,-9.0812,-9.0812,-9.0812,-9.0812,-9.0812,-9.0812,-9.0812,-9.0812,-9.0812,-9.0812,-9.0812,-9.0812,-9.0812,-9.0812,-9.0812,-9.0812,-9.0812,-9.0812,-9.0707,-9.0422,-9.0422,-9.0207,-8.9572,-8.9551,-8.9407,-8.9162,-8.9106,-8.9444,-9.0188,-9.1609,-9.2421,-9.2421,-9.2421,-9.2421,-9.2421,-9.2421,-9.2421,-9.2421,-9.2421,-9.2827,-9.3571,-9.3605,-9.3605,-9.3639,-9.4383,-9.4721,-9.4755,-9.5466,-9.5364,-9.4687,-9.4687,-9.4248,-9.3571,-9.3571,-9.3571,-9.3571,-9.6685,-9.6685,-9.6685,-9.6685,-9.6685,-9.6685,-9.6685,-9.6685,-9.6685,-9.6685,-9.6685,-9.6685,-9.6685,-9.6685,-9.6685,-9.6685,-9.6685,-9.6685,-9.6685,-9.6685,-9.6685,-9.6685,-9.6685,-9.6685,-9.6685,-9.6685,-9.6685,-9.6685,-9.6685,-9.6685,-9.6685,-9.6685,-9.6685,-9.6685,-9.6685,-9.6685,-9.6685,-9.6685,-9.6685,-9.6685,-9.6685,-9.6685,-9.6685,-9.6685,-9.6685,-9.6685,-9.6685,-9.6685,-9.6685,-9.6685,-9.6685,-9.6685,-9.6685,-9.6494,-9.6104,-9.5384,-9.4319,-9.3226,-9.2462,-9.1572,-9.0812,-9.0812,-9.0812,-9.0812,-9.0812,-9.0812,-9.0812,-9.0812,-9.0812,-9.0812,-9.0812,-9.0812,-9.0812,-9.0812,-9.0812,-9.0812,-9.0812,-9.0812,-9.0707,-9.0422,-9.0548,-9.0647,-9.0653,-9.0611,-9.0704,-9.0969,-9.0776,-9.0729,-9.0966,-9.188,-9.2421,-9.2421,-9.2962,-9.3233,-9.3233,-9.2692,-9.2421,-9.2421,-9.2962,-9.3368,-9.3605,-9.4146,-9.4079,-9.3639,-9.4383,-9.4417,-9.3943,-9.4146,-9.3774,-9.3165,-9.3706,-9.3436,-9.2827,-9.3368,-9.3571,-9.3571,-9.6685,-9.6685,-9.6685,-9.6685,-9.6685,-9.6685,-9.6685,-9.6685,-9.6685,-9.6685,-9.6685,-9.6685,-9.6685,-9.6685,-9.6685,-9.6685,-9.6685,-9.6685,-9.6685,-9.6685,-9.6685,-9.6685,-9.6685,-9.6685,-9.6685,-9.6685,-9.6685,-9.6685,-9.6685,-9.6685,-9.6685,-9.6685,-9.6685,-9.6685,-9.6685,-9.6685,-9.6685,-9.6685,-9.6685,-9.6685,-9.6685,-9.6685,-9.6685,-9.6685,-9.6685,-9.6685,-9.6685,-9.6685,-9.6685,-9.6685,-9.6685,-9.6685,-9.6685,-9.6685,-9.6494,-9.5503,-9.4539,-9.3598,-9.2559,-9.1572,-9.0812,-9.0812,-9.0812,-9.0812,-9.0812,-9.0812,-9.0812,-9.0812,-9.0812,-9.0812,-9.0812,-9.0812,-9.0812,-9.0812,-9.0812,-9.0812,-9.0812,-9.0812,-9.076,-9.0548,-9.0876,-9.1059,-9.1104,-9.128,-9.1454,-9.1557,-9.169,-9.1744,-9.1744,-9.2455,-9.2895,-9.2895,-9.3334,-9.3571,-9.3571,-9.3131,-9.2895,-9.2895,-9.3368,-9.3571,-9.3605,-9.4045,-9.4011,-9.3639,-9.4383,-9.4451,-9.4045,-9.4045,-9.3571,-9.2928,-9.3402,-9.3098,-9.2522,-9.33,-9.3571,-9.3571,-9.6685,-9.6685,-9.6685,-9.6685,-9.6685,-9.6722,-9.6795,-9.6759,-9.6722,-9.6795,-9.6722,-9.6685,-9.6685,-9.6685,-9.6685,-9.6685,-9.6759,-9.6832,-9.6906,-9.6906,-9.6906,-9.6906,-9.6832,-9.6795,-9.6795,-9.6722,-9.6685,-9.6685,-9.6685,-9.6685,-9.6685,-9.6685,-9.6685,-9.6685,-9.6685,-9.6685,-9.6685,-9.6685,-9.6685,-9.6685,-9.6685,-9.6685,-9.6685,-9.6685,-9.6685,-9.6685,-9.6685,-9.6685,-9.6685,-9.6685,-9.6685,-9.6685,-9.6685,-9.6685,-9.6494,-9.5503,-9.4539,-9.3598,-9.2559,-9.1572,-9.0812,-9.0812,-9.0812,-9.0812,-9.0812,-9.0812,-9.0812,-9.0812,-9.0812,-9.0812,-9.0812,-9.0812,-9.0812,-9.0812,-9.0812,-9.0812,-9.0812,-9.0812,-9.0847,-9.0916,-9.127,-9.1446,-9.1288,-9.1726,-9.1794,-9.1508,-9.215,-9.2522,-9.2522,-9.3199,-9.3571,-9.3571,-9.3571,-9.3571,-9.3571,-9.3571,-9.3571,-9.3571,-9.3571,-9.3571,-9.3571,-9.3639,-9.3639,-9.3639,-9.4383,-9.4687,-9.462,-9.4518,-9.4079,-9.3368,-9.347,-9.2996,-9.2421,-9.3267,-9.3571,-9.3571,-9.6685,-9.6685,-9.6685,-9.6685,-9.6685,-9.6906,-9.753,-9.7089,-9.6942,-9.7566,-9.7089,-9.6685,-9.6685,-9.6685,-9.6685,-9.6685,-9.7273,-9.7897,-9.8557,-9.8594,-9.8594,-9.8594,-9.797,-9.764,-9.764,-9.7016,-9.6685,-9.6685,-9.6685,-9.6685,-9.6685,-9.6685,-9.6685,-9.6685,-9.6685,-9.6685,-9.6685,-9.6685,-9.6685,-9.6685,-9.6685,-9.6685,-9.6685,-9.6685,-9.6685,-9.6685,-9.6685,-9.6685,-9.6685,-9.6685,-9.6685,-9.6685,-9.6685,-9.6685,-9.6494,-9.5503,-9.4539,-9.3598,-9.2559,-9.1572,-9.0812,-9.0812,-9.0812,-9.0812,-9.0812,-9.0812,-9.0812,-9.0812,-9.0812,-9.0812,-9.0812,-9.0812,-9.0812,-9.0812,-9.0812,-9.0812,-9.0812,-9.0812,-9.1054,-9.164,-9.1579,-9.1857,-9.2723,-9.303,-9.3215,-9.3098,-9.3233,-9.3334,-9.3334,-9.3503,-9.3571,-9.3571,-9.3571,-9.3571,-9.3571,-9.3571,-9.3571,-9.3571,-9.3571,-9.3571,-9.3605,-9.4214,-9.4146,-9.3639,-9.4383,-9.4383,-9.3774,-9.3165,-9.2489,-9.1846,-9.2455,-9.2218,-9.1711,-9.3064,-9.3571,-9.3503,-9.6685,-9.6685,-9.6685,-9.6685,-9.6685,-9.6832,-9.7273,-9.6979,-9.6832,-9.7273,-9.6942,-9.6685,-9.6685,-9.6685,-9.6832,-9.7236,-9.8007,-9.8668,-9.9071,-9.9108,-9.9108,-9.9108,-9.8704,-9.8484,-9.8484,-9.808,-9.7456,-9.6685,-9.6685,-9.6685,-9.6685,-9.6685,-9.6685,-9.6685,-9.6685,-9.6685,-9.6685,-9.6685,-9.6685,-9.6685,-9.6685,-9.6685,-9.6685,-9.6685,-9.6685,-9.6685,-9.6685,-9.6685,-9.6685,-9.6685,-9.6685,-9.6685,-9.6685,-9.6377,-9.5785,-9.4835,-9.3836,-9.2848,-9.189,-9.1161,-9.0812,-9.0812,-9.0812,-9.0812,-9.0812,-9.0812,-9.0812,-9.0812,-9.0812,-9.0812,-9.0812,-9.0812,-9.0812,-9.0812,-9.0812,-9.0812,-9.0812,-9.1123,-9.1537,-9.195,-9.2227,-9.2677,-9.3383,-9.351,-9.3571,-9.3571,-9.3571,-9.3571,-9.3571,-9.3571,-9.3571,-9.3571,-9.3571,-9.3571,-9.3571,-9.3571,-9.3571,-9.3571,-9.3571,-9.3571,-9.3605,-9.3977,-9.3943,-9.3605,-9.4011,-9.374,-9.2962,-9.2184,-9.144,-9.0865,-9.1609,-9.1643,-9.1474,-9.303,-9.3571,-9.3402,-9.6685,-9.6685,-9.6685,-9.6685,-9.6685,-9.6759,-9.6869,-9.6795,-9.6759,-9.6906,-9.6795,-9.6685,-9.6685,-9.6832,-9.7236,-9.8007,-9.8851,-9.9365,-9.9512,-9.9512,-9.9512,-9.9512,-9.9402,-9.9328,-9.9328,-9.9181,-9.8447,-9.7126,-9.6979,-9.6906,-9.6906,-9.6759,-9.6685,-9.6685,-9.6685,-9.6685,-9.6685,-9.6685,-9.6685,-9.6685,-9.6685,-9.6685,-9.6685,-9.6685,-9.6685,-9.6685,-9.6685,-9.6685,-9.6685,-9.6685,-9.6685,-9.6685,-9.6685,-9.6143,-9.5259,-9.4319,-9.3459,-9.2511,-9.1367,-9.104,-9.0988,-9.0865,-9.0812,-9.0812,-9.0812,-9.0812,-9.0812,-9.0812,-9.0812,-9.0812,-9.0812,-9.0812,-9.0812,-9.0812,-9.0812,-9.0847,-9.0985,-9.1571,-9.2088,-9.2276,-9.2968,-9.344,-9.3562,-9.3571,-9.3571,-9.3571,-9.3571,-9.3571,-9.3571,-9.3571,-9.3571,-9.3571,-9.3571,-9.3571,-9.3571,-9.3571,-9.3571,-9.3571,-9.3571,-9.3571,-9.3571,-9.3571,-9.3571,-9.3571,-9.3571,-9.3131,-9.2353,-9.1609,-9.0932,-9.0459,-9.1068,-9.1372,-9.1677,-9.3064,-9.3571,-9.3368,-9.6685,-9.6685,-9.6685,-9.6685,-9.6685,-9.6942,-9.764,-9.7163,-9.6942,-9.764,-9.7126,-9.6685,-9.6685,-9.7309,-9.8043,-9.8888,-9.9659,-10.0393,-10.109,-10.12,-10.12,-10.12,-10.0503,-10.0099,-10.0099,-9.9475,-9.8998,-9.8778,-9.808,-9.775,-9.7713,-9.7016,-9.6685,-9.6685,-9.6685,-9.6685,-9.6685,-9.6685,-9.6685,-9.6685,-9.6685,-9.6685,-9.6685,-9.6685,-9.6685,-9.6685,-9.6685,-9.6685,-9.6685,-9.6685,-9.6685,-9.6685,-9.6685,-9.6608,-9.6299,-9.5301,-9.4885,-9.4408,-9.2608,-9.2104,-9.189,-9.104,-9.0812,-9.0812,-9.0812,-9.0812,-9.0812,-9.0812,-9.0812,-9.0812,-9.0812,-9.0812,-9.0812,-9.0812,-9.0812,-9.1054,-9.1744,-9.1916,-9.236,-9.345,-9.3725,-9.3845,-9.363,-9.3571,-9.3571,-9.3571,-9.3571,-9.3571,-9.3571,-9.3571,-9.3571,-9.3571,-9.3571,-9.3571,-9.3571,-9.3571,-9.3571,-9.3571,-9.3571,-9.3571,-9.3571,-9.3571,-9.3571,-9.3571,-9.3571,-9.3131,-9.2353,-9.1609,-9.1237,-9.1169,-9.1271,-9.1711,-9.2387,-9.3267,-9.3571,-9.3368,-9.6685,-9.6685,-9.6685,-9.6685,-9.6685,-9.6832,-9.7163,-9.6942,-9.6832,-9.7163,-9.6906,-9.6685,-9.6685,-9.7823,-9.8704,-9.9071,-10.0209,-10.109,-10.1494,-10.1494,-10.1494,-10.1494,-10.12,-10.098,-10.098,-10.0613,-10.0393,-10.0393,-9.9181,-9.8557,-9.8557,-9.8227,-9.8043,-9.8007,-9.7566,-9.7346,-9.7346,-9.6906,-9.6685,-9.6685,-9.6685,-9.6685,-9.6685,-9.6685,-9.6685,-9.6685,-9.6685,-9.6685,-9.6685,-9.6685,-9.6685,-9.6685,-9.6685,-9.6338,-9.5785,-9.5343,-9.4799,-9.4142,-9.2704,-9.2302,-9.2055,-9.104,-9.0812,-9.0812,-9.0812,-9.0812,-9.0812,-9.0812,-9.0812,-9.0812,-9.0812,-9.0812,-9.0812,-9.0812,-9.1192,-9.1606,-9.195,-9.2744,-9.3566,-9.4322,-9.4203,-9.3947,-9.383,-9.3689,-9.3571,-9.3571,-9.3571,-9.3571,-9.3571,-9.3571,-9.3571,-9.3571,-9.3571,-9.3571,-9.3571,-9.3571,-9.3571,-9.3571,-9.3571,-9.3571,-9.3571,-9.3571,-9.3571,-9.3571,-9.3571,-9.2895,-9.1778,-9.144,-9.1068,-9.0729,-9.1135,-9.2015,-9.3098,-9.347,-9.3571,-9.3436]},{"header":{"parameterUnit":"m.s-1","parameterCategory":1,"la1":30.6,"la2":28.766,"lo1":-90.7593,"lo2":-88.6598,"dx":0.0162,"dy":0.0183,"nx":116,"ny":114,"refTime":"2022-12-28T06:00:00:Z","depth":0,"parameterNumber":3,"parameterNumberName":"V-component_of_WINDS"},"data":[0.0,0.0,0.0,0.0,0.0,0.0,0.0,0.0,0.0,0.0,0.0,0.0,0.0,0.0,0.0,0.0,0.0,0.0,0.0,0.0,0.0,0.0,0.0,0.0,0.0,0.0,0.0,0.0,0.0,0.0,0.0,0.0,0.0,0.0,0.0,0.0,0.0,0.0,0.0,0.0,0.0,0.0,0.0,0.0,0.0,0.0,0.0,0.0,0.0,0.0,0.0,0.0,0.0,0.0,0.0,0.0,0.0,0.0,0.0,0.0,0.0,0.0,0.0,0.0,0.0,0.0,0.0,0.0,0.0,0.0,0.0,0.0,0.0,0.0,0.0,0.0,0.0,0.0,0.0,0.0,0.0,0.0,0.0,0.0,0.0,0.0,0.0,0.0,0.0,0.0,0.0,0.0,0.0,0.0,0.0,0.0,0.0,0.0,0.0,0.0,0.0,0.0,0.0,0.0,0.0,0.0,0.0,0.0,0.0,0.0,0.0,0.0,0.0,0.0,0.0,0.0,0.0,0.0,0.0,0.0,0.0,0.0,0.0,0.0,0.0,0.0,0.0,0.0,0.0,0.0,0.0,0.0,0.0,0.0,0.0,0.0,0.0,0.0,0.0,0.0,0.0,0.0,0.0,0.0,0.0,0.0,0.0,0.0,0.0,0.0,0.0,0.0,0.0,0.0,0.0,0.0,0.0,0.0,0.0,0.0,0.0,0.0,0.0,0.0,0.0,0.0,0.0,0.0,0.0,0.0,0.0,0.0,0.0,0.0,0.0,0.0,0.0,0.0,0.0,0.0,0.0,0.0,0.0,0.0,0.0,0.0,0.0,0.0,0.0,0.0,0.0,0.0,0.0,0.0,0.0,0.0,0.0,0.0,0.0,0.0,0.0,0.0,0.0,0.0,0.0,0.0,0.0,0.0,0.0,0.0,0.0,0.0,0.0,0.0,0.0,0.0,0.0,0.0,0.0,0.0,0.0,0.0,0.0,0.0,0.0,0.0,0.0,0.0,0.0,0.0,0.0,0.0,0.0,0.0,0.0,0.0,0.0,0.0,0.0,0.0,0.0,0.0,0.0,0.0,0.0,0.0,0.0,0.0,0.0,0.0,0.0,0.0,0.0,0.0,0.0,0.0,0.0,0.0,0.0,0.0,0.0,0.0,0.0,0.0,0.0,0.0,0.0,0.0,0.0,0.0,0.0,0.0,0.0,0.0,0.0,0.0,0.0,0.0,0.0,0.0,0.0,0.0,0.0,0.0,0.0,0.0,0.0,0.0,0.0,0.0,0.0,0.0,0.0,0.0,0.0,0.0,0.0,0.0,0.0,0.0,0.0,0.0,0.0,0.0,0.0,0.0,0.0,0.0,0.0,0.0,0.0,0.0,0.0,0.0,0.0,0.0,0.0,0.0,0.0,0.0,0.0,0.0,0.0,0.0,0.0,0.0,0.0,0.0,0.0,0.0,0.0,0.0,0.0,0.0,0.0,0.0,0.0,0.0,0.0,0.0,0.0,0.0,0.0,0.0,0.0,0.0,0.0,0.0,0.0,0.0,0.0,0.0,0.0,0.0,0.0,0.0,0.0,0.0,0.0,0.0,0.0,0.0,0.0,0.0,0.0,0.0,0.0,0.0,0.0,0.0,0.0,0.0,0.0,0.0,0.0,0.0,0.0,0.0,0.0,0.0,0.0,0.0,0.0,0.0,0.0,0.0,0.0,0.0,0.0,0.0,0.0,0.0,0.0,0.0,0.0,0.0,0.0,0.0,0.0,0.0,0.0,0.0,0.0,0.0,0.0,0.0,0.0,0.0,0.0,0.0,0.0,0.0,0.0,0.0,0.0,0.0,0.0,0.0,0.0,0.0,0.0,0.0,0.0,0.0,0.0,0.0,0.0,0.0,0.0,0.0,0.0,0.0,0.0,0.0,0.0,0.0,0.0,0.0,0.0,0.0,0.0,0.0,0.0,0.0,0.0,0.0,0.0,0.0,0.0,0.0,0.0,0.0,0.0,0.0,0.0,0.0,0.0,0.0,0.0,0.0,0.0,0.0,0.0,0.0,0.0,0.0,0.0,0.0,0.0,0.0,0.0,0.0,0.0,0.0,0.0,0.0,0.0,0.0,0.0,0.0,0.0,0.0,0.0,0.0,0.0,0.0,0.0,0.0,0.0,0.0,0.0,0.0,0.0,0.0,0.0,0.0,0.0,0.0,0.0,0.0,0.0,0.0,0.0,0.0,0.0,0.0,0.0,0.0,0.0,0.0,0.0,0.0,0.0,0.0,0.0,0.0,0.0,0.0,0.0,0.0,0.0,0.0,0.0,0.0,0.0,0.0,0.0,0.0,0.0,0.0,0.0,0.0,0.0,0.0,0.0,0.0,0.0,0.0,0.0,0.0,0.0,0.0,0.0,0.0,0.0,0.0,0.0,0.0,0.0,0.0,0.0,0.0,0.0,0.0,0.0,0.0,0.0,0.0,0.0,0.0,0.0,0.0,0.0,0.0,0.0,0.0,0.0,0.0,0.0,0.0,0.0,0.0,0.0,0.0,0.0,0.0,0.0,0.0,0.0,0.0,0.0,0.0,0.0,0.0,0.0,0.0,0.0,0.0,0.0,0.0,0.0,0.0,0.0,0.0,0.0,0.0,0.0,0.0,0.0,0.0,0.0,0.0,0.0,0.0,0.0,0.0,0.0,0.0,0.0,0.0,0.0,0.0,0.0,0.0,0.0,0.0,0.0,0.0,0.0,0.0,0.0,0.0,0.0,0.0,0.0,0.0,0.0,0.0,0.0,0.0,0.0,0.0,0.0,0.0,0.0,0.0,0.0,0.0,0.0,0.0,0.0,0.0,0.0,0.0,0.0,0.0,0.0,0.0,0.0,0.0,0.0,0.0,0.0,0.0,0.0,0.0,0.0,0.0,0.0,0.0,0.0,0.0,0.0,0.0,0.0,0.0,0.0,0.0,0.0,0.0,0.0,0.0,0.0,0.0,0.0,0.0,0.0,0.0,0.0,0.0,0.0,0.0,0.0,0.0,0.0,0.0,0.0,0.0,0.0,0.0,0.0,0.0,0.0,0.0,0.0,0.0,0.0,0.0,0.0,0.0,0.0,0.0,0.0,0.0,0.0,0.0,0.0,0.0,0.0,0.0,0.0,0.0,0.0,0.0,0.0,0.0,0.0,0.0,0.0,0.0,0.0,0.0,0.0,0.0,0.0,0.0,0.0,0.0,0.0,0.0,0.0,0.0,0.0,0.0,0.0,0.0,0.0,0.0,0.0,0.0,0.0,0.0,0.0,0.0,0.0,0.0,0.0,0.0,0.0,0.0,0.0,0.0,0.0,0.0,0.0,0.0,0.0,0.0,0.0,0.0,0.0,0.0,0.0,0.0,0.0,0.0,0.0,0.0,0.0,0.0,0.0,0.0,0.0,0.0,0.0,0.0,0.0,0.0,0.0,0.0,0.0,0.0,0.0,0.0,0.0,0.0,0.0,0.0,0.0,0.0,0.0,0.0,0.0,0.0,0.0,0.0,0.0,0.0,0.0,0.0,0.0,0.0,0.0,0.0,0.0,0.0,0.0,0.0,0.0,0.0,0.0,0.0,0.0,0.0,0.0,0.0,0.0,0.0,0.0,0.0,0.0,0.0,0.0,0.0,0.0,0.0,0.0,0.0,0.0,0.0,0.0,0.0,0.0,0.0,0.0,0.0,0.0,0.0,0.0,0.0,0.0,0.0,0.0,0.0,0.0,0.0,0.0,0.0,0.0,0.0,0.0,0.0,0.0,0.0,0.0,0.0,0.0,0.0,0.0,0.0,0.0,0.0,0.0,0.0,0.0,0.0,0.0,0.0,0.0,0.0,0.0,0.0,0.0,0.0,0.0,0.0,0.0,0.0,0.0,0.0,0.0,0.0,0.0,0.0,0.0,0.0,0.0,0.0,0.0,0.0,0.0,0.0,0.0,0.0,0.0,0.0,0.0,0.0,0.0,0.0,0.0,0.0,0.0,0.0,0.0,0.0,0.0,0.0,0.0,0.0,0.0,0.0,0.0,0.0,0.0,0.0,0.0,0.0,0.0,0.0,0.0,0.0,0.0,0.0,0.0,0.0,0.0,0.0,0.0,0.0,0.0,0.0,0.0,0.0,0.0,0.0,0.0,0.0,0.0,0.0,0.0,0.0,0.0,0.0,0.0,0.0,0.0,0.0,0.0,0.0,0.0,0.0,0.0,0.0,0.0,0.0,0.0,0.0,0.0,0.0,0.0,0.0,0.0,0.0,0.0,0.0,0.0,0.0,0.0,0.0,0.0,0.0,0.0,0.0,0.0,0.0,0.0,0.0,0.0,0.0,0.0,0.0,0.0,0.0,0.0,0.0,0.0,0.0,0.0,0.0,0.0,0.0,0.0,0.0,0.0,0.0,0.0,0.0,0.0,0.0,0.0,0.0,0.0,0.0,0.0,0.0,0.0,0.0,0.0,0.0,0.0,0.0,0.0,0.0,0.0,0.0,0.0,0.0,0.0,0.0,0.0,0.0,0.0,0.0,0.0,0.0,0.0,0.0,0.0,0.0,0.0,0.0,0.0,0.0,0.0,0.0,0.0,0.0,0.0,0.0,0.0,0.0,0.0,0.0,0.0,0.0,0.0,0.0,0.0,0.0,0.0,0.0,0.0,0.0,0.0,0.0,0.0,0.0,0.0,0.0,0.0,0.0,0.0,0.0,0.0,0.0,0.0,0.0,0.0,0.0,0.0,0.0,0.0,0.0,0.0,0.0,0.0,0.0,0.0,0.0,0.0,0.0,0.0,0.0,0.0,0.0,0.0,0.0,0.0,0.0,0.0,0.0,0.0,0.0,0.0,0.0,0.0,0.0,0.0,0.0,0.0,0.0,0.0,0.0,0.0,0.0,0.0,0.0,0.0,0.0,0.0,0.0,0.0,0.0,0.0,0.0,0.0,0.0,0.0,0.0,0.0,0.0,0.0,0.0,0.0,0.0,0.0,0.0,0.0,0.0,0.0,0.0,0.0,0.0,0.0,0.0,0.0,0.0,0.0,0.0,0.0,0.0,0.0,0.0,0.0,0.0,0.0,0.0,0.0,0.0,0.0,0.0,0.0,0.0,0.0,0.0,0.0,0.0,0.0,0.0,0.0,0.0,0.0,0.0,0.0,0.0,0.0,0.0,0.0,0.0,0.0,0.0,0.0,0.0,0.0,0.0,0.0,0.0,0.0,0.0,0.0,0.0,0.0,0.0,0.0,0.0,0.0,0.0,0.0,0.0,0.0,0.0,0.0,0.0,0.0,0.0,0.0,0.0,0.0,0.0,0.0,0.0,0.0,0.0,0.0,0.0,0.0,0.0,0.0,0.0,0.0,0.0,0.0,0.0,0.0,0.0,0.0,0.0,0.0,0.0,0.0,0.0,0.0,0.0,0.0,0.0,0.0,0.0,0.0,0.0,0.0,0.0,0.0,0.0,0.0,0.0,0.0,0.0,0.0,0.0,0.0,0.0,0.0,0.0,0.0,0.0,0.0,0.0,0.0,0.0,0.0,0.0,0.0,0.0,0.0,0.0,0.0,0.0,0.0,0.0,0.0,0.0,0.0,0.0,0.0,0.0,0.0,0.0,0.0,0.0,0.0,0.0,0.0,0.0,0.0,0.0,0.0,0.0,0.0,0.0,0.0,0.0,0.0,0.0,0.0,0.0,0.0,0.0,0.0,0.0,0.0,0.0,0.0,0.0,0.0,0.0,0.0,0.0,0.0,0.0,0.0,0.0,0.0,0.0,0.0,0.0,0.0,0.0,0.0,0.0,0.0,0.0,0.0,0.0,0.0,0.0,0.0,0.0,0.0,0.0,0.0,0.0,0.0,0.0,0.0,0.0,0.0,0.0,0.0,0.0,0.0,0.0,0.0,0.0,0.0,0.0,0.0,0.0,0.0,0.0,0.0,0.0,0.0,0.0,0.0,0.0,0.0,0.0,0.0,0.0,0.0,0.0,0.0,0.0,0.0,0.0,0.0,0.0,0.0,0.0,0.0,0.0,0.0,0.0,0.0,0.0,0.0,0.0,0.0,0.0,0.0,0.0,0.0,0.0,0.0,0.0,0.0,0.0,0.0,0.0,3.3572,3.2189,0.0,0.0,0.0,0.0,0.0,0.0,0.0,0.0,0.0,0.0,0.0,0.0,0.0,0.0,0.0,0.0,0.0,0.0,0.0,0.0,0.0,0.0,0.0,0.0,0.0,0.0,0.0,0.0,0.0,0.0,0.0,0.0,0.0,0.0,0.0,0.0,1.6236,1.6537,1.7265,1.7764,1.8091,1.7861,1.7595,1.7355,0.0,0.0,0.0,0.0,0.0,0.0,0.0,0.0,0.0,0.0,0.0,0.0,0.0,0.0,0.0,0.0,0.0,0.0,0.0,0.0,0.0,0.0,0.0,0.0,0.0,0.0,0.0,0.0,0.0,0.0,0.0,0.0,0.0,0.0,0.0,0.0,0.0,0.0,0.0,0.0,0.0,0.0,0.0,0.0,0.0,0.0,0.0,0.0,0.0,0.0,0.0,0.0,0.0,0.0,0.0,0.0,0.0,0.0,0.0,0.0,0.0,0.0,0.0,0.0,0.0,0.0,0.0,0.0,0.0,0.0,3.5047,3.4224,0.0,0.0,0.0,0.0,0.0,0.0,0.0,0.0,0.0,0.0,0.0,0.0,0.0,0.0,0.0,0.0,0.0,0.0,0.0,0.0,0.0,0.0,0.0,1.1596,1.289,1.2897,1.3978,1.4642,0.0,0.0,0.0,0.0,0.0,0.0,0.0,1.6451,1.7152,1.754,1.8203,1.879,1.9272,1.98,1.9581,1.8608,1.8704,0.0,0.0,0.0,0.0,0.0,0.0,0.0,0.0,0.0,0.0,0.0,0.0,0.0,0.0,0.0,0.0,0.0,0.0,0.0,0.0,0.0,0.0,0.0,0.0,0.0,0.0,0.0,0.0,0.0,0.0,0.0,0.0,0.0,0.0,0.0,0.0,0.0,0.0,0.0,0.0,0.0,0.0,0.0,0.0,0.0,0.0,0.0,0.0,0.0,0.0,0.0,0.0,0.0,0.0,0.0,0.0,0.0,0.0,0.0,0.0,0.0,0.0,0.0,3.5862,3.6128,3.6437,3.6366,3.6601,3.6973,3.6344,3.6228,3.6504,3.5957,0.0,0.0,0.0,0.0,0.0,0.0,0.0,0.0,0.0,0.0,0.0,0.0,0.0,0.0,0.0,0.0,0.0,0.0,0.0,0.0,0.0,1.2627,1.4137,1.3997,1.5244,1.6018,1.6018,0.0,0.0,0.0,0.0,0.0,1.7172,1.734,1.7799,1.8615,1.9928,2.0808,2.1206,2.1175,2.1161,2.1042,2.0067,1.9746,1.9834,0.0,0.0,0.0,0.0,0.0,0.0,0.0,0.0,0.0,0.0,0.0,0.0,0.0,0.0,0.0,0.0,0.0,0.0,0.0,0.0,0.0,0.0,0.0,0.0,0.0,0.0,0.0,0.0,0.0,0.0,0.0,0.0,0.0,0.0,0.0,0.0,0.0,0.0,0.0,0.0,0.0,2.969,2.9439,0.0,0.0,0.0,0.0,0.0,0.0,0.0,0.0,0.0,0.0,0.0,0.0,0.0,3.5603,3.5977,3.6374,3.6553,3.6572,3.7236,3.7624,3.7682,3.7624,3.791,3.832,3.8262,0.0,3.6152,3.6777,0.0,0.0,0.0,0.0,0.0,0.0,0.0,0.0,0.0,0.0,0.0,0.0,0.0,0.0,0.0,0.0,0.0,0.0,0.0,0.0,0.0,1.2618,1.4035,1.4751,1.6113,1.6899,1.6742,1.6851,0.0,0.0,0.0,1.7484,1.7786,1.8173,1.8849,1.9784,2.0953,2.1529,2.1542,2.1833,2.1939,2.1777,2.143,2.1069,2.0695,2.0147,0.0,0.0,0.0,0.0,0.0,0.0,0.0,0.0,0.0,0.0,0.0,0.0,0.0,0.0,0.0,0.0,0.0,0.0,0.0,0.0,0.0,0.0,0.0,0.0,0.0,0.0,0.0,0.0,0.0,0.0,0.0,0.0,0.0,0.0,0.0,0.0,0.0,0.0,0.0,2.9324,2.9782,3.0497,3.0901,3.1304,0.0,0.0,0.0,0.0,0.0,0.0,0.0,0.0,0.0,3.6204,3.6494,3.6937,3.7576,3.7397,3.7488,3.7792,3.7877,3.8184,3.8633,3.8398,3.8672,3.9297,3.9043,3.8496,3.7812,3.7949,3.791,3.7754,0.0,0.0,0.0,0.0,3.7422,3.7148,0.0,0.0,0.0,0.0,0.0,0.0,0.0,0.0,0.0,0.0,0.0,0.0,1.1249,1.2885,1.4293,1.5289,1.6774,1.7479,1.7213,1.7382,1.7503,0.0,1.7817,1.8119,1.8372,1.9013,1.9685,2.0497,2.1358,2.1806,2.1684,2.2163,2.2351,2.2218,2.2432,2.2124,2.143,2.1136,2.0922,2.0735,0.0,0.0,0.0,0.0,0.0,0.0,0.0,0.0,0.0,0.0,0.0,0.0,0.0,0.0,0.0,0.0,0.0,0.0,0.0,0.0,0.0,0.0,0.0,0.0,0.0,0.0,0.0,0.0,0.0,0.0,0.0,0.0,0.0,0.0,0.0,0.0,0.0,3.0149,3.0662,3.1854,3.2184,3.2514,0.0,0.0,0.0,0.0,0.0,0.0,3.5462,3.6108,3.6632,3.6986,3.7485,3.8069,3.8906,3.8476,3.8476,3.8906,3.8574,3.8769,3.9375,3.9062,3.9277,3.9883,3.9531,3.9375,3.9355,3.9043,3.8906,3.8906,3.8906,3.8848,3.8711,3.8516,3.8359,3.832,0.0,0.0,0.0,0.0,0.0,0.0,0.0,0.0,0.0,0.0,0.0,1.1684,1.1537,1.4104,1.5785,1.5698,1.7041,1.7744,1.7479,1.8179,1.8601,1.8601,1.9096,1.9427,1.9427,1.9736,2.0104,2.0389,2.1053,2.1658,2.2271,2.2284,2.249,2.2887,2.2901,2.2659,2.2338,2.2044,2.2071,2.2231,2.1363,0.0,0.0,0.0,0.0,0.0,0.0,0.0,0.0,0.0,0.0,0.0,0.0,0.0,0.0,0.0,0.0,0.0,0.0,0.0,0.0,0.0,0.0,0.0,0.0,0.0,0.0,0.0,0.0,0.0,0.0,0.0,0.0,0.0,0.0,0.0,0.0,0.0,0.0,3.3688,3.4367,0.0,0.0,0.0,0.0,3.4422,3.5126,3.5893,3.6629,3.71,3.7827,3.9008,3.873,3.8965,3.9824,3.9375,3.9375,3.9824,3.9805,3.9824,3.9863,3.9844,3.9863,3.9902,3.9883,3.9863,3.9863,3.9844,3.9824,3.9824,3.9824,3.9551,3.9219,3.9648,3.9512,3.9199,0.0,0.0,0.0,0.0,0.0,0.871,0.896,0.9042,0.9144,0.9347,1.0773,1.2141,1.309,1.5054,1.6741,1.7797,1.8557,1.8855,1.8758,1.935,1.9555,1.9205,1.97,1.9989,1.9989,2.0153,2.0563,2.1183,2.2096,2.2639,2.2884,2.3351,2.3479,2.346,2.3647,2.3567,2.326,2.2752,2.2605,2.2659,2.2151,2.1884,0.0,0.0,0.0,0.0,0.0,0.0,0.0,0.0,0.0,0.0,0.0,0.0,0.0,0.0,0.0,0.0,0.0,0.0,0.0,0.0,0.0,0.0,0.0,0.0,0.0,0.0,0.0,0.0,0.0,0.0,0.0,0.0,0.0,0.0,0.0,0.0,0.0,3.3431,3.4147,0.0,3.4422,3.5009,3.5449,3.5559,3.6293,3.7017,3.7596,3.8213,3.8795,3.9254,3.9343,3.9707,4.0293,4.0137,4.0273,4.0723,4.0996,4.1269,4.1523,4.1523,4.168,4.1914,4.1367,4.1113,4.1113,4.1113,4.0801,4.0332,4.0605,4.0625,4.0527,4.0957,4.084,4.0527,0.0,0.0,0.0,0.8784,0.8825,0.8927,0.918,0.9296,0.9381,0.9585,1.1399,1.3036,1.4104,1.6211,1.7984,1.9116,1.9427,1.9487,1.9338,1.9845,1.9989,1.9627,2.0122,2.0448,2.0533,2.0551,2.0828,2.1552,2.238,2.2898,2.2982,2.3609,2.3811,2.3781,2.3968,2.3955,2.3754,2.3447,2.3193,2.2993,2.2686,2.2565,2.2498,0.0,0.0,0.0,0.0,0.0,0.0,0.0,0.0,0.0,0.0,0.0,0.0,0.0,0.0,0.0,0.0,0.0,0.0,0.0,0.0,0.0,0.0,0.0,0.0,0.0,0.0,0.0,0.0,0.0,0.0,0.0,0.0,0.0,0.0,3.3028,3.3615,3.3615,3.444,3.4954,3.4825,3.543,3.5925,3.6182,3.696,3.767,3.8271,3.9013,3.9605,3.9931,4.0296,4.0742,4.1172,4.1172,4.1308,4.1601,4.1875,4.2148,4.2422,4.2422,4.2578,4.2812,4.2109,4.1797,4.1797,4.1797,4.1465,4.0996,4.1426,4.1601,4.1621,4.1914,4.1836,4.1641,0.0,0.8885,0.8885,0.8885,0.9055,0.9214,0.9214,0.9415,0.9612,0.9618,1.2437,1.4529,1.4538,1.7504,1.9536,1.9495,1.9495,1.9463,1.9145,1.9639,1.9953,1.9953,2.0412,2.088,2.1135,2.0892,2.1026,2.1558,2.1906,2.2337,2.265,2.308,2.3437,2.3794,2.3794,2.3794,2.3808,2.4088,2.3875,2.3327,2.3033,2.2968,2.2914,0.0,0.0,0.0,0.0,0.0,0.0,0.0,0.0,0.0,0.0,0.0,0.0,0.0,0.0,0.0,0.0,0.0,0.0,0.0,0.0,0.0,0.0,0.0,0.0,0.0,0.0,0.0,0.0,0.0,0.0,0.0,0.0,0.0,3.2826,3.367,3.4403,3.444,3.5485,3.6054,3.5687,3.6017,3.6256,3.6274,3.7016,3.7802,3.8709,3.9491,4.0376,4.1191,4.1601,4.2012,4.2422,4.2441,4.2441,4.2441,4.2461,4.2461,4.2461,4.248,4.248,4.2441,4.2031,4.1855,4.1836,4.1836,4.1836,4.1875,4.2266,4.2422,4.2422,4.2441,4.2441,4.2441,0.8885,0.8885,0.8885,0.8885,0.9055,0.9248,0.93,0.9483,0.9686,0.9835,1.2597,1.4581,1.4888,1.764,1.9693,2.0026,2.0231,2.0303,2.0231,2.0919,2.1329,2.1329,2.1159,2.1147,2.1354,2.1293,2.157,2.2202,2.2554,2.3019,2.359,2.403,2.4249,2.4396,2.4396,2.4396,2.4396,2.4262,2.4102,2.3955,2.3875,2.3834,2.3794,0.0,0.0,0.0,0.0,0.0,0.0,0.0,0.0,0.0,0.0,0.0,0.0,0.0,0.0,0.0,0.0,0.0,0.0,0.0,0.0,0.0,0.0,0.0,0.0,0.0,0.0,0.0,0.0,0.0,0.0,0.0,3.4587,3.4733,3.4403,3.4385,3.4623,3.521,3.5834,3.6292,3.6476,3.6861,3.7338,3.7924,3.8461,3.9303,4.0413,4.0963,4.1496,4.207,4.2187,4.2305,4.2422,4.2734,4.2891,4.2891,4.3203,4.3359,4.3359,4.3711,4.3672,4.334,4.3223,4.3008,4.2734,4.2734,4.2734,4.2715,4.25,4.2422,4.2461,4.2773,4.2891,4.2851,0.8898,0.8885,0.8905,0.9015,0.915,0.93,0.9456,0.9605,0.9808,1.0107,1.2775,1.4754,1.5119,1.7973,1.9977,2.04,2.0484,2.0653,2.0991,2.1547,2.1764,2.1535,2.145,2.1474,2.1643,2.1643,2.1922,2.2399,2.2768,2.3138,2.3525,2.4119,2.4341,2.4341,2.4488,2.4636,2.4623,2.4449,2.4382,2.4382,2.4382,2.4315,2.4168,2.3888,2.3581,2.3313,2.318,2.2752,2.2338,2.3118,0.0,0.0,0.0,0.0,0.0,0.0,0.0,0.0,0.0,0.0,0.0,0.0,0.0,0.0,0.0,0.0,0.0,0.0,0.0,0.0,0.0,0.0,0.0,0.0,3.5357,3.5577,3.576,3.543,3.5265,3.5577,3.6274,3.6806,3.7062,3.7448,3.8016,3.8823,3.9117,3.9794,4.0995,4.1547,4.2048,4.2695,4.2871,4.3047,4.3242,4.332,4.3535,4.3906,4.3965,4.4082,4.4258,4.4355,4.4258,4.3984,4.3613,4.3301,4.3066,4.2891,4.2812,4.2812,0.0,0.0,0.0,0.0,4.334,4.3301,0.9015,0.8932,0.9028,0.9214,0.9306,0.9456,0.9591,0.9727,0.993,1.0243,1.2919,1.4916,1.5329,1.8306,2.0364,2.0759,2.0533,2.0738,2.151,2.1704,2.1607,2.128,2.1631,2.1885,2.1909,2.1945,2.214,2.2382,2.2781,2.3005,2.3055,2.3712,2.3996,2.4044,2.4414,2.4636,2.4636,2.4636,2.4636,2.4636,2.4636,2.4476,2.4222,2.3968,2.3701,2.3434,2.3166,2.2726,2.2552,2.4196,0.0,0.0,0.0,0.0,0.0,0.0,0.0,0.0,0.0,0.0,0.0,0.0,0.0,0.0,0.0,0.0,0.0,0.0,0.0,0.0,0.0,0.0,0.0,0.0,3.6256,3.6439,3.6897,3.6641,3.6274,3.5925,3.6842,3.7503,3.7558,3.7888,3.842,3.9245,3.93,3.9906,4.1165,4.1625,0.0,0.0,0.0,4.3862,4.4473,4.3965,4.4121,4.4961,4.4531,4.4512,4.4863,4.4551,4.4375,4.4277,4.3535,4.3203,4.3125,4.2734,4.2578,4.2637,4.3301,4.3594,4.3633,4.3633,4.3672,4.3711,0.9327,0.9293,0.9306,0.9334,0.9462,0.9578,0.9605,0.9727,0.993,1.0243,1.2809,1.4811,1.551,1.8261,2.0243,2.0989,2.1148,2.1498,2.2152,2.1619,2.1534,2.2005,2.1921,2.1969,2.2249,2.2467,2.2676,2.3027,2.3313,2.3541,2.3631,2.4083,2.4178,2.4044,2.4414,2.4636,2.4636,2.4636,2.4636,2.4636,2.4636,2.4609,2.4543,2.4489,2.4436,2.4369,2.4315,2.4222,2.4102,2.4269,2.4749,2.5426,2.5769,2.6553,0.0,0.0,0.0,0.0,0.0,0.0,0.0,0.0,0.0,0.0,0.0,0.0,0.0,0.0,0.0,0.0,0.0,0.0,0.0,3.6182,3.6494,3.6971,3.7686,3.7723,3.7631,3.7558,3.7759,3.8034,3.8383,3.8475,3.886,3.9667,4.0047,4.0789,4.2118,4.2231,4.2857,4.4141,4.3535,4.3768,4.4902,4.4101,4.3984,4.4512,4.4062,0.0,4.3965,4.4258,4.4199,4.3848,4.4062,4.3926,4.3574,4.3496,4.3457,4.3398,4.2871,4.2891,4.3203,4.3203,4.3418,4.3711,0.9618,0.9483,0.9408,0.9483,0.9557,0.9632,0.9707,0.9774,0.9903,1.0134,1.2097,1.3688,1.4276,1.6368,1.7988,1.8752,2.0039,2.118,2.1873,2.1934,2.1994,2.2054,2.2066,2.2126,2.2334,2.2588,2.2797,2.2949,2.3084,2.316,2.3252,2.3718,2.3802,2.3748,2.4341,2.4636,2.4636,2.4636,2.4636,2.4636,2.4636,2.4636,2.4636,2.4636,2.4543,2.4436,2.4583,2.4636,2.4609,2.4476,2.4943,2.5657,2.6214,2.6798,2.7605,0.0,0.0,0.0,0.0,0.0,0.0,0.0,0.0,0.0,0.0,0.0,0.0,0.0,0.0,3.5449,3.5834,0.0,3.6274,3.6494,3.7209,3.7796,3.7979,3.8365,3.8475,3.8053,3.8199,3.8493,3.8896,3.8933,3.9355,4.0465,4.0519,4.0915,4.2011,4.2318,4.2831,4.3729,4.3496,4.3793,4.4707,4.4043,4.4043,4.4707,4.4258,4.416,4.4355,4.4394,4.4277,4.4043,4.4043,4.3926,4.3711,4.3711,4.3848,4.4004,4.3574,4.3398,4.3398,4.3398,4.3516,4.3711,0.9822,0.9632,0.9503,0.9632,0.9652,0.9686,0.9802,0.9822,0.9876,0.997,1.1423,1.2584,1.2914,1.4497,1.5856,1.6888,1.8862,2.0478,2.1522,2.2198,2.2467,2.1969,2.2198,2.2307,2.2334,2.2588,2.2733,2.2733,2.2782,2.2782,2.2721,2.3179,2.3353,2.3302,2.4044,2.4414,2.4488,2.4488,2.4562,2.4636,2.4636,2.4636,2.4636,2.4636,2.4489,2.4315,2.4556,2.4716,2.4783,2.4676,2.5024,2.5693,2.6645,2.6903,2.7186,2.9143,2.8673,0.0,0.0,0.0,0.0,0.0,0.0,0.0,0.0,3.4587,3.466,3.5155,3.532,3.5577,3.6219,3.6329,3.6512,3.7099,3.7943,3.8493,3.8383,3.8933,3.9098,3.8456,3.8603,3.8798,3.9208,3.93,3.9795,4.0859,4.0657,4.0888,4.1677,4.2049,4.2523,4.31,4.3419,4.3799,4.4343,4.3882,4.4101,4.4902,4.4551,4.457,4.4902,4.4629,4.4473,4.4375,4.3906,4.3711,4.3711,4.3808,4.4062,4.4414,4.4492,4.4297,4.3945,4.3867,4.3848,4.3828,0.9822,0.9795,0.9774,0.9795,0.9795,0.9802,0.9822,0.9822,0.9876,0.997,1.1416,1.2543,1.2814,1.4409,1.6294,1.8336,1.9094,2.0188,2.1751,2.2126,2.2358,2.2297,2.2539,2.2576,2.2346,2.2588,2.2733,2.2733,2.2963,2.2951,2.2721,2.3076,2.3154,2.3005,2.3377,2.3748,2.4044,2.4044,2.4267,2.4636,2.4636,2.4636,2.4636,2.4636,2.4609,2.4596,2.4623,2.497,2.5331,2.481,2.5024,2.5464,2.5397,2.5377,2.5888,2.8866,2.9303,2.9536,3.2577,3.3563,3.3979,3.4591,3.455,3.4477,0.0,3.521,3.5174,3.5925,3.6366,3.6659,3.6751,3.6769,3.7136,3.8176,3.8236,3.8456,3.9483,3.9803,3.9821,3.973,3.9355,3.919,3.9226,3.9557,4.006,4.0492,4.0492,4.0888,4.1677,4.1779,4.2134,4.3017,4.3093,4.3517,4.4307,4.3851,4.3965,4.4473,4.4414,4.4414,4.4473,4.4805,4.4746,4.4375,4.3906,4.3711,4.373,4.4141,4.4355,4.4433,4.4805,4.4922,4.4824,4.4453,4.4316,4.4258,0.9822,0.9822,0.9822,0.9822,0.9822,0.9822,0.9822,0.9822,0.9842,0.9849,1.0457,1.0991,1.1154,1.2327,1.3866,1.5713,1.7316,1.882,2.0104,2.1491,2.2273,2.2042,2.2283,2.2443,2.2259,2.2588,2.2733,2.2733,2.2842,2.283,2.2721,2.2941,2.2967,2.293,2.3228,2.3513,2.3661,2.3896,2.4119,2.4267,2.4488,2.4636,2.4636,2.4636,2.4636,2.4636,2.4636,2.4903,0.0,2.477,2.5144,2.5692,2.5224,2.5896,2.6937,2.7018,2.7674,2.8857,3.1413,3.2912,3.3961,3.5103,3.5247,3.521,3.554,3.5669,3.587,3.6457,3.6897,3.7246,3.7484,3.7521,3.7778,3.8451,3.8878,3.9263,3.9858,4.0134,4.0217,4.0217,4.0052,3.996,3.996,4.0107,4.0382,4.0785,4.1054,4.1194,4.1378,4.1798,4.231,4.2648,4.3143,4.3774,4.4376,4.4447,4.457,4.4766,4.4766,4.4766,4.4766,4.4941,4.4922,4.4746,4.4551,4.4473,4.4492,4.4687,4.4902,4.5156,4.5332,4.5547,4.5683,4.5019,4.4766,4.4726,0.9822,0.9822,0.9822,0.9822,0.9822,0.9822,0.9822,0.9822,0.9822,0.9822,0.9856,0.9958,1.0148,1.0792,1.1836,1.3457,1.5705,1.7605,1.8921,2.1067,2.2285,2.2164,2.2406,2.2515,2.2443,2.2564,2.2624,2.2624,2.2624,2.2624,2.2612,2.2718,2.2707,2.2781,2.3005,2.3154,2.3302,2.36,2.3822,2.4044,2.4341,2.4488,2.4636,2.4636,2.469,2.4756,2.4756,2.4943,2.5184,2.505,2.5371,2.5772,2.5424,2.624,2.7154,2.6281,2.7316,2.9109,3.1097,3.2442,3.3712,3.5193,3.5705,3.5779,3.5779,3.6091,3.6494,3.6916,3.7319,3.7704,3.8108,3.8181,3.8401,3.9043,3.9538,3.9968,4.0079,4.0363,4.0602,4.0473,4.0565,4.0639,4.0639,4.0639,4.0749,4.1042,4.1378,4.1378,4.1145,4.1816,4.2291,4.2405,4.3109,4.3741,4.4129,4.4439,4.4593,4.4593,4.471,4.4853,4.5024,4.511,4.5195,4.5195,4.5078,4.5019,4.5039,4.5156,4.5391,4.5683,4.5801,4.6035,4.623,4.5605,4.5312,4.5176,0.9822,0.9822,0.9822,0.9822,0.9822,0.9822,0.9822,0.9822,0.9822,0.9822,0.9889,1.0092,1.0446,1.0636,1.1392,1.3084,1.5039,1.6954,1.8877,2.1067,2.2443,2.2697,2.2951,2.2975,2.2721,2.2479,2.2271,2.2271,2.2271,2.2271,2.2271,2.2346,2.2334,2.2334,2.2334,2.2558,2.293,2.293,2.3377,2.397,2.4044,2.4267,2.4636,2.4636,2.481,2.5064,2.5064,2.5251,2.5545,2.5825,2.5745,2.5571,2.5852,2.5621,2.5574,2.7712,2.9563,3.1344,3.3053,3.3524,3.3891,3.5265,3.5907,3.6182,3.6182,3.6512,3.6934,3.7319,3.7723,3.8126,3.8548,3.8542,3.9025,4.0217,4.0171,4.006,4.04,4.0785,4.0895,4.051,4.0804,4.1042,4.1042,4.1042,4.1042,4.106,4.1145,4.1145,4.106,4.1462,4.19,4.2414,4.2754,4.3197,4.3595,4.3633,4.3652,4.3633,4.4049,4.4519,4.5059,4.5491,4.5664,4.5625,4.5215,4.5019,4.5058,4.5488,4.5664,4.5723,4.6133,4.6289,4.6289,4.6269,4.5996,4.5586,0.9822,0.9822,0.9822,0.9822,0.9822,0.9822,0.9822,0.9822,0.9822,0.9822,0.9869,0.0,0.0,0.0,0.0,0.0,1.4276,1.6125,1.6528,1.9798,2.1788,2.1873,2.2527,2.2903,2.2988,2.2903,2.2854,2.2854,2.2685,2.2685,2.2854,2.2503,2.2527,2.2842,2.2491,2.2505,2.2739,2.2855,2.3329,2.3956,2.4256,2.4674,2.5211,2.5211,2.5277,2.5424,0.0,2.5892,2.5825,2.5919,2.6012,2.6039,2.5758,2.6479,2.7663,2.8405,2.9079,3.0006,3.1606,3.3102,3.4509,3.6008,3.6732,3.7081,3.7338,3.7521,3.7814,3.8475,3.8731,3.8951,3.9355,3.9428,3.9648,4.0363,4.0345,4.04,4.0804,4.0969,4.1005,4.0877,4.0987,4.106,4.106,4.106,4.106,4.106,4.1378,4.1508,4.1464,4.1888,4.231,4.2739,4.3173,4.3552,4.3963,4.4333,4.466,4.4903,4.5056,4.5395,4.5832,4.5658,4.5832,4.6094,4.5937,4.5879,4.5879,4.6035,4.6094,4.6074,4.5937,4.5879,4.5859,4.5566,4.5371,4.5254,0.0,0.9822,0.9822,0.9822,0.9822,0.0,0.0,0.0,0.0,0.0,0.0,0.0,0.0,0.0,0.0,0.0,0.0,1.5405,1.5348,1.8921,2.1172,2.1462,2.2138,2.2661,2.283,2.2842,2.2891,2.2975,2.2721,2.277,2.3109,2.277,2.2794,2.3109,2.277,2.2709,2.2854,2.2912,2.3392,2.4074,2.4096,2.4573,2.5197,2.5197,2.5197,0.0,2.6106,2.6266,2.6146,2.6346,2.6346,2.6172,2.5785,2.6534,2.7587,2.7925,2.8482,2.9438,3.1183,3.31,3.4942,3.6569,3.7338,3.7704,3.7961,3.8126,3.8383,3.8915,3.9135,3.9355,3.984,3.996,4.0198,4.062,4.0804,4.095,4.1042,4.1189,4.1225,4.1163,4.106,4.106,4.106,4.106,4.106,4.106,4.1442,4.173,4.1666,4.2069,4.2567,4.3149,4.3254,4.3634,4.4241,4.4328,4.4636,4.5078,4.5431,4.5783,4.6046,4.5958,4.6046,4.6308,4.6308,4.6308,4.6289,4.6133,4.6074,4.6035,4.5605,4.5449,4.541,4.5117,4.4922,4.4863,0.0,0.0,0.9822,0.0,0.0,0.0,0.0,0.0,0.0,0.0,0.0,0.0,0.0,0.0,0.0,0.0,0.0,0.0,1.5413,1.8497,0.0,2.1378,2.1921,2.2285,2.2321,2.2259,2.2467,2.2733,2.2479,2.2612,2.3097,2.3072,2.3072,2.3072,2.3048,2.3048,2.306,2.3048,2.351,2.4176,2.3667,2.3909,2.4663,2.469,2.4703,2.485,2.5985,2.6373,2.6453,2.7028,2.6733,2.6037,2.609,2.5825,2.5745,2.6613,2.8095,2.9873,3.1873,3.3549,3.5228,3.6891,3.7586,3.7897,3.7915,3.8207,3.8499,3.8652,3.8926,3.9329,3.9868,4.0354,4.0657,4.106,4.1464,4.1574,4.1152,4.1445,4.1555,4.117,4.1163,4.1079,4.1097,4.1079,4.1079,4.1097,4.1464,4.1702,4.1739,4.2106,4.2752,4.3578,4.3158,4.3361,4.4193,4.3767,4.3837,4.4282,4.5166,4.5607,4.5695,4.6046,4.6308,4.6308,4.6328,4.6328,4.6308,4.5918,4.5781,4.5723,4.5273,4.5098,4.5078,4.5039,4.4766,4.4492,0.0,0.0,0.0,0.0,0.0,0.0,0.0,0.0,0.0,0.0,0.0,0.0,0.0,0.0,0.0,0.0,0.0,0.0,1.4852,1.7915,0.0,0.0,0.0,0.0,0.0,0.0,0.0,2.2733,2.2661,2.2697,2.2818,2.243,2.2271,2.2515,2.2128,2.1993,2.2162,2.1957,2.2436,2.3375,0.0,2.4282,2.501,0.0,2.5625,2.5692,2.6199,2.6253,2.6119,2.6493,2.6319,2.6144,2.6734,2.6734,2.6613,2.7281,2.9223,3.1355,3.219,3.3549,3.4967,3.5713,3.6236,3.6585,3.6881,3.6794,3.7319,3.9568,3.8812,3.8547,4.1239,4.15,4.1519,4.1904,4.2051,4.1996,4.1592,4.1629,4.1757,4.1941,4.1427,4.1189,4.15,4.1244,4.1189,4.15,4.1629,4.1941,4.2527,4.2656,4.3001,4.3494,4.3423,4.3478,4.3678,4.4282,4.4813,4.5255,4.5519,4.5783,4.6133,4.587,4.5958,4.6328,4.6641,4.6777,4.6797,4.7012,4.709,4.7012,4.6269,4.5976,4.5898,4.5254,4.4961,4.4883,0.0,0.0,0.0,0.0,0.0,0.0,0.0,0.0,0.0,0.0,0.0,0.0,0.0,0.0,0.0,0.0,0.0,0.0,0.0,1.7412,1.9314,0.0,0.0,0.0,0.0,0.0,0.0,0.0,0.0,0.0,2.2903,2.2645,2.2645,2.2778,2.2597,2.2536,2.2561,2.2404,0.0,0.0,0.0,0.0,0.0,0.0,2.4716,2.475,2.5224,2.5491,2.5611,2.5905,2.5985,2.6184,2.6987,2.6974,2.6747,2.7335,2.911,3.1069,3.2142,3.3224,3.4396,3.5395,3.6097,3.6263,3.5558,3.5834,3.6817,3.866,3.8045,3.8171,4.1245,4.1555,4.161,4.2179,4.2124,4.1996,4.1959,4.1794,4.1831,4.2234,4.1555,4.1225,4.1647,4.1482,4.15,4.1922,4.1941,4.2216,4.2839,4.3041,4.3243,4.3481,4.3499,4.3589,4.3856,4.4725,4.5343,4.5607,4.5783,4.6143,4.6582,4.6318,4.6415,4.6875,4.7109,4.7207,4.7226,4.7266,4.7285,4.7226,4.6562,4.6308,4.625,4.5762,4.5586,4.5605,0.0,0.0,0.0,0.0,0.0,0.0,0.0,0.0,0.0,0.0,0.9917,0.9883,0.9883,0.9863,0.0,0.0,0.0,0.0,0.0,0.0,1.8698,0.0,0.0,0.0,0.0,0.0,2.151,2.1993,2.214,0.0,0.0,0.0,0.0,0.0,0.0,0.0,0.0,0.0,0.0,0.0,0.0,0.0,0.0,0.0,0.0,2.3086,2.3915,2.4583,2.5117,2.5371,2.5678,2.6184,2.6987,2.6894,2.656,2.7148,2.8518,3.0108,3.1791,3.2532,3.3296,3.4929,3.5872,3.5891,3.3965,3.4815,3.6106,3.6726,3.671,3.7433,4.0295,4.0741,4.1063,4.2142,4.1996,4.1904,4.2307,4.2014,4.1941,4.2381,4.1666,4.1299,4.1721,4.1776,4.1904,4.2252,4.2326,4.2527,4.2931,4.3298,4.3499,4.3499,4.3499,4.3767,4.4282,4.5078,4.5607,4.5695,4.6192,4.6582,4.6933,4.6992,4.7226,4.7578,4.7637,4.7656,4.7637,4.7324,4.7187,4.7148,4.6719,4.6562,4.6562,4.6562,4.6562,4.6621,0.0,0.0,0.0,0.0,0.0,0.0,0.0,0.0,0.0,0.0,1.0432,1.0202,0.0,0.0,0.0,0.0,0.0,0.0,0.0,0.0,0.0,1.842,0.0,0.0,0.0,1.9881,2.0315,2.0617,2.1052,2.1389,0.0,0.0,0.0,0.0,0.0,0.0,0.0,0.0,0.0,0.0,0.0,0.0,0.0,0.0,0.0,0.0,2.4062,2.4583,2.509,2.5144,2.5504,2.6184,2.6987,2.7028,2.6867,2.7455,2.8839,3.0203,3.061,3.1017,3.1519,3.1924,3.2309,3.2579,3.2249,3.2334,3.3105,3.4965,3.419,3.4392,3.8511,3.901,3.9577,4.1883,4.2216,4.2307,4.2711,4.2417,4.2454,4.3188,4.2271,4.1739,4.2142,4.2179,4.2197,4.2271,4.2582,4.2949,4.3371,4.3444,4.3499,4.3499,4.3499,4.3926,4.4813,4.4902,4.5431,4.6221,4.6572,4.6855,4.6933,4.7305,4.75,4.7598,4.7949,4.8105,4.8125,4.8398,4.8516,4.8476,4.8047,4.7871,4.7871,4.7871,4.7871,4.793,0.0,0.0,0.0,0.0,0.0,0.0,0.0,1.086,1.105,1.1579,1.1389,1.1056,1.067,1.0351,1.0385,0.0,0.0,0.0,0.0,0.0,0.0,0.0,0.0,0.0,0.0,1.947,1.9869,2.0279,0.0,2.0859,2.0929,2.1207,2.1257,2.1257,2.1269,2.1197,2.111,0.0,0.0,2.1556,2.1884,2.2108,0.0,0.0,0.0,0.0,2.3166,2.3848,2.4649,2.4796,2.5344,2.6184,2.6987,2.7175,2.7134,2.7575,2.8385,2.9395,3.0306,3.0281,3.0267,3.1179,3.1885,3.1888,3.0634,3.1067,3.204,3.3117,3.2513,3.3188,3.7503,3.8031,3.8694,4.1536,4.1794,4.1922,4.2747,4.2527,4.2491,4.3096,4.2472,4.1996,4.1977,4.2344,4.2491,4.2289,4.2839,4.3279,4.3481,4.3499,4.3499,4.3499,4.3748,4.4104,4.4548,4.499,4.5615,4.6268,4.6659,4.7168,4.7598,4.7812,4.8027,4.8262,4.8457,4.8535,4.8555,4.8769,4.8867,4.8828,4.8633,4.8535,4.8574,4.8808,4.8887,4.8984,0.0,0.0,0.0,0.0,0.0,0.0,0.0,1.1416,1.1667,1.2305,1.2223,1.1877,1.1253,1.0758,1.0955,0.0,0.0,0.0,0.0,0.0,0.0,0.0,0.0,0.0,0.0,0.0,0.0,2.0026,2.0279,0.0,0.0,0.0,0.0,0.0,2.129,2.1242,2.1163,2.1262,2.1502,0.0,0.0,2.1727,0.0,0.0,0.0,0.0,0.0,2.3153,2.4155,2.4449,2.509,2.5919,2.6734,2.7108,2.7321,2.7615,2.7949,2.8555,2.99,2.9589,2.9366,3.0651,3.1468,3.1376,2.9325,3.0035,3.1195,3.1051,3.0879,3.2065,3.6074,3.6592,3.746,4.065,4.1042,4.1354,4.2564,4.2472,4.2417,4.2821,4.2601,4.2216,4.1739,4.2399,4.2692,4.2307,4.3041,4.3499,4.3499,4.3499,4.3499,4.3499,4.3856,4.4104,4.437,4.5154,4.5807,4.64,4.6931,4.75,4.8086,4.8262,4.8476,4.873,4.8808,4.8867,4.8867,4.8867,4.8867,4.8867,4.8867,4.8926,4.9062,4.9492,4.9726,4.9902,0.0,0.0,0.0,0.0,0.0,0.0,0.0,1.1511,1.1864,1.2596,1.2447,1.2189,1.1979,1.1507,1.1514,0.0,0.0,0.0,0.0,0.0,0.0,0.0,0.0,0.0,0.0,0.0,0.0,1.9181,1.9446,0.0,0.0,0.0,0.0,0.0,0.0,2.1046,2.1255,2.0816,0.0,0.0,0.0,0.0,0.0,0.0,0.0,0.0,0.0,2.302,2.3848,2.4142,2.4649,2.5264,2.5879,2.6627,2.7321,2.7615,2.811,2.8583,2.847,2.8749,2.8978,2.8883,2.9144,2.9125,2.8449,2.8816,2.9131,2.8663,2.8672,2.9873,3.301,3.3672,3.503,3.8789,4.0052,4.095,4.2161,4.2307,4.2417,4.2821,4.2839,4.2509,4.1757,4.2399,4.2692,4.2307,4.3041,4.3499,4.3499,4.3499,4.3499,4.3499,4.3499,4.3926,4.4813,4.5261,4.6006,4.6845,4.7715,4.793,4.7656,4.8437,4.8613,4.8281,4.8691,4.8867,4.8867,4.8867,4.8867,4.8867,4.8867,4.9101,4.9512,4.9961,5.0351,5.0742,0.0,0.0,0.0,0.0,0.0,0.0,1.164,1.1694,1.1986,1.3003,1.2874,1.2637,1.2481,1.3057,1.3476,1.3737,0.0,0.0,0.0,0.0,0.0,0.0,0.0,0.0,0.0,0.0,1.8807,1.9072,1.9181,0.0,0.0,0.0,0.0,0.0,0.0,2.0341,2.0316,2.049,0.0,0.0,0.0,0.0,0.0,0.0,0.0,0.0,0.0,0.0,2.3808,2.4102,2.4596,2.5157,2.5558,2.6172,2.6827,2.7295,2.7736,2.811,2.835,2.8604,2.8791,2.8858,2.8818,2.8671,2.8328,2.819,2.811,2.7696,2.7709,2.8813,3.2084,3.2952,3.434,3.7903,3.9612,4.0804,4.1794,4.2326,4.2692,4.2858,4.3096,4.2729,4.1427,4.2252,4.2803,4.2637,4.3169,4.3499,4.3499,4.3499,4.3499,4.3499,4.3499,4.3856,4.4459,4.5121,4.598,4.6876,4.7566,4.7871,4.7969,4.8047,4.7988,4.7832,4.8008,4.8086,4.8105,4.8359,4.8476,4.8516,4.9062,4.9375,4.9609,5.0312,5.0664,5.0859,0.0,0.0,0.0,0.0,0.0,1.0683,1.1708,1.1796,1.2081,1.301,1.2996,1.2834,1.2678,1.3892,1.4787,1.4818,1.4971,0.0,0.0,0.0,0.0,0.0,0.0,0.0,0.0,0.0,1.8807,1.9072,1.9072,1.9264,0.0,0.0,1.9775,1.9775,0.0,0.0,0.0,0.0,0.0,0.0,0.0,0.0,0.0,0.0,0.0,0.0,0.0,0.0,0.0,0.0,0.0,2.489,2.5264,2.5732,2.6253,2.6841,2.7335,2.7789,2.8217,2.8404,2.8524,2.8724,2.8551,2.8257,2.7949,2.7655,2.7362,2.7068,2.7001,2.8036,3.1417,3.2507,3.3928,3.727,3.9208,4.0565,4.139,4.2197,4.2784,4.3023,4.3426,4.3078,4.1574,4.2197,4.2747,4.2858,4.3261,4.3499,4.3499,4.3499,4.3499,4.3499,4.3678,4.3926,4.437,4.5432,4.6222,4.6934,4.7456,4.7793,4.7832,4.7656,4.75,4.7402,4.7656,4.7773,4.7793,4.8223,4.8398,4.8457,4.9082,4.9492,4.9785,5.0391,5.0781,5.1035,0.0,0.0,0.0,0.0,0.0,0.0,1.1307,1.1775,1.2169,1.2474,1.2637,1.2671,1.2522,1.3588,1.4648,1.5519,1.6665,0.0,0.0,0.0,0.0,0.0,0.0,0.0,0.0,0.0,1.8807,1.9072,1.9072,1.9264,1.9647,1.9915,2.0106,2.0106,0.0,0.0,0.0,0.0,0.0,0.0,0.0,0.0,2.1149,0.0,0.0,0.0,0.0,0.0,0.0,0.0,0.0,0.0,0.0,2.5291,2.5638,2.6226,2.7014,2.7696,2.7709,2.7923,2.8234,2.8234,2.7923,2.7629,2.7348,2.7041,2.6747,2.6453,2.64,2.7398,3.07,3.1966,3.3549,3.6873,3.8786,4.0107,4.095,4.1776,4.2582,4.3389,4.3829,4.3609,4.2381,4.2271,4.2436,4.2839,4.3261,4.3499,4.3499,4.3499,4.3499,4.3499,4.3926,4.4459,4.4902,4.6255,4.6915,4.6953,4.7793,4.7754,4.6953,4.7383,4.7344,4.6992,4.7832,4.8203,4.8242,4.8672,4.8848,4.8848,4.8867,4.9394,5.0176,5.0176,5.0723,5.1426,0.0,0.0,0.0,0.0,0.0,0.0,0.0,1.1274,1.1477,1.1979,1.1999,1.2067,1.2332,1.3511,1.4339,1.4302,0.0,0.0,0.0,0.0,0.0,0.0,0.0,0.0,0.0,1.9036,1.9577,2.036,2.0478,2.0901,2.1507,2.1641,2.1434,2.1071,2.1385,2.1279,0.0,0.0,0.0,0.0,0.0,2.1109,2.1162,0.0,0.0,0.0,0.0,0.0,0.0,0.0,0.0,0.0,0.0,0.0,0.0,2.5678,2.6413,2.7094,2.7094,2.7321,2.7549,2.7549,2.7321,2.7028,2.6734,2.644,2.6146,2.5852,2.5959,2.7156,3.0418,3.179,3.3467,3.6511,3.8603,4.0033,4.0584,4.1592,4.2472,4.3004,4.2692,4.2509,4.2656,4.2436,4.2436,4.2839,4.3261,4.3499,4.3499,4.3499,4.3499,4.3499,4.3926,4.4459,4.4902,4.5878,4.676,4.7383,4.7344,4.75,4.7793,4.7344,4.7226,4.7383,4.7656,4.7773,4.7812,4.8242,4.8594,4.8926,4.9531,5.0117,5.0644,5.0937,5.1211,5.1426,0.0,0.0,0.0,0.0,0.0,0.0,0.0,1.1016,1.1158,1.1531,1.1504,1.1619,1.2067,1.3237,1.4106,1.441,0.0,0.0,0.0,0.0,0.0,0.0,0.0,0.0,1.8976,1.9528,2.0214,2.104,2.1452,2.1994,2.2549,2.2654,2.2405,2.1856,2.2071,2.1846,0.0,0.0,0.0,0.0,2.139,2.1376,2.1336,0.0,0.0,0.0,0.0,0.0,0.0,0.0,0.0,0.0,0.0,0.0,0.0,0.0,2.5812,2.6373,2.66,2.6867,2.7094,2.7094,2.6961,2.6774,2.66,2.6239,2.5905,2.5718,2.5825,2.7017,3.0262,3.19,3.3793,3.6981,3.897,4.0327,4.1042,4.1794,4.2546,4.3243,4.2491,4.2289,4.3243,4.2692,4.2509,4.3059,4.3353,4.3499,4.3499,4.3499,4.3499,4.3499,4.3926,4.4459,4.4902,4.5744,4.6625,4.7324,4.7051,4.7207,4.7695,4.7012,4.6933,4.7344,4.75,4.7773,0.0,4.8516,4.8867,4.918,4.9902,5.0332,5.0625,5.1035,5.1289,5.1426,0.0,0.0,0.0,0.0,0.0,0.0,0.0,1.0955,1.1131,1.1131,1.1131,1.1294,1.1721,1.2842,1.4062,1.5436,0.0,0.0,0.0,0.0,0.0,0.0,0.0,0.0,1.9584,2.0195,2.0816,2.1445,2.2141,2.2634,2.2941,2.3203,2.302,2.2539,2.2496,2.2256,2.1947,2.2244,2.2044,2.1641,2.1844,2.179,0.0,0.0,0.0,0.0,0.0,0.0,0.0,0.0,0.0,0.0,0.0,0.0,0.0,0.0,0.0,0.0,0.0,2.652,2.676,2.6787,2.6787,2.6787,2.676,2.636,0.0,2.5932,2.6037,2.7045,3.0369,3.2076,3.4239,3.7993,3.9667,4.0877,4.2032,4.2234,4.2711,4.3866,4.2949,4.2692,4.3884,4.2949,4.2619,4.3426,4.3499,4.3499,4.3499,4.3499,4.3499,4.3499,4.3926,4.437,4.4902,4.5795,4.647,4.6973,4.6953,4.6973,4.7051,4.6621,4.666,4.709,4.7519,4.8164,4.8945,4.9394,4.959,4.9648,5.0058,5.0234,5.0312,5.0703,5.1094,5.1426,0.0,0.0,0.0,0.0,0.0,0.0,0.0,0.0,0.0,0.0,1.0826,1.0907,1.1062,1.2232,1.3611,0.0,0.0,0.0,0.0,0.0,0.0,0.0,0.0,0.0,2.0545,2.0885,2.1742,2.3158,2.3528,2.3996,2.4589,2.4581,2.4302,2.379,2.327,2.2791,2.2257,2.1951,2.1748,2.1628,2.1695,2.1681,0.0,0.0,0.0,0.0,2.2752,2.2928,0.0,0.0,0.0,0.0,0.0,0.0,0.0,0.0,2.497,2.4917,2.5291,0.0,2.6213,2.644,2.6493,2.6426,0.0,2.6226,2.6159,2.5705,2.5972,2.7365,3.0745,3.206,3.3958,3.7957,3.9667,4.0675,4.1262,4.1886,4.2491,4.3078,4.2362,4.2179,4.3059,4.2619,4.2619,4.3426,4.3499,4.3499,4.3499,4.3499,4.3499,4.3499,4.3589,4.4015,4.4902,4.5791,4.6689,4.7422,4.709,4.7441,4.8398,4.7949,4.7988,4.8437,4.8867,4.918,4.9414,4.9844,5.0215,5.0508,5.0625,5.0859,5.1152,5.125,5.1348,5.1426,0.0,0.0,0.0,0.0,0.0,0.0,0.0,0.0,0.0,0.0,0.0,0.0,0.0,0.0,0.0,0.0,0.0,0.0,0.0,0.0,0.0,0.0,0.0,2.0835,2.1438,2.1994,2.2903,2.4079,2.4385,2.4847,2.5277,2.5277,2.5037,2.4569,2.3848,2.3273,2.2819,2.2498,2.2205,2.1964,2.2098,0.0,0.0,0.0,0.0,0.0,2.2806,2.2928,0.0,2.338,2.3527,2.3607,0.0,0.0,0.0,0.0,2.4663,2.4703,2.4997,2.5411,2.5785,2.5945,2.6293,2.6547,2.6386,2.6573,2.6734,2.656,2.6774,2.8022,3.1496,3.2826,3.475,3.8535,4.0217,4.1225,4.1812,4.2106,4.2417,4.2821,4.2326,4.2197,4.2803,4.2674,4.2803,4.3444,4.3499,4.3499,4.3499,4.3499,4.3499,4.3499,4.3678,4.4193,4.4902,4.5431,4.6296,4.7578,4.7129,4.75,4.8535,4.8105,4.8262,4.8867,4.9121,4.9551,5.0137,5.0371,5.0605,5.082,5.1016,5.1113,5.1172,5.1367,5.1426,5.1426,0.0,0.0,0.0,0.0,0.0,0.0,0.0,0.0,0.0,0.0,0.0,0.0,0.0,0.0,0.0,0.0,0.0,0.0,0.0,0.0,0.0,0.0,2.1021,2.1765,2.2353,2.3259,2.394,2.4625,2.5059,2.5424,2.5718,2.5718,2.5464,2.4983,2.4195,2.3647,2.3313,2.3233,2.2886,2.2445,2.2699,0.0,0.0,0.0,0.0,0.0,0.0,0.0,0.0,2.346,2.3661,2.3741,2.3995,0.0,0.0,0.0,0.0,0.0,2.505,2.5358,2.5585,2.5585,2.6172,2.676,2.676,2.7054,2.7375,2.7535,2.7669,2.8827,3.232,3.3765,3.5691,3.9367,4.106,4.2106,4.2766,4.2527,4.2381,4.2656,4.2399,4.2362,4.2821,4.2931,4.3151,4.3646,4.3683,4.3683,4.3683,4.3609,4.3609,4.3664,4.4056,4.4553,4.4996,4.5028,4.5852,4.7578,4.7207,4.748,4.8301,4.8008,4.8281,4.8965,4.9101,4.9785,5.0801,5.0879,5.0898,5.0937,5.1289,5.1211,5.0937,5.1308,5.1426,5.1426,0.0,0.0,0.0,0.0,0.0,0.0,0.0,0.0,0.0,0.0,0.0,0.0,0.0,0.0,0.0,0.0,0.0,0.0,0.0,0.0,0.0,2.147,2.1881,2.264,2.3754,2.3879,2.4284,2.5002,2.5825,2.6333,2.6627,2.6627,2.5932,2.469,2.4302,2.3834,2.33,2.2779,2.2498,2.2418,2.2472,0.0,0.0,0.0,0.0,0.0,0.0,0.0,0.0,2.3035,2.318,2.3407,2.3447,0.0,0.0,0.0,0.0,0.0,2.5304,2.5665,2.5892,2.5892,2.6172,2.6453,2.6453,2.7068,2.7509,2.7054,2.7549,2.923,3.2827,3.3608,3.5345,4.0119,4.1886,4.2729,4.2858,4.2527,4.2179,4.1904,4.1812,4.2069,4.2803,4.3188,4.3701,4.4435,4.449,4.449,4.449,4.4178,4.4141,4.4471,4.4612,4.4965,4.5413,4.5426,4.6207,4.7578,4.7519,4.793,4.8769,4.9082,4.9297,4.9473,5.0195,5.0625,5.084,5.1191,5.1328,5.1348,5.1406,5.1387,5.1348,5.1406,5.1426,5.1426,0.0,0.0,0.0,0.0,0.0,0.0,0.0,0.0,0.0,0.0,0.0,0.0,0.0,0.0,0.0,0.0,0.0,0.0,0.0,0.0,2.1525,2.2588,2.2758,2.3308,2.4253,2.4648,2.5103,2.5785,2.6346,2.6854,2.7281,2.6814,2.6146,2.5317,2.4716,2.4195,2.3768,2.334,2.2966,2.2659,0.0,0.0,0.0,0.0,0.0,0.0,0.0,0.0,0.0,0.0,2.3313,2.3541,2.338,0.0,0.0,0.0,0.0,0.0,2.5157,2.5491,2.5825,2.6306,2.7671,2.8613,2.758,2.8717,2.9621,2.8524,2.9418,3.1222,3.3835,3.5485,3.7725,4.1487,4.2142,4.2381,4.2803,4.2344,4.1977,4.1996,4.2197,4.2564,4.3151,4.3573,4.405,4.4636,4.4948,4.5131,4.5131,4.5146,4.5218,4.5112,4.54,4.5555,4.5508,4.5993,4.6741,4.7578,4.7812,4.8379,4.9219,4.9433,4.9785,5.0234,5.0644,5.0937,5.1152,5.1348,5.1426,5.1426,5.1426,5.1426,5.1426,5.1426,5.1426,5.1426,0.0,0.0,0.0,0.0,0.0,0.0,0.0,0.0,0.0,0.0,0.0,0.0,0.0,0.0,0.0,0.0,0.0,0.0,0.0,2.1241,2.2083,2.318,2.3287,2.3758,2.4704,2.5312,2.5905,2.6493,2.7068,2.7495,2.7789,2.7108,2.6493,2.5996,2.517,2.4636,2.4275,2.3848,2.3394,2.2966,0.0,0.0,0.0,0.0,0.0,0.0,0.0,0.0,0.0,0.0,0.0,0.0,0.0,0.0,0.0,2.3928,2.4275,2.4917,2.5291,2.5651,2.6132,2.7014,2.8633,2.977,2.8433,3.0156,3.1541,3.0194,3.1569,3.3629,3.5355,3.8011,4.0507,4.2462,4.2307,4.2106,4.2527,4.2069,4.1794,4.2106,4.2491,4.2968,4.3573,4.3995,4.4435,4.4911,4.5317,4.5592,4.5684,4.5884,4.5957,4.5868,4.614,4.6223,4.5972,4.6934,4.7412,4.7578,4.8105,4.8769,4.9531,4.9726,5.0176,5.082,5.0898,5.1133,5.1426,5.1426,5.1426,5.1426,5.1426,5.1426,5.1426,5.1426,5.1426,5.1445,0.0,0.0,0.0,0.0,0.0,0.0,0.0,0.0,0.0,0.0,0.0,0.0,0.0,0.0,0.0,0.0,0.0,0.0,2.0916,2.1608,2.2258,2.2873,2.318,2.4008,2.5375,2.5772,2.6213,2.6787,2.819,2.8617,2.8194,2.8127,2.7363,2.5945,2.5598,2.513,2.4556,2.3714,2.334,2.3273,2.2979,0.0,0.0,0.0,0.0,0.0,0.0,0.0,0.0,0.0,0.0,0.0,0.0,0.0,2.4168,2.3861,2.4569,2.5571,2.6146,2.6707,2.7362,2.8257,2.798,2.7633,2.81,3.0339,3.2118,3.1446,3.3481,3.5951,3.7792,4.0558,4.2587,4.2362,4.2582,4.2546,4.1867,4.1721,4.1702,4.1721,4.2087,4.2766,4.3921,4.4398,4.4948,4.5737,4.581,4.6073,4.6448,4.5816,4.5983,4.7195,4.6909,4.6957,4.7376,4.8279,4.8359,4.7598,4.8418,4.9062,4.9551,5.0351,5.0742,5.082,5.1211,5.1406,5.1426,5.1426,5.1426,5.1426,5.1426,5.1426,5.1426,5.1426,5.1426,5.1484,0.0,0.0,0.0,0.0,0.0,0.0,0.0,0.0,0.0,0.0,0.0,0.0,0.0,0.0,0.0,0.0,0.0,0.0,2.1343,2.1752,2.2245,2.2832,2.2979,2.3728,2.5211,2.5705,2.6586,2.7642,2.8577,2.8644,2.7856,2.7495,2.6934,2.6199,2.5718,2.5184,2.4609,2.4088,2.3554,2.3033,2.2913,2.2928,0.0,0.0,0.0,0.0,0.0,0.0,0.0,0.0,2.3193,2.3554,2.3247,2.3754,2.4449,2.4342,2.4877,2.5638,2.6226,2.6814,2.7482,2.8377,2.8484,2.8852,3.0735,3.2773,3.4396,3.4638,3.6296,3.8404,4.0751,4.1909,4.2527,4.2619,4.2362,4.2032,4.1739,4.1684,4.1776,4.2032,4.2399,4.3114,4.4325,4.4581,4.5003,4.5828,4.6447,4.6728,4.6635,4.7231,4.749,4.7382,4.788,4.7926,4.7473,4.8449,4.8691,4.8379,4.8984,4.9512,4.9961,5.0547,5.0957,5.1211,5.1367,5.1426,5.1426,5.1426,5.1426,5.1426,5.1426,5.1426,5.1465,5.1738,5.1836,5.1894,0.0,0.0,0.0,0.0,0.0,0.0,0.0,0.0,0.0,0.0,0.0,0.0,0.0,0.0,0.0,0.0,0.0,0.0,2.167,2.1871,2.2298,2.2979,2.31,2.3714,2.4917,2.5611,2.6707,2.8003,2.8417,2.8257,2.7549,2.6961,2.6533,2.6226,2.5638,2.5157,2.4743,2.4168,2.3567,2.3006,2.2899,2.2928,0.0,0.0,0.0,0.0,0.0,0.0,0.0,0.0,2.3207,2.3581,2.3273,2.3781,2.4516,2.4609,2.5251,2.6039,2.6533,2.7228,2.7976,2.8591,2.9453,3.0913,3.3352,3.4865,3.6043,3.7159,3.8845,4.0683,4.259,4.2656,4.2509,4.2656,4.2124,4.1684,4.1684,4.1684,4.1886,4.2399,4.2821,4.3481,4.4563,4.4783,4.515,4.5828,4.6635,4.7009,4.6635,4.755,4.8034,4.7681,4.8127,4.825,4.796,4.8619,4.8926,4.9082,4.9512,4.9961,5.0391,5.082,5.1152,5.1426,5.1426,5.1426,5.1426,5.1426,5.1426,5.1426,5.1426,5.1523,5.168,5.1973,5.2168,5.2344,0.0,0.0,0.0,0.0,0.0,0.0,0.0,0.0,0.0,0.0,0.0,0.0,0.0,0.0,0.0,0.0,2.1109,2.1363,2.1951,2.1991,2.2378,2.3287,2.3607,2.4035,2.4609,2.5504,2.6533,2.7696,2.7696,2.7549,2.7241,2.6667,2.6239,2.5996,2.5344,2.5077,2.4997,2.3821,2.3327,2.33,2.2993,2.2928,2.2928,0.0,0.0,0.0,0.0,0.0,0.0,0.0,2.3073,2.3273,2.2966,2.3487,2.4262,2.4556,2.5678,2.6894,2.7188,2.8136,2.9045,2.9045,3.0955,3.35,3.5571,3.6091,3.6619,3.8489,4.1052,4.2876,4.2858,4.2858,4.2729,4.2344,4.1941,4.1684,4.1684,4.1702,4.1996,4.2784,4.3243,4.3811,4.46,4.5058,4.5462,4.5865,4.6353,4.6635,4.6635,4.6635,4.7102,4.8034,4.7681,4.7848,4.8867,4.8867,4.9082,4.9531,4.998,5.0391,5.082,5.123,5.1426,5.1426,5.1426,5.1426,5.1426,5.1426,5.1426,5.1426,5.1426,5.1699,5.209,5.209,5.2363,5.2773,0.0,0.0,0.0,0.0,0.0,0.0,0.0,0.0,0.0,0.0,0.0,0.0,0.0,0.0,0.0,0.0,0.0,2.1363,2.1951,2.1991,2.2285,2.2966,2.3086,2.342,2.4022,2.5291,2.6506,2.7402,2.7802,2.7524,2.6425,2.6587,2.6213,2.5331,2.5157,2.485,2.4409,2.3647,2.3207,2.3006,2.314,2.306,2.2886,0.0,0.0,0.0,0.0,0.0,0.0,0.0,0.0,0.0,2.3287,2.3941,2.4877,2.517,2.5999,2.6974,2.7696,2.8444,2.9138,2.9553,3.1175,3.3368,3.587,3.6352,3.6966,3.9202,4.1569,4.3224,4.2913,4.2637,4.2326,4.1922,4.1757,4.1684,4.1684,4.2161,4.2601,4.2839,4.3481,4.4105,4.4618,4.5058,4.5462,4.5865,4.6353,4.6447,4.6166,4.7102,4.7662,4.7588,4.8127,4.859,4.8867,4.8867,4.9238,4.998,5.0117,5.0391,5.082,5.123,5.1426,5.1426,5.1426,5.1426,5.1426,5.1426,5.1426,5.1426,5.1426,5.1699,5.2109,5.2422,5.2793,5.3223,0.0,0.0,0.0,0.0,0.0,0.0,0.0,0.0,1.9775,1.9775,2.0284,2.0602,0.0,0.0,0.0,2.1109,2.1109,2.1363,2.1951,2.1991,2.2298,2.302,2.3046,2.3327,2.3928,2.5037,2.5919,2.6573,2.7281,2.7108,2.6132,2.6493,2.6213,2.5424,2.5424,2.517,2.4676,2.3968,2.35,2.3233,2.33,2.322,2.3073,0.0,0.0,0.0,0.0,0.0,0.0,0.0,0.0,0.0,2.338,2.4048,2.5024,2.5678,2.648,2.7388,2.8404,2.9018,2.9499,2.9967,3.2108,3.4714,3.7274,3.8435,3.9392,4.0806,4.237,4.3426,4.3169,4.2656,4.2197,4.1959,4.1794,4.1739,4.1904,4.2472,4.2931,4.3096,4.3829,4.4416,4.4655,4.5187,4.5627,4.5865,4.6541,4.6728,4.6166,4.7196,4.7755,4.7681,4.8127,4.8497,4.8867,4.9043,4.9473,5.0176,5.0351,5.0644,5.1055,5.1308,5.1426,5.1426,5.1426,5.1426,5.1426,5.1426,5.1426,5.1445,5.1621,5.1953,5.2363,5.2617,5.3105,5.3633,0.0,0.0,0.0,0.0,0.0,0.0,0.0,1.9903,2.017,2.017,2.0425,2.0666,0.0,0.0,0.0,2.1109,2.1109,2.1349,2.1911,2.1977,2.2365,2.3207,2.33,2.3594,2.4155,2.4743,2.5184,2.5478,2.6373,2.664,2.6306,2.6413,2.6266,2.5919,2.5919,2.5772,2.5451,2.4543,2.4008,2.3754,2.3474,2.334,2.3287,2.3313,0.0,0.0,0.0,0.0,0.0,0.0,0.0,0.0,2.3327,2.3928,2.485,2.5985,2.6947,2.7909,2.9085,2.9633,2.9953,3.0573,3.362,3.7175,3.9567,4.1586,4.2913,4.2736,4.3136,4.3481,4.3444,4.2803,4.2271,4.2271,4.1977,4.1886,4.2271,4.2674,4.3059,4.3444,4.4196,4.4673,4.4673,4.5407,4.5883,4.5978,4.6728,4.7102,4.6635,4.7102,4.7588,4.8034,4.7662,4.7941,4.8867,4.9297,4.9746,5.0176,5.0605,5.1035,5.1426,5.1426,5.1426,5.1426,5.1426,5.1426,5.1426,5.1426,5.1465,5.1523,5.1933,5.2363,5.2773,5.2773,5.3301,5.3965,0.0,0.0,0.0,0.0,0.0,0.0,1.9979,2.0297,2.0488,2.0488,2.0792,2.0982,2.0982,2.1046,0.0,2.1109,2.1109,2.1256,2.1681,2.1857,2.2178,2.2592,2.3073,2.35,2.3861,2.4436,2.4877,2.517,2.6279,2.644,2.5718,2.664,2.6547,2.5611,2.5611,2.5571,2.5438,2.4329,2.3834,2.3768,2.3701,2.3394,2.2993,2.3233,2.3287,0.0,0.0,0.0,0.0,0.0,0.0,0.0,2.3327,2.3928,2.477,2.5491,2.6493,2.7575,2.8537,2.9179,3.0109,3.2384,3.6286,3.9963,4.1423,4.263,4.2889,4.1314,4.2317,4.3389,4.3059,4.2601,4.2271,4.2271,4.2216,4.2289,4.2674,4.3096,4.3389,4.3481,4.4196,4.4673,4.4673,4.5407,4.6072,4.6447,4.6353,4.6353,4.6635,4.7102,4.7495,4.7588,4.8219,4.8682,4.8867,4.9297,4.9746,5.0176,5.0605,5.1035,5.1426,5.1426,5.1426,5.1426,5.1426,5.1426,5.1426,5.1426,5.1641,5.1953,5.2051,5.2539,5.3223,5.3223,5.3555,5.4023,0.0,0.0,0.0,0.0,0.0,0.0,0.0,0.0,2.1173,2.0895,2.0982,2.1109,2.1109,2.1109,0.0,0.0,2.1109,2.1229,2.1601,2.1762,2.1911,2.2205,2.2645,2.2966,2.3126,2.3981,2.4569,2.4863,2.5625,2.5758,2.5331,2.636,2.6373,2.5518,2.5812,2.5932,2.5879,2.4983,2.4436,2.4168,2.4035,2.3701,2.3313,2.3474,2.3541,2.3514,2.3354,0.0,0.0,0.0,0.0,0.0,0.0,0.0,2.4997,2.5718,2.656,2.7522,2.8711,2.9152,2.9914,3.2739,3.7014,4.0649,4.1055,4.2403,4.3213,4.2192,4.2748,4.3371,4.2949,4.2546,4.2271,4.2271,4.2271,4.2417,4.2803,4.3224,4.3499,4.3499,4.4196,4.4673,4.4673,4.5407,4.6072,4.6541,4.6353,4.6541,4.7289,4.7401,4.7569,4.8127,4.8405,4.8687,4.918,4.9609,5.0058,5.0488,5.0898,5.123,5.1426,5.1426,5.1426,5.1426,5.1426,5.1426,5.1445,5.166,5.1875,5.2129,5.2539,5.2969,5.3359,5.3359,5.3652,5.4004,0.0,0.0,0.0,0.0,0.0,0.0,0.0,0.0,0.0,2.1176,2.1109,2.1109,2.1109,2.1109,2.1109,0.0,0.0,0.0,2.1521,2.1588,2.1775,2.2044,2.2285,2.2445,2.2498,2.3567,2.4222,2.4409,2.4756,2.493,2.4943,2.5825,2.5945,2.5464,2.5999,2.6266,2.6279,2.5692,2.5184,2.4756,2.4422,2.4102,2.3834,2.3794,2.3808,2.3834,2.3794,2.3808,2.3794,2.35,0.0,0.0,0.0,0.0,2.517,2.5999,2.6694,2.7495,2.8871,2.9522,3.0313,3.2595,3.6569,3.9898,3.9912,4.1479,4.3033,4.3392,4.3499,4.3389,4.3041,4.2601,4.2326,4.2454,4.2362,4.2436,4.2913,4.3279,4.3499,4.3499,4.4196,4.4673,4.4673,4.5407,4.6166,4.6728,4.6635,4.7009,4.8053,4.7774,4.7941,4.8775,4.8405,4.8618,4.9512,4.9961,5.0391,5.0801,5.123,5.1426,5.1426,5.1426,5.1426,5.1426,5.1426,5.1465,5.1582,5.1933,5.2168,5.2363,5.3008,5.3301,5.3359,5.3359,5.3594,5.3867,0.0,0.0,0.0,0.0,0.0,0.0,0.0,0.0,0.0,0.0,2.1109,2.1109,2.1109,2.1109,2.1109,2.1109,2.1109,2.1122,2.1162,0.0,0.0,2.2338,2.2392,2.2539,2.2792,2.3474,2.3728,2.35,2.4048,2.4315,2.4342,2.5224,2.5451,2.5157,2.5478,2.5772,2.5972,2.5384,2.5237,2.5344,2.4796,2.4409,2.4115,2.3875,2.3928,2.4115,2.3861,2.3928,2.4102,2.3808,2.3741,0.0,0.0,0.0,2.4823,2.5451,2.6226,2.7094,2.8056,3.0514,3.2832,3.3419,3.5406,3.7647,3.9524,4.0269,4.114,4.3051,4.3499,4.3481,4.3426,4.2784,4.2509,4.3224,4.2729,4.2546,4.3298,4.3463,4.3499,4.3499,4.4196,4.4673,4.4673,4.5407,4.6259,4.7196,4.6822,4.7009,4.8053,4.8034,4.8053,4.8219,4.859,4.8989,4.9531,4.9961,5.0391,5.0801,5.123,5.1426,5.1426,5.1426,5.1426,5.1426,5.1426,5.1641,5.1992,5.2051,5.2519,5.3164,5.2891,5.3027,5.3359,5.3359,5.3398,5.3496,0.0,0.0,0.0,0.0,0.0,0.0,0.0,0.0,0.0,0.0,0.0,2.1109,2.1109,2.1109,2.1109,2.1109,2.1109,2.1109,2.1109,2.1229,2.1416,2.167,2.1683,2.183,2.2191,2.3046,2.346,2.3327,2.4075,2.4609,2.4943,2.517,2.5197,2.5077,2.4877,2.5224,2.601,2.5504,2.5491,2.5758,2.5651,2.5545,2.5398,2.5104,2.5277,2.5638,2.5344,2.5211,2.5117,2.4663,2.4502,2.4462,2.4262,0.0,0.0,0.0,2.6026,2.6841,2.807,3.0688,3.2907,3.2415,3.4574,3.7195,3.835,3.9536,4.0974,4.3087,4.3499,4.3426,4.3188,4.2674,4.2546,4.3371,4.2803,4.2637,4.3683,4.3628,4.3499,4.3499,4.4196,4.4673,4.4673,4.5407,4.6166,4.6916,4.6728,4.7009,4.8053,4.8127,4.8219,4.8497,4.9009,4.9453,4.9883,5.0312,5.0742,5.1152,5.1348,5.1426,5.1426,5.1426,5.1426,5.1426,5.1426,5.168,5.2109,5.2344,5.2656,5.3008,5.3047,5.3047,5.3027,5.3262,5.3359,5.3418,0.0,0.0,0.0,0.0,0.0,0.0,0.0,0.0,0.0,0.0,0.0,2.1336,2.1336,0.0,0.0,0.0,2.1149,2.1109,2.1109,2.1109,2.1109,2.1109,2.1109,2.1256,2.1614,2.2645,2.3207,2.3207,2.4022,2.4756,2.5398,2.5024,2.5024,2.5277,2.477,2.4943,2.5625,2.5625,2.5838,2.6213,2.6573,2.672,2.6707,2.6573,2.6787,2.7121,2.6827,2.6587,2.6293,2.5638,2.5411,2.5304,2.4716,2.5037,0.0,0.0,0.0,2.6881,2.815,3.0132,3.1646,3.1123,3.3114,3.5621,3.7138,3.8703,4.0515,4.3034,4.3573,4.3518,4.3096,4.2692,4.2656,4.3371,4.2986,4.2894,4.3811,4.3774,4.3609,4.3499,4.4105,4.4563,4.4655,4.5315,4.6055,4.6728,4.6728,4.7102,4.8219,4.8127,4.837,4.9023,4.9355,4.9785,5.0332,5.0762,5.1113,5.1426,5.1426,5.1426,5.1426,5.1426,5.1484,5.1601,5.1601,5.1836,5.2266,5.2578,5.2773,5.2891,5.2988,5.291,5.2754,5.3066,5.3262,5.3418,0.0,0.0,0.0,0.0,0.0,0.0,0.0,0.0,0.0,0.0,0.0,2.1937,2.1937,2.1762,2.1601,2.1601,2.1269,2.1109,2.1109,2.1109,2.1109,2.1109,2.1109,0.0,2.1614,2.2499,2.2886,2.2886,2.3514,2.4262,2.509,2.4516,2.4836,2.597,2.5585,2.517,2.4756,2.5585,2.6266,2.6827,2.7402,2.7629,2.7655,2.8006,2.8127,2.8114,2.7736,2.7615,2.7482,2.6613,2.6319,2.6213,2.5625,2.5665,2.5932,0.0,0.0,0.0,2.8073,2.8502,2.9125,3.0204,3.0375,3.1443,3.603,3.752,3.8951,4.2748,4.3793,4.394,4.3536,4.3114,4.2986,4.3426,4.3463,4.3444,4.3518,4.3829,4.3921,4.3536,4.3866,4.4251,4.4636,4.5077,4.5853,4.727,4.6916,4.7289,4.8775,4.8405,4.8505,4.9473,4.9512,4.9922,5.0762,5.1191,5.1406,5.1426,5.1426,5.1426,5.1426,5.1426,5.166,5.2051,5.2051,5.2285,5.2676,5.2695,5.2949,5.3242,5.2461,5.2383,5.2715,5.2734,5.3008,5.3418,0.0,0.0,0.0,0.0,0.0,0.0,0.0,0.0,0.0,0.0,0.0,0.0,0.0,2.1897,2.183,2.183,2.1563,2.139,2.139,2.1216,2.1109,2.1109,2.1109,2.1162,2.1269,2.2124,2.2485,2.2298,2.3287,2.4128,2.4796,2.477,2.4997,2.5384,2.5077,2.5037,2.5224,2.5531,2.6119,2.6907,2.7883,2.839,2.8591,2.8885,2.9125,2.9245,2.8951,2.847,2.7936,2.7615,2.6894,2.6079,2.5865,2.5865,2.5999,2.6186,2.6453,2.6921,2.7966,2.8083,0.0,2.9726,2.9993,3.1153,3.5809,3.7078,3.8555,4.3018,4.3774,4.3738,4.3848,4.3316,4.3096,4.3756,4.3426,4.3279,4.3793,4.3774,4.3646,4.3518,4.3848,4.4141,4.4288,4.4655,4.5243,4.5946,4.615,4.6727,4.7829,4.8303,4.8795,4.9531,5.0058,5.0625,5.1211,5.1367,5.1426,5.1426,5.1426,5.1426,5.1445,5.1719,5.1777,5.1699,5.2246,5.2578,5.2715,5.2715,5.2637,5.2519,5.2207,5.2168,5.2344,5.2617,5.2988,5.3418,0.0,0.0,0.0,0.0,0.0,0.0,0.0,0.0,2.2432,2.2432,0.0,0.0,0.0,0.0,2.2084,2.1991,2.1897,2.1764,2.1628,2.1456,2.1309,2.1122,2.1109,2.1109,2.1109,2.1777,2.2124,2.2124,2.2926,2.3674,2.4356,2.4543,2.469,2.4783,2.4676,2.485,2.5237,2.5424,2.6012,2.6934,2.823,2.8925,2.9245,2.974,3.01,3.0301,2.9913,2.9513,2.9152,2.9038,2.8177,2.7255,2.7054,2.6787,2.6547,2.6533,2.6466,2.6587,2.7455,2.7549,2.7696,2.8871,2.9472,3.0945,3.5358,3.6913,3.8555,4.3018,4.3884,4.3921,4.4068,4.3646,4.3408,4.3811,4.3536,4.3408,4.3829,4.3774,4.3646,4.3518,4.3848,4.4086,4.4086,4.4563,4.504,4.5354,4.589,4.6578,4.736,4.8267,4.9179,4.9941,5.0644,5.1152,5.1426,5.1426,5.1426,5.1426,5.1426,5.1426,5.1445,5.1738,5.1777,5.168,5.2246,5.25,5.25,5.25,5.2324,5.207,5.1914,5.2031,5.2324,5.2598,5.3086,5.3633,0.0,0.0,0.0,0.0,0.0,0.0,0.0,0.0,2.3327,2.3313,0.0,0.0,0.0,0.0,0.0,2.2044,2.2285,2.2218,2.1695,2.1844,2.1737,2.1162,0.0,0.0,2.1109,2.1403,2.1844,2.2418,2.2418,2.2873,2.3754,2.3754,2.3901,2.4209,2.4489,2.4636,2.4703,2.5291,2.6026,2.6921,2.8444,2.9219,2.9553,3.0448,3.0969,3.1156,3.0581,3.0728,3.1116,3.0555,3.014,2.978,2.9192,2.8417,2.7602,2.7014,2.6627,2.6453,0.0,0.0,0.0,2.7562,2.8604,3.0599,3.4719,3.6648,3.8661,4.2658,4.4014,4.4526,4.416,4.4086,4.3958,4.3573,4.3829,4.394,4.3554,4.3829,4.3921,4.3536,4.3829,4.4068,4.4068,4.4801,4.528,4.5332,4.615,4.6821,4.7439,4.8338,4.9488,5.0801,5.123,5.1426,5.1426,5.1426,5.1426,5.1426,5.1426,5.1426,5.1426,5.1426,5.166,5.207,5.207,5.207,5.207,5.207,5.207,5.2031,5.1601,5.1953,5.2715,5.2715,5.3262,5.4023,0.0,0.0,0.0,0.0,0.0,2.2928,2.2928,2.3126,2.3247,0.0,0.0,0.0,2.3327,2.3554,2.3514,2.3006,2.322,2.314,2.2606,2.2378,2.2138,2.1764,2.155,2.1336,2.1109,2.1403,2.1844,2.2418,2.2418,2.2766,2.3447,2.322,2.3394,2.3888,2.3968,2.4476,2.5304,2.5892,2.6039,2.6079,2.8417,2.9152,2.8991,3.0301,3.0969,3.1183,3.0808,3.0635,3.0581,3.0421,2.974,2.8898,2.8511,2.8217,2.7909,2.7321,2.6787,2.6453,2.6747,0.0,0.0,0.0,0.0,0.0,3.3072,3.4412,3.6358,4.0554,4.1611,4.2185,4.3778,4.4086,4.405,4.394,4.3774,4.3628,4.3518,4.3591,4.3609,4.3499,4.3591,4.3664,4.3664,4.4123,4.4581,4.4838,4.5353,4.6318,4.7816,4.9413,5.0511,5.125,5.1367,5.1426,5.1426,5.1426,5.1426,5.1426,5.1133,5.1133,5.1426,5.1426,5.1504,5.1621,5.1953,5.1914,5.1641,5.1953,5.1894,5.1601,5.1484,5.1953,5.2715,5.2715,5.3262,5.4023,0.0,0.0,2.2379,2.2791,2.2966,2.3006,2.2954,2.334,2.3581,0.0,0.0,0.0,2.3527,2.3928,2.3968,2.338,2.3714,2.3701,2.31,2.3006,2.2792,2.2365,2.1951,2.159,2.1296,2.1229,2.1537,2.2231,2.1991,2.2245,2.2939,2.2632,2.2819,2.3407,2.3781,2.4462,2.5424,2.6747,2.6974,2.66,2.8524,2.9245,2.9285,3.0501,3.1076,3.1209,3.1036,3.0942,3.0942,3.1196,3.0648,2.9793,2.9245,2.8724,2.8243,2.7762,2.6961,2.6266,2.656,2.6426,2.64,2.7215,0.0,0.0,3.2149,3.3963,3.6261,3.9869,4.1517,4.2653,4.4088,4.4325,4.4325,4.4325,4.3995,4.3738,4.3738,4.3738,4.3683,4.3518,4.3646,4.3738,4.3738,4.4105,4.4361,4.4416,4.5335,4.684,4.8784,4.9988,5.082,5.1406,5.1426,5.1426,5.1426,5.1426,5.1348,5.1172,5.1094,5.1094,5.1172,5.1348,5.1426,5.1445,5.1699,5.166,5.1445,5.1699,5.166,5.1426,5.1426,5.1953,5.2715,5.2715,5.3144,5.3769,0.0,0.0,2.2886,2.2953,2.3166,2.326,2.3086,2.3714,2.4142,0.0,2.4195,2.4302,2.4035,2.4249,2.4168,2.3567,2.4022,2.4088,2.346,2.3728,2.3634,2.3062,2.2432,2.1964,2.1668,2.1119,2.1189,2.2031,2.1483,2.1617,2.2405,2.2124,2.2298,2.2968,2.3768,2.4569,2.5411,2.7522,2.823,2.8016,2.8885,2.9513,3.002,3.0929,3.1289,3.1316,3.1289,3.145,3.1744,3.2278,3.2104,3.1517,3.0675,2.9713,2.8791,2.8382,2.7296,2.6305,2.636,0.0,0.0,2.644,2.7549,0.0,3.1527,3.4001,3.6632,3.9081,4.1643,4.3486,4.3778,4.3997,4.4143,4.4234,4.4179,4.4086,4.4086,4.4123,4.4013,4.3664,4.3903,4.4086,4.4086,4.4398,4.4471,4.4178,4.594,4.7848,4.9944,5.0195,5.0586,5.1348,5.1406,5.1426,5.1426,5.1426,5.125,5.0879,5.1211,5.1191,5.0879,5.1211,5.1387,5.1426,5.1426,5.1426,5.1426,5.1426,5.1426,5.1426,5.1426,5.1933,5.2637,5.2637,5.291,5.334,2.268,2.2605,2.2661,2.3514,2.3447,2.3541,2.4195,2.4249,2.4356,2.477,2.5291,2.5598,2.5621,2.5661,2.5384,2.4783,2.505,2.4903,2.4088,2.4529,2.4449,2.3634,2.326,2.2699,2.1924,2.1628,2.1697,2.2338,2.1991,2.2017,2.2405,2.2124,2.2298,2.2954,2.3554,2.4836,2.652,2.6974,2.807,2.9539,3.0194,3.0234,3.0034,3.1156,3.173,3.1904,3.1664,3.1623,3.169,3.1797,3.177,3.1557,3.0915,3.0715,3.0381,2.8644,2.802,2.7604,2.6627,2.6346,2.6493,2.7255,2.7843,0.0,2.9412,3.0299,3.1515,3.3541,3.4794,3.5989,3.7598,3.9358,4.075,4.1378,4.2982,4.4086,4.4086,4.4361,4.4526,4.4453,4.4233,4.4086,4.4086,4.416,4.4306,4.4545,4.6541,4.8157,4.9084,5.0122,5.0762,5.0918,5.125,5.1426,5.1426,5.1426,5.1387,5.1308,5.1055,5.1055,5.1308,5.1035,5.1113,5.1426,5.1426,5.1426,5.1426,5.1426,5.1426,5.1426,5.1426,5.1738,5.2207,5.2207,5.248,5.2851,2.2701,2.2691,2.2799,2.3474,2.3674,2.3955,2.4543,2.4756,2.501,2.5464,2.6026,2.6172,2.5585,2.6039,2.6039,2.5157,2.5611,2.5705,2.5117,2.5358,2.5251,2.4663,2.4075,2.342,2.2672,2.2218,2.2205,2.2645,2.2205,2.2285,2.2859,2.2418,2.2913,2.4195,2.4502,2.5692,2.7522,2.811,2.8791,2.9526,3.0127,3.0528,3.0889,3.177,3.2198,3.2305,3.2158,3.2198,3.2305,3.2158,3.2011,3.1837,3.1543,3.1142,3.0595,2.9553,2.8617,2.7762,2.7028,2.6507,2.6319,2.6894,2.7482,0.0,0.0,2.9937,3.1204,3.2237,3.3839,3.5335,3.6227,3.7516,3.8747,3.9933,4.1439,4.2622,4.3154,4.4215,4.4911,4.4691,4.449,4.4453,4.4673,4.4325,4.4433,4.5367,4.6444,4.7717,4.9118,5.0042,5.0586,5.0801,5.1016,5.123,5.1426,5.1016,5.0918,5.1113,5.0898,5.0918,5.1113,5.1113,5.123,5.1426,5.1426,5.1426,5.1426,5.1426,5.1426,5.1426,5.1426,5.1699,5.209,5.209,5.2207,5.2461,2.2966,2.2968,2.2993,2.342,2.3848,2.4275,2.473,2.5117,2.5504,2.5972,2.6747,2.6894,2.5945,2.668,2.6867,2.5932,2.6386,2.6587,2.6226,2.6398,2.6199,2.5785,2.4983,2.4262,2.3674,2.2966,2.2712,2.2953,2.2418,2.2552,2.3313,2.2819,2.3514,2.5197,2.5585,2.652,2.798,2.9312,2.9673,2.9339,2.994,3.0835,3.1891,3.2425,3.2706,3.2786,3.271,3.2692,3.2866,3.2692,3.2465,3.2265,3.2211,3.1583,3.0782,3.0394,2.9259,2.8016,2.7495,2.6787,2.6279,2.6573,2.7134,2.7776,0.0,0.0,0.0,3.1599,3.3583,3.5249,3.4968,3.5598,3.6699,3.8191,3.9399,4.0577,4.1755,4.3536,4.4673,4.4563,4.4691,4.4893,4.515,4.4875,4.5149,4.6246,4.6641,4.7542,4.9262,4.9824,5.0215,5.0547,5.0644,5.0879,5.1308,5.0566,5.043,5.0918,5.084,5.084,5.0937,5.1269,5.1426,5.1426,5.1426,5.1426,5.1426,5.1426,5.1426,5.1426,5.1426,5.1641,5.1953,5.1953,5.1953,5.207,2.3327,2.3046,2.3126,2.3955,2.3941,2.4182,2.5251,2.5024,2.5117,2.6199,2.7762,2.8738,2.8604,2.8711,2.8738,2.8604,2.819,2.7792,2.7148,2.7685,2.7522,2.6707,2.6079,2.5478,2.489,2.3794,2.3247,2.3273,2.2926,2.2953,2.3327,2.326,2.3487,2.4048,2.5865,2.664,2.6734,2.8965,3.0034,3.0261,3.0835,3.1623,3.2478,3.2799,3.3267,3.3627,3.2839,3.267,3.2723,3.2853,3.2906,3.2839,3.2572,3.2585,3.2318,3.0501,2.982,2.9366,2.8016,2.7388,2.7188,2.7482,2.7428,2.7468,2.814,0.0,2.8298,2.8653,0.0,2.9521,2.948,0.0,0.0,3.4255,3.6508,3.8694,4.0425,4.1794,4.3004,4.4031,4.4783,4.5095,4.4783,4.5975,4.6703,4.6758,4.8064,4.8862,4.8984,4.9355,4.9629,4.9668,5.0039,5.0449,5.0879,5.041,5.0586,5.1367,5.0976,5.0996,5.1367,5.1406,5.1426,5.1426,5.1426,5.1426,5.1426,5.1426,5.1426,5.1426,5.1426,5.1465,5.1504,5.1504,5.1504,5.1582,2.3647,2.3474,2.3621,2.4329,2.4489,2.4863,2.5865,2.6239,2.6587,2.7081,2.811,2.8724,2.8537,2.8978,2.9165,2.8818,2.9018,2.8845,2.8096,2.827,0.0,2.7362,2.6613,2.5932,2.5344,2.469,2.4262,2.4016,2.3781,2.3875,2.4342,2.3995,2.4356,2.5344,2.6547,2.7495,2.827,2.9606,3.0635,3.137,3.145,3.2318,3.3507,3.2946,3.2893,3.308,3.2866,3.2692,3.2683,3.2879,3.2866,3.2759,3.2973,3.3013,3.2746,3.1543,3.0822,3.0181,2.9045,2.8524,2.8283,2.823,2.8524,2.8738,2.847,2.8444,2.8364,2.7963,0.0,0.0,0.0,0.0,0.0,0.0,3.6306,3.7896,3.9532,4.1005,4.2289,4.3261,4.4105,4.4618,4.4673,4.6158,4.6981,4.6852,4.7837,4.8557,4.8906,4.9043,4.9375,4.9883,4.9844,5.0234,5.1152,5.0,5.0098,5.1426,5.0762,5.0781,5.1426,5.1426,5.1426,5.1426,5.1426,5.1426,5.1426,5.1426,5.1426,5.1426,5.1426,5.1426,5.1426,5.1426,5.1582,5.1875,2.4182,2.3928,2.3955,2.4529,2.481,2.5251,2.6132,2.7081,2.7696,2.7696,2.8511,2.9005,2.8864,2.9472,2.9793,2.9366,2.9833,2.9847,2.9138,2.9085,2.8858,2.8323,2.7388,2.664,2.6119,2.5665,2.5291,2.4997,2.4703,2.4783,2.5184,2.4676,2.501,2.6066,2.6894,2.7869,2.8938,2.994,3.0902,3.1744,3.177,3.2612,3.3761,3.3146,3.2857,3.267,3.2786,3.2732,3.267,3.2786,3.2719,3.271,3.304,3.3476,3.3737,3.312,3.2947,3.2577,3.1028,3.0368,2.9904,2.9192,2.9392,2.9673,2.9192,2.9058,2.8918,2.8671,2.9886,0.0,0.0,0.0,0.0,0.0,0.0,3.6737,3.8219,3.963,4.0987,4.2216,4.3096,4.3866,4.46,4.6158,4.7018,4.7004,4.7894,4.8538,4.8887,4.8867,4.916,4.9785,4.9512,4.9844,5.0898,4.9668,4.9785,5.125,5.0644,5.0723,5.1426,5.1426,5.1426,5.1426,5.1426,5.1426,5.1426,5.1426,5.1426,5.1426,5.1426,5.1426,5.1426,5.1426,5.1719,5.2148,2.509,2.4356,2.3955,2.4529,2.4649,2.4943,2.5838,2.6947,2.7696,2.7696,2.9219,3.0301,3.0287,3.0822,3.1169,3.1142,3.0915,3.0635,3.0327,3.0301,3.0167,2.986,2.8711,2.7949,2.7642,2.6787,2.6199,2.5996,2.5611,2.5478,2.5491,2.5197,2.5077,2.5184,2.6627,2.7295,2.7468,2.9499,3.0541,3.0902,3.1744,3.2291,3.2692,3.3534,3.3307,3.2643,3.2656,3.2656,3.2643,3.2656,3.2656,3.2643,3.267,3.4199,3.5856,3.528,3.6476,3.738,3.4217,3.3087,3.2411,3.0396,2.9686,2.9646,3.0181,2.9646,2.9371,3.0736,3.0592,3.0521,3.1386,0.0,0.0,0.0,0.0,0.0,0.0,0.0,0.0,0.0,4.1831,4.2949,4.4526,4.6158,4.7147,4.7346,4.8879,4.9473,4.8945,4.8867,4.8867,4.8906,4.8887,4.9101,4.959,4.9531,4.9941,5.082,5.0801,5.1016,5.1426,5.1426,5.1426,5.1426,5.1426,5.1426,5.1426,5.1426,5.1426,5.1426,5.1426,5.1426,5.1426,5.1426,5.1719,5.2148,2.5424,2.497,2.4823,2.5411,2.5665,2.6159,2.7323,2.7909,2.8444,2.8831,2.9579,3.014,3.0341,3.0541,3.0648,3.0648,3.0742,3.0675,3.0381,3.0354,3.0314,3.0221,2.9085,2.8217,2.7709,2.7028,2.644,2.6037,2.5651,2.5611,2.5798,2.5304,0.0,0.0,2.6694,2.7709,2.8511,2.9606,3.1022,3.2559,3.2866,3.2692,3.2305,3.2812,3.2692,3.2251,3.2251,3.2131,3.1998,3.2185,3.3202,3.4273,3.4471,3.5949,3.7562,3.7194,3.7632,3.7941,3.6678,3.6557,3.6544,3.5349,3.4627,3.4362,3.5194,3.3806,3.2624,3.3628,3.3941,3.3967,3.3735,0.0,0.0,0.0,0.0,0.0,0.0,0.0,3.853,0.0,0.0,0.0,0.0,0.0,4.6933,4.7327,4.871,4.9204,4.8496,4.8418,4.8555,4.8848,4.8867,4.9219,4.9961,4.9668,4.9961,5.0801,5.0801,5.1035,5.1426,5.1426,5.1426,5.1426,5.1426,5.1426,5.1426,5.1426,5.1426,5.1426,5.1426,5.1426,5.1465,5.1758,5.2129,5.2598,2.5732,2.5598,2.5598,2.5772,2.6386,2.7188,2.8163,2.8657,2.9058,2.9432,2.9913,3.0301,3.0488,3.0608,3.0662,3.0662,3.0835,3.0915,3.0835,3.0728,3.0755,3.0969,2.986,2.9045,2.8657,2.7869,2.7161,2.6573,2.6172,2.5919,2.5798,0.0,0.0,0.0,2.6573,2.7789,2.9219,2.9486,3.0902,3.2946,3.2959,3.2625,3.2118,3.2198,3.2185,3.2091,3.1984,3.2287,3.2719,3.2912,3.4377,3.5994,3.6205,3.7679,3.9417,3.9189,3.9763,4.0226,3.9083,3.9211,3.9368,3.8139,3.7396,3.7131,3.799,3.6467,3.5271,3.6399,3.6426,3.631,3.6762,0.0,0.0,0.0,0.0,0.0,0.0,3.7704,0.0,0.0,0.0,0.0,0.0,0.0,0.0,4.727,0.0,0.0,0.0,4.8437,4.8574,4.8848,4.9023,4.9297,4.9707,4.9883,5.0176,5.0586,5.0879,5.1172,5.1426,5.1426,5.1426,5.1426,5.1426,5.1426,5.1426,5.1426,5.1426,5.1426,5.1426,5.1426,5.1484,5.1914,5.2441,5.3047,2.6092,2.6253,2.6266,2.5758,2.6827,2.7963,2.8564,2.9152,2.9526,2.9539,3.0274,3.0795,3.0795,3.1036,3.1209,3.1209,3.1209,3.133,3.1623,3.1383,3.1476,3.2051,3.0982,3.0381,3.0354,2.9205,2.831,2.7696,2.7094,2.6373,2.5558,0.0,0.0,0.0,2.6319,2.7589,2.9486,2.9205,3.0247,3.2078,3.2091,3.2104,3.2064,3.1784,3.1864,3.2091,3.1797,3.2894,3.4464,3.4572,3.5957,3.7623,3.7699,3.9399,4.1264,4.1229,4.2828,4.4106,4.1573,4.1188,4.1005,3.9031,3.8248,3.8107,3.8764,3.7883,3.7444,3.9205,3.8083,3.7578,4.0078,3.8566,0.0,0.0,0.0,0.0,0.0,0.0,0.0,0.0,0.0,0.0,0.0,0.0,0.0,0.0,0.0,0.0,0.0,4.8887,4.8887,4.8808,4.9277,4.9297,4.8828,5.0137,5.0586,5.0195,5.1035,5.1426,5.1426,5.1426,5.1426,5.1426,5.1426,5.1426,5.1426,5.1426,5.1426,5.1426,5.1426,5.1465,5.1543,5.1973,5.2656,5.3457,2.7228,2.7134,2.7201,2.7722,2.8297,2.8818,2.9205,2.9753,3.0207,3.0434,3.0648,3.0795,3.0795,3.0862,3.0902,3.0902,3.0902,3.1022,3.1316,3.1263,3.1396,3.1757,3.1076,3.0581,3.0368,2.9205,2.831,2.7696,2.6894,2.6386,2.6172,0.0,0.0,0.0,0.0,2.827,2.9806,2.9726,3.0501,3.1797,3.2011,3.2104,3.2064,3.1784,3.1984,3.2398,3.2091,3.2367,3.305,3.4775,3.6735,3.8572,3.9798,4.1652,4.3271,4.2982,4.3542,4.4087,4.3416,4.356,4.3594,4.2833,4.1924,4.1704,4.3234,4.1838,4.0719,4.2478,4.1539,4.0409,4.0464,3.9703,3.897,0.0,0.0,0.0,0.0,0.0,0.0,3.6054,0.0,0.0,0.0,0.0,0.0,0.0,0.0,0.0,4.8346,4.8904,4.8846,4.7949,4.8965,4.916,4.8379,5.0,5.0586,5.0195,5.1035,5.1426,5.1426,5.1426,5.1426,5.1426,5.1426,5.1426,5.1426,5.1426,5.1426,5.1426,5.1426,5.1816,5.2402,5.25,5.3105,5.3867,2.8056,2.807,2.8243,2.8871,2.9553,2.9967,2.9887,3.0368,3.0849,3.1142,3.1169,3.1223,3.1356,3.1249,3.1169,3.1169,3.1169,3.1303,3.1597,3.149,3.161,3.2038,3.149,3.1156,3.1116,2.998,2.9085,2.8484,2.7722,2.7161,2.6774,0.0,0.0,0.0,0.0,2.8991,3.0501,3.0755,3.1249,3.1877,3.2038,3.2024,0.0,3.1877,3.2064,3.2552,3.3505,3.3726,3.3917,3.617,3.8324,4.027,4.2052,4.3486,4.427,4.3866,4.3903,4.405,4.3884,4.4123,4.4361,4.4141,4.3646,4.3555,4.4762,4.3754,4.2952,4.4307,4.3481,4.2546,4.2803,4.1776,4.0639,0.0,0.0,0.0,0.0,0.0,0.0,0.0,3.7521,0.0,0.0,0.0,0.0,0.0,0.0,0.0,0.0,4.8451,4.837,4.8164,4.9043,4.9199,4.8496,4.9844,5.041,5.0195,5.084,5.125,5.1426,5.1426,5.1426,5.1426,5.1426,5.1426,5.1426,5.1426,5.1426,5.1426,5.1426,5.1953,5.2715,5.2715,5.3262,5.4023,2.8778,2.9018,2.9312,2.9606,3.0555,3.1116,3.0608,3.0955,3.1383,3.1637,3.1637,3.1717,3.2011,3.1824,3.1664,3.1664,3.1664,3.1784,3.2024,3.181,3.1891,3.2509,3.1944,3.181,3.2091,3.0996,3.0181,2.9713,2.9085,2.8404,2.7682,0.0,0.0,0.0,0.0,0.0,0.0,3.1931,3.2144,3.2104,3.2104,3.1944,3.1757,3.2011,3.2144,3.2471,3.4826,3.5507,3.555,3.8244,4.017,4.1782,4.401,4.4746,4.4673,4.427,4.416,4.4086,4.3738,4.3866,4.4086,4.4141,4.416,4.4251,4.46,4.4398,4.438,4.515,4.4416,4.4086,4.5535,4.3995,4.2307,0.0,0.0,4.029,3.9135,0.0,0.0,0.0,0.0,0.0,0.0,0.0,0.0,0.0,0.0,0.0,0.0,0.0,4.8119,4.8769,4.9258,4.9316,4.8867,4.9726,5.0215,5.0273,5.0625,5.1035,5.1426,5.1426,5.1426,5.1426,5.1426,5.1426,5.1426,5.1426,5.1426,5.1426,5.1426,5.1953,5.2715,5.2715,5.3262,5.4023,2.9686,2.9927,3.0221,3.0515,3.1129,3.1557,3.145,3.153,3.161,3.1664,3.145,3.1423,3.1717,3.1704,3.1664,3.1664,3.1664,3.169,3.1744,3.1704,3.1717,3.1824,3.173,3.181,3.2091,3.1196,3.0782,3.0915,3.0087,2.974,2.982,0.0,0.0,0.0,0.0,0.0,3.1971,3.2318,3.2332,3.2104,3.2104,3.2078,3.2038,3.2078,3.2398,3.2938,3.3327,3.3524,3.4283,4.0157,4.1136,4.0607,4.4142,4.5187,4.5113,4.4691,4.4563,4.4563,4.449,4.427,4.416,4.449,4.4563,4.4581,4.4655,4.4618,4.471,4.5205,4.4856,4.4655,4.5278,4.4508,4.3829,4.4013,4.2876,4.1647,4.0767,0.0,0.0,0.0,0.0,4.0969,0.0,0.0,0.0,0.0,0.0,0.0,0.0,0.0,4.9034,4.8379,4.9101,4.9316,4.8867,4.9726,5.0351,5.0703,5.0781,5.1035,5.1426,5.1426,5.1426,5.1426,5.1426,5.1426,5.1426,5.1426,5.1426,5.1426,5.1426,5.1953,5.2715,5.2715,5.3262,5.4023,3.0434,3.0849,3.1263,3.1249,3.1864,3.2251,3.1944,3.1891,3.1944,3.2104,3.1864,3.1797,3.2091,3.1984,3.1891,3.1891,3.1891,3.1891,3.1891,3.1757,3.1664,3.1664,3.1664,3.181,3.2091,3.169,3.161,3.1917,3.149,3.1436,3.1717,3.157,0.0,0.0,0.0,3.2265,0.0,3.2251,3.2238,3.2091,3.1944,3.1971,3.2118,3.2278,3.2599,3.3197,3.4421,3.408,3.3909,3.8148,3.8894,3.8765,4.276,4.3957,4.4168,4.4835,4.5003,4.4948,4.4728,4.4526,4.4435,4.4618,4.4508,4.4416,4.4618,4.4673,4.4783,4.5205,4.5132,4.5058,4.526,4.5315,4.526,4.504,4.4343,4.3481,4.2472,0.0,4.1702,0.0,0.0,0.0,0.0,0.0,0.0,0.0,0.0,0.0,0.0,0.0,4.8804,4.8594,4.8965,4.9082,4.8867,4.9277,4.9824,5.0488,5.0488,5.082,5.1426,5.1426,5.1426,5.1426,5.1426,5.1426,5.1426,5.1426,5.1426,5.1426,5.1426,5.1953,5.2715,5.2715,5.3262,5.4023,3.1142,3.1623,3.2051,3.1891,3.2425,3.2706,3.2185,3.2104,3.2171,3.2332,3.2211,3.2185,3.2425,3.2291,3.2198,3.2198,3.2198,3.2198,3.2198,3.1917,3.1757,3.1757,3.1704,3.181,3.2091,3.2104,3.2278,3.2737,3.2706,3.2625,3.2425,3.2759,3.3267,3.3868,3.3427,3.2879,3.2278,3.2158,3.2104,3.2078,3.1851,3.1931,3.2225,3.2532,3.2812,3.3291,3.5196,3.4784,3.3614,3.5281,3.6158,3.7228,4.1511,4.2775,4.3106,4.4937,4.5425,4.5352,4.5021,4.4875,4.482,4.4911,4.4636,4.4416,4.4728,4.4801,4.4893,4.5223,4.537,4.548,4.5645,4.6048,4.6269,4.5975,4.5572,4.5021,4.4233,0.0,0.0,0.0,0.0,0.0,4.3188,0.0,0.0,0.0,0.0,0.0,4.8613,4.8595,4.8746,4.916,4.9141,4.918,4.9277,4.918,4.9531,5.0312,5.0312,5.0703,5.1426,5.1426,5.1426,5.1426,5.1426,5.1426,5.1426,5.1426,5.1426,5.1426,5.1426,5.1894,5.2598,5.2676,5.3203,5.3906,3.1891,3.2038,3.2185,3.2425,3.2629,3.2478,3.2144,3.2104,3.2024,3.1784,3.1957,3.2118,3.2144,3.2358,3.2505,3.2505,3.2505,3.2505,3.2505,3.2225,3.2064,3.2064,3.181,3.181,3.2091,3.2104,3.2372,3.2933,3.32,3.2385,3.0648,3.304,3.4055,3.3855,3.3,3.2719,3.2866,3.2332,3.2104,3.2104,3.2078,3.2238,3.2532,3.2826,3.312,3.3374,3.36,3.3614,3.3414,3.3614,3.4983,3.7228,4.1511,4.2775,4.3158,4.5263,4.5828,4.5828,4.5792,4.5517,4.5333,4.5682,4.548,4.5205,4.5242,4.5242,4.526,4.5297,4.559,4.6067,4.68,4.6397,4.6397,4.7772,4.6489,4.5517,4.6122,4.5223,4.4361,4.4013,0.0,0.0,0.0,4.5883,0.0,0.0,0.0,0.0,0.0,4.9683,5.032,5.0078,5.0058,5.0234,5.0625,5.0254,5.0293,5.0742,5.0742,5.0976,5.1426,5.1426,5.1426,5.1426,5.1426,5.1426,5.1426,5.1426,5.1426,5.1426,5.1426,5.1719,5.2187,5.2558,5.3008,5.3476,3.1864,3.2265,3.2559,3.2318,3.2572,3.2706,3.2412,3.2372,3.2332,3.2211,3.2291,3.2372,3.2372,3.2625,3.2799,3.2799,3.2799,3.2799,3.2799,3.2532,3.2372,3.2372,3.2091,3.2064,3.2358,3.2198,3.2385,3.2973,3.3467,3.3454,3.3013,3.4082,3.4229,3.3587,3.324,3.2853,3.2452,3.2398,3.2265,3.2118,3.2291,3.2545,3.2826,3.2933,3.316,3.3414,3.3414,3.3414,3.3414,3.3414,3.39,3.5182,3.8111,3.9867,4.1318,4.3461,4.4921,4.5883,4.5883,4.5773,4.57,4.5847,4.559,4.5297,4.5297,4.5297,4.5297,4.5297,4.5608,4.592,4.6012,4.6342,4.6672,4.6819,4.658,4.6324,4.6158,4.57,0.0,4.5187,0.0,0.0,0.0,0.0,0.0,0.0,0.0,0.0,0.0,5.0748,5.0949,5.1348,5.0332,5.0,5.043,5.0273,5.0273,5.043,5.0683,5.1035,5.1426,5.1426,5.1582,5.1816,5.1816,5.1973,5.2207,5.2207,5.2207,5.2207,5.2207,5.2461,5.2871,5.3047,5.3379,5.3789,3.1864,3.2372,3.2719,3.2305,3.2652,3.2879,3.2683,3.271,3.2679,3.2679,3.2746,3.2772,3.2679,3.2933,3.3106,3.3106,3.3106,3.3106,3.3106,3.2839,3.2679,3.2679,3.2385,3.2332,3.2545,3.2345,3.2438,3.2853,3.3374,3.348,3.32,3.3213,3.324,3.328,3.312,3.2746,3.2238,3.2358,3.2345,3.2251,3.2559,3.2799,3.2986,3.3066,3.324,3.3414,3.3414,3.3414,3.3414,3.3414,3.3414,3.39,3.6553,3.8503,4.0255,4.2871,4.4714,4.5883,4.5883,4.5883,4.5883,4.5883,4.5682,4.548,4.548,4.548,4.548,4.548,4.57,4.581,4.5535,4.6177,4.6635,4.6305,4.6525,4.6635,4.6305,4.5938,0.0,4.636,4.6525,4.6434,4.6048,4.7925,0.0,0.0,0.0,0.0,5.1137,5.1224,5.1409,5.1738,5.041,4.9922,5.0351,5.0371,5.0293,5.0195,5.0723,5.1152,5.1426,5.1426,5.166,5.209,5.209,5.2324,5.2715,5.2715,5.2715,5.2715,5.2715,5.2891,5.3183,5.332,5.3555,5.3848,3.2038,3.2345,3.2643,3.2643,3.2786,3.2879,3.2683,3.2786,3.2973,3.2973,3.3227,3.3293,3.3,3.3227,3.3414,3.3414,3.3414,3.3414,3.3414,3.3133,3.2973,3.2973,3.2692,3.2643,3.2643,3.2643,3.2643,3.2643,3.2839,3.181,2.9553,2.9553,3.0782,3.2959,3.2372,3.2278,3.2616,3.2225,3.2278,3.267,3.2853,3.2973,3.3013,3.3293,3.3414,3.3414,3.3414,3.3414,3.3414,3.3414,3.3414,3.41,3.8307,3.9673,4.0545,4.4619,4.5883,4.5883,4.5883,4.5883,4.5883,4.5883,4.5883,4.5883,4.5883,4.5883,4.5883,4.5883,4.5883,4.5883,4.5883,4.5902,4.6158,4.6965,4.6434,4.6177,4.6984,4.6067,4.5902,4.7479,4.8011,4.8102,4.7699,5.0022,0.0,0.0,5.0391,5.0918,4.9274,5.0828,5.1537,5.0859,5.0391,5.0371,5.0801,5.0801,5.0586,5.0195,5.1035,5.1426,5.1426,5.1426,5.166,5.209,5.209,5.2324,5.2715,5.2715,5.2715,5.2715,5.2715,5.2715,5.2773,5.3203,5.3359,5.3437,3.2425,3.2639,3.2786,3.2585,3.2786,3.2946,3.2853,3.3093,3.3347,3.3574,3.3681,3.3774,3.3881,3.3801,3.3734,3.3734,3.3921,3.3948,3.3748,3.3654,3.3507,3.328,3.3,3.2839,3.2839,3.2652,3.2643,3.2643,3.304,3.3,3.2492,3.2492,3.2666,3.2973,3.2786,3.2639,3.2559,3.2652,3.2759,3.2866,3.316,3.328,3.328,3.3374,3.3414,3.344,3.3654,3.3734,3.3761,3.3961,3.5019,3.6709,3.948,4.0311,4.0658,4.3769,4.5633,4.6727,4.6727,4.6507,4.6287,4.6287,4.6085,4.5883,4.5883,4.5883,4.5883,4.5883,4.5883,4.5883,4.5883,4.5883,4.5975,4.6232,4.6067,4.5975,4.6232,4.5938,4.5902,4.6397,4.658,4.6599,4.647,4.854,4.964,4.9228,5.1136,5.1978,5.1118,5.0949,5.1189,5.168,5.041,5.0078,5.0801,5.0801,5.0742,5.0605,5.1172,5.1426,5.1426,5.1426,5.1836,5.2519,5.2519,5.293,5.3613,5.3613,5.3613,5.3613,5.3613,5.3613,5.3633,5.3769,5.3808,5.3828,3.2599,3.2866,3.3053,3.2759,3.2946,3.3187,3.3307,3.348,3.3694,3.4015,3.4055,3.4122,3.4295,3.4255,3.4175,3.4055,3.4215,3.4242,3.4055,3.4055,3.3908,3.3601,3.3414,3.3267,3.3146,3.2853,3.2706,3.2706,3.2959,3.3187,3.3387,3.3387,3.3173,3.2812,3.2812,3.2772,3.2719,3.2906,3.304,3.316,3.3334,3.3414,3.3427,3.3547,3.3587,3.3627,3.3935,3.4055,3.417,3.515,3.6416,3.8126,4.1148,4.2047,4.2376,4.4476,4.6107,4.7112,4.7112,4.691,4.6709,4.6709,4.6525,4.6305,4.614,4.5993,4.5883,4.5883,4.5883,4.5883,4.5883,4.5883,4.5883,4.5883,4.5883,4.5883,4.5883,4.5883,4.6067,4.6507,4.6753,4.6848,4.6848,4.8353,4.9339,4.925,5.0623,5.1358,5.0996,5.0796,5.0856,5.1387,5.0,4.9687,5.0566,5.0566,5.0644,5.0801,5.123,5.1426,5.1426,5.1426,5.1894,5.2715,5.2715,5.3203,5.4023,5.4023,5.4023,5.4023,5.4023,5.4023,5.4023,5.4023,5.4023,5.4023,3.2719,3.3106,3.3387,3.312,3.3293,3.3574,3.3868,3.3921,3.4015,3.4309,3.4349,3.4362,3.4376,3.4629,3.4683,3.4402,3.4376,3.4376,3.4349,3.4349,3.4215,3.3935,3.3921,3.3774,3.348,3.3213,3.3066,3.304,3.2746,3.271,3.271,3.271,3.271,3.271,3.271,3.2759,3.3013,3.3013,3.316,3.3414,3.344,3.344,3.348,3.3801,3.3921,3.3961,3.4242,3.4349,3.4658,3.6779,3.7578,3.8433,4.2773,4.4306,4.4734,4.6597,4.7185,4.7185,4.7185,4.7167,4.7149,4.7149,4.713,4.7002,4.6617,4.6232,4.5975,4.5975,4.5975,4.5957,4.5938,4.5938,4.592,4.5902,4.5883,4.5883,4.5883,4.5883,4.6305,4.7442,4.796,4.8234,4.8234,4.9125,4.9435,4.8898,4.9253,4.9535,4.9652,5.0487,5.0637,5.0137,4.9316,4.9316,5.0176,5.0215,5.043,5.0859,5.125,5.1426,5.1426,5.1465,5.1933,5.2715,5.2734,5.3242,5.4023,5.4023,5.4023,5.4023,5.4023,5.4023,5.4023,5.4023,5.4023,5.4023,3.3908,3.4015,3.4082,3.4015,3.4055,3.4135,3.4202,3.4215,3.4322,3.4616,3.4656,3.475,3.4963,3.5057,3.507,3.499,3.499,3.4897,3.467,3.4656,3.4523,3.4229,3.4215,3.4189,3.4108,3.4042,3.3895,3.3668,3.336,3.32,3.32,3.32,3.32,3.32,3.32,3.324,3.3307,3.3307,3.3347,3.3427,3.3681,3.3774,3.3801,3.4108,3.4215,3.4255,3.4549,3.4656,3.4787,3.5523,3.6919,3.8457,3.9547,4.1116,4.3135,4.6924,4.8011,4.8011,4.8011,4.7791,4.7552,4.7552,4.7332,4.7075,4.6984,4.6892,4.6819,4.6819,4.6819,4.6727,4.6397,4.6342,4.625,4.5938,4.5883,4.5883,4.5883,4.5883,4.5993,4.6287,4.6419,4.6495,4.6495,4.7366,4.8424,4.9433,4.9396,4.9896,5.1226,5.0645,4.9935,4.9219,4.9297,4.9629,5.0176,5.0488,5.0859,5.1289,5.1387,5.1426,5.1445,5.1777,5.2207,5.2734,5.3066,5.3516,5.4023,5.4023,5.4023,5.4023,5.4023,5.4023,5.4023,5.4023,5.4023,5.4023,3.4349,3.4429,3.4482,3.4349,3.4322,3.4362,3.4496,3.4523,3.4629,3.4923,3.4963,3.5017,3.5177,3.5191,3.5191,3.5191,3.5191,3.5124,3.4977,3.4963,3.483,3.4536,3.4523,3.4456,3.4322,3.4322,3.4242,3.4082,3.3908,3.3828,3.3828,3.3828,3.3828,3.3828,3.3828,3.3828,3.3828,3.3828,3.3828,3.3841,3.4015,3.4082,3.4122,3.4416,3.4523,3.4563,3.4857,3.4963,3.5186,3.637,3.7548,3.8678,3.9595,4.0729,4.2367,4.5822,4.6758,4.7057,4.8069,4.8121,4.7956,4.7956,4.7662,4.7369,4.7369,4.724,4.7112,4.7112,4.7112,4.7039,4.68,4.6764,4.669,4.6489,4.6452,4.6452,4.6452,4.6452,4.6452,4.6452,4.6624,4.6719,4.6719,4.7667,4.8691,4.9727,4.9973,5.0378,5.1326,5.0688,5.0105,4.9492,4.9707,5.0039,5.0469,5.0879,5.1211,5.1426,5.1426,5.1426,5.1445,5.1875,5.2305,5.2734,5.3164,5.3613,5.4023,5.4023,5.4023,5.4023,5.4023,5.4023,5.4023,5.4023,5.4023,5.4023,3.4509,3.4656,3.475,3.4496,3.4456,3.4536,3.479,3.483,3.4923,3.5164,3.5191,3.5191,3.5191,3.5191,3.5191,3.5191,3.5191,3.5191,3.5191,3.5191,3.5084,3.4843,3.483,3.471,3.4456,3.4402,3.4389,3.4389,3.4336,3.4322,3.4322,3.4322,3.4322,3.4322,3.4322,3.4322,3.4322,3.4322,3.4322,3.4322,3.4362,3.4389,3.4416,3.471,3.483,3.4857,3.511,3.5191,3.5507,3.7339,3.7965,3.8366,4.0111,4.0729,4.1242,4.379,4.4498,4.5019,4.7573,4.8286,4.8286,4.8286,4.8029,4.7791,4.7791,4.7534,4.7277,4.7277,4.7277,4.7259,4.7204,4.7204,4.7277,4.7516,4.7314,4.7222,4.7516,4.7295,4.7112,4.7112,4.748,4.7769,4.7769,4.8728,4.9435,4.9896,5.0415,5.0703,5.0703,5.0781,5.0644,5.0293,5.0273,5.0469,5.0898,5.125,5.1426,5.1426,5.1426,5.1465,5.1543,5.1973,5.2402,5.2832,5.3281,5.3672,5.4023,5.4023,5.4023,5.4023,5.4023,5.4023,5.4023,5.4023,5.4023,5.4023,3.507,3.5097,3.511,3.507,3.5057,3.507,3.5124,3.5124,3.5151,3.5191,3.5191,3.5191,3.5191,3.5191,3.5191,3.5191,3.5191,3.5191,3.5191,3.5191,3.5177,3.5137,3.5124,3.511,3.5057,3.4817,3.4696,3.4696,3.4442,3.4322,3.4322,3.4322,3.4322,3.4322,3.4322,3.4322,3.4322,3.4322,3.4322,3.4336,3.4589,3.4696,3.4723,3.5017,3.5124,3.5137,3.5177,3.5191,3.5296,3.5612,3.5704,3.5809,3.6124,3.6229,3.704,4.1037,4.2163,4.308,4.7157,4.8286,4.8286,4.8286,4.8231,4.8194,4.8194,4.8139,4.8102,4.8102,4.8102,4.7992,4.7662,4.7607,4.8047,4.9441,4.8231,4.7699,4.9423,4.8194,4.7112,4.7112,4.7209,4.7383,4.7846,4.8422,4.8938,4.9492,4.9988,5.0273,5.0273,5.0605,5.0781,5.0703,5.0703,5.0898,5.1328,5.1406,5.1426,5.1426,5.1426,5.1621,5.1992,5.2422,5.2851,5.3281,5.373,5.3965,5.4023,5.4023,5.4023,5.4023,5.4023,5.4023,5.4023,5.4023,5.4023,5.4023,3.5191,3.5191,3.5191,3.5191,3.5191,3.5191,3.5191,3.5191,3.5191,3.5191,3.5191,3.5191,3.5191,3.5191,3.5191,3.5191,3.5191,3.5191,3.5191,3.5191,3.5191,3.5191,3.5191,3.5191,3.5191,3.507,3.5004,3.5004,3.4857,3.479,3.479,3.479,3.479,3.479,3.479,3.479,3.479,3.479,3.479,3.4803,3.4937,3.5004,3.5017,3.5151,3.5191,3.5191,3.5191,3.5191,3.5191,3.5191,3.5191,3.5191,3.5191,3.5191,3.6019,4.042,4.3384,4.5722,4.7772,4.8286,4.8286,4.8286,4.8286,4.8286,4.8286,4.8286,4.8286,4.8286,4.8286,4.8231,4.8047,4.8011,4.8267,4.9019,4.8359,4.8066,4.9001,4.8341,4.7736,4.7736,4.8048,4.8225,4.8517,4.9295,4.9876,5.0069,5.0551,5.0859,5.0859,5.1035,5.1133,5.1133,5.1133,5.123,5.1426,5.1426,5.1426,5.1426,5.166,5.1894,5.2109,5.2773,5.3164,5.3379,5.3828,5.4023,5.4023,5.4023,5.4023,5.4023,5.4023,5.4023,5.4023,5.4023,5.4023,5.4023,3.5191,3.5191,3.5191,3.5191,3.5191,3.5191,3.5191,3.5191,3.5191,3.5191,3.5191,3.5191,3.5191,3.5191,3.5191,3.5191,3.5191,3.5191,3.5191,3.5191,3.5191,3.5191,3.5191,3.5191,3.5191,3.5191,3.5191,3.5191,3.5191,3.5191,3.5191,3.5191,3.5191,3.5191,3.5191,3.5191,3.5191,3.5191,3.5191,3.5191,3.5191,3.5191,3.5191,3.5191,3.5191,3.5191,3.5191,3.5191,3.5191,3.5191,3.5191,3.5191,3.5191,3.5191,3.6019,4.042,4.4817,4.8286,4.8286,4.8286,4.8286,4.8286,4.8286,4.8286,4.8286,4.8286,4.8286,4.8286,4.8286,4.8286,4.8286,4.8286,4.8432,4.8909,4.8598,4.8451,4.8928,4.8579,4.8385,4.8484,4.8879,4.9175,4.947,5.0255,5.0744,5.0842,5.1231,5.1426,5.1426,5.1426,5.1484,5.1582,5.1582,5.1523,5.1426,5.1523,5.1582,5.1582,5.1914,5.2187,5.2402,5.3066,5.3418,5.3535,5.3887,5.4023,5.4023,5.4023,5.4023,5.4023,5.4023,5.4023,5.4023,5.4023,5.4023,5.4023,3.5191,3.5191,3.5191,3.5191,3.5191,3.5191,3.5191,3.5191,3.5191,3.5191,3.5191,3.5191,3.5191,3.5191,3.5191,3.5191,3.5191,3.5191,3.5191,3.5191,3.5191,3.5191,3.5191,3.5191,3.5191,3.5191,3.5191,3.5191,3.5191,3.5191,3.5191,3.5191,3.5191,3.5191,3.5191,3.5191,3.5191,3.5191,3.5191,3.5191,3.5191,3.5191,3.5191,3.5191,3.5191,3.5191,3.5191,3.5191,3.5191,3.5191,3.5191,3.5191,3.5191,3.5191,3.6019,4.042,4.4817,4.8286,4.8286,4.8286,4.8286,4.8286,4.8286,4.8286,4.8286,4.8286,4.8286,4.8286,4.8286,4.8286,4.8286,4.8286,4.8891,5.078,4.9514,4.8946,5.0817,4.9459,4.8484,4.8978,4.9095,4.947,5.0451,5.0646,5.0842,5.1328,5.1328,5.1426,5.1426,5.1426,5.1621,5.2031,5.2031,5.1836,5.1445,5.1836,5.2031,5.2031,5.207,5.25,5.3262,5.334,5.3594,5.3984,5.4023,5.4023,5.4023,5.4023,5.4023,5.4023,5.4023,5.4023,5.4023,5.4023,5.4023,5.4023,3.5191,3.5191,3.5191,3.5191,3.5191,3.5191,3.5191,3.5191,3.5191,3.5191,3.5191,3.5191,3.5191,3.5191,3.5191,3.5191,3.5191,3.5191,3.5191,3.5191,3.5191,3.5191,3.5191,3.5191,3.5191,3.5191,3.5191,3.5191,3.5191,3.5191,3.5191,3.5191,3.5191,3.5191,3.5191,3.5191,3.5191,3.5191,3.5191,3.5191,3.5191,3.5191,3.5191,3.5191,3.5191,3.5191,3.5191,3.5191,3.5191,3.5191,3.5191,3.5191,3.5191,3.5191,3.6019,4.042,4.3891,4.654,4.797,4.8286,4.8286,4.8286,4.8286,4.8286,4.8286,4.8286,4.8286,4.8286,4.8286,4.8286,4.8286,4.8286,4.8543,4.9313,4.8781,4.8561,4.9331,4.8763,4.8484,4.9095,4.9095,4.9391,5.0176,5.0451,5.0744,5.0939,5.1231,5.1426,5.1426,5.168,5.1914,5.207,5.2598,5.2539,5.1836,5.1992,5.209,5.209,5.2617,5.3047,5.3379,5.3652,5.3867,5.4023,5.4023,5.4023,5.4023,5.4023,5.4023,5.4023,5.4023,5.4023,5.4023,5.4023,5.4023,5.4023,3.5191,3.5191,3.5191,3.5191,3.5191,3.5191,3.5191,3.5191,3.5191,3.5191,3.5191,3.5191,3.5191,3.5191,3.5191,3.5191,3.5191,3.5191,3.5191,3.5191,3.5191,3.5191,3.5191,3.5191,3.5191,3.5191,3.5191,3.5191,3.5191,3.5191,3.5191,3.5191,3.5191,3.5191,3.5191,3.5191,3.5191,3.5191,3.5191,3.5191,3.5191,3.5191,3.5191,3.5191,3.5191,3.5191,3.5191,3.5191,3.5191,3.5191,3.5191,3.5191,3.5191,3.5704,3.6831,3.9801,4.2774,4.532,4.6858,4.7772,4.8286,4.8286,4.8286,4.8286,4.8286,4.8286,4.8286,4.8286,4.8286,4.8286,4.8286,4.8286,4.8286,4.8286,4.8286,4.8286,4.8286,4.8286,4.8484,4.9095,4.9095,4.9391,5.0078,5.0451,5.0744,5.0939,5.1231,5.1484,5.1621,5.2168,5.248,5.248,5.3047,5.3066,5.248,5.248,5.248,5.25,5.3086,5.3437,5.3574,5.3887,5.4023,5.4043,5.418,5.4238,5.4238,5.4375,5.4355,5.4238,5.4238,5.4141,5.4023,5.4023,5.4023,5.4023,3.5191,3.5191,3.5191,3.5191,3.5191,3.5191,3.5191,3.5191,3.5191,3.5191,3.5191,3.5191,3.5191,3.5191,3.5191,3.5191,3.5191,3.5191,3.5191,3.5191,3.5191,3.5191,3.5191,3.5191,3.5191,3.5191,3.5191,3.5191,3.5191,3.5191,3.5191,3.5191,3.5191,3.5191,3.5191,3.5191,3.5191,3.5191,3.5191,3.5191,3.5191,3.5191,3.5191,3.5191,3.5191,3.5191,3.5191,3.5191,3.5191,3.5191,3.5191,3.5191,3.5191,3.674,3.847,3.847,4.1533,4.5019,4.5019,4.6658,4.8286,4.8286,4.8286,4.8286,4.8286,4.8286,4.8286,4.8286,4.8286,4.8286,4.8286,4.8286,4.8286,4.8286,4.8286,4.8286,4.8286,4.8286,4.8484,4.9095,4.9095,4.9489,5.0549,5.0666,5.0842,5.1348,5.1445,5.1641,5.207,5.2891,5.3359,5.3359,5.3359,5.3359,5.3359,5.3359,5.3359,5.3359,5.3359,5.3594,5.4023,5.4043,5.4043,5.4062,5.4492,5.4687,5.4707,5.5117,5.5058,5.4668,5.4668,5.4414,5.4023,5.4023,5.4023,5.4023,3.5191,3.5191,3.5191,3.5191,3.5191,3.5191,3.5191,3.5191,3.5191,3.5191,3.5191,3.5191,3.5191,3.5191,3.5191,3.5191,3.5191,3.5191,3.5191,3.5191,3.5191,3.5191,3.5191,3.5191,3.5191,3.5191,3.5191,3.5191,3.5191,3.5191,3.5191,3.5191,3.5191,3.5191,3.5191,3.5191,3.5191,3.5191,3.5191,3.5191,3.5191,3.5191,3.5191,3.5191,3.5191,3.5191,3.5191,3.5191,3.5191,3.5191,3.5191,3.5191,3.5191,3.5599,3.653,3.8054,4.0523,4.2978,4.4598,4.6658,4.8286,4.8286,4.8286,4.8286,4.8286,4.8286,4.8286,4.8286,4.8286,4.8286,4.8286,4.8286,4.8286,4.8286,4.8286,4.8286,4.8286,4.8286,4.8484,4.9095,4.878,4.9089,5.0379,5.0615,5.0927,5.173,5.2146,5.2383,5.2519,5.3047,5.3359,5.3359,5.3672,5.3828,5.3828,5.3516,5.3359,5.3359,5.3672,5.3906,5.4043,5.4355,5.4316,5.4062,5.4492,5.4512,5.4238,5.4355,5.4141,5.3789,5.4101,5.3945,5.3594,5.3906,5.4023,5.4023,3.5191,3.5191,3.5191,3.5191,3.5191,3.5191,3.5191,3.5191,3.5191,3.5191,3.5191,3.5191,3.5191,3.5191,3.5191,3.5191,3.5191,3.5191,3.5191,3.5191,3.5191,3.5191,3.5191,3.5191,3.5191,3.5191,3.5191,3.5191,3.5191,3.5191,3.5191,3.5191,3.5191,3.5191,3.5191,3.5191,3.5191,3.5191,3.5191,3.5191,3.5191,3.5191,3.5191,3.5191,3.5191,3.5191,3.5191,3.5191,3.5191,3.5191,3.5191,3.5191,3.5191,3.5191,3.5599,3.7861,4.0008,4.2163,4.4397,4.6658,4.8286,4.8286,4.8286,4.8286,4.8286,4.8286,4.8286,4.8286,4.8286,4.8286,4.8286,4.8286,4.8286,4.8286,4.8286,4.8286,4.8286,4.8286,4.8385,4.878,4.8829,4.9313,5.037,5.0858,5.1348,5.2197,5.2671,5.2969,5.2969,5.3379,5.3633,5.3633,5.3887,5.4023,5.4023,5.3769,5.3633,5.3633,5.3906,5.4023,5.4043,5.4297,5.4277,5.4062,5.4492,5.4531,5.4297,5.4297,5.4023,5.3652,5.3926,5.375,5.3418,5.3867,5.4023,5.4023,3.5191,3.5191,3.5191,3.5191,3.5191,3.5204,3.5231,3.5217,3.5204,3.5231,3.5204,3.5191,3.5191,3.5191,3.5191,3.5191,3.5217,3.5244,3.5271,3.5271,3.5271,3.5271,3.5244,3.5231,3.5231,3.5204,3.5191,3.5191,3.5191,3.5191,3.5191,3.5191,3.5191,3.5191,3.5191,3.5191,3.5191,3.5191,3.5191,3.5191,3.5191,3.5191,3.5191,3.5191,3.5191,3.5191,3.5191,3.5191,3.5191,3.5191,3.5191,3.5191,3.5191,3.5191,3.5599,3.7861,4.0008,4.2163,4.4397,4.6658,4.8286,4.8286,4.8286,4.8286,4.8286,4.8286,4.8286,4.8286,4.8286,4.8286,4.8286,4.8286,4.8286,4.8286,4.8286,4.8286,4.8286,4.8286,4.8304,4.8341,4.9169,4.991,5.0602,5.1501,5.2332,5.2832,5.3203,5.3418,5.3418,5.3808,5.4023,5.4023,5.4023,5.4023,5.4023,5.4023,5.4023,5.4023,5.4023,5.4023,5.4023,5.4062,5.4062,5.4062,5.4492,5.4668,5.4629,5.457,5.4316,5.3906,5.3965,5.3691,5.3359,5.3848,5.4023,5.4023,3.5191,3.5191,3.5191,3.5191,3.5191,3.5271,3.5498,3.5338,3.5284,3.5511,3.5338,3.5191,3.5191,3.5191,3.5191,3.5191,3.5404,3.5631,3.5872,3.5885,3.5885,3.5885,3.5658,3.5538,3.5538,3.5311,3.5191,3.5191,3.5191,3.5191,3.5191,3.5191,3.5191,3.5191,3.5191,3.5191,3.5191,3.5191,3.5191,3.5191,3.5191,3.5191,3.5191,3.5191,3.5191,3.5191,3.5191,3.5191,3.5191,3.5191,3.5191,3.5191,3.5191,3.5191,3.5599,3.7861,4.0008,4.2163,4.4397,4.6658,4.8286,4.8286,4.8286,4.8286,4.8286,4.8286,4.8286,4.8286,4.8286,4.8286,4.8286,4.8286,4.8286,4.8286,4.8286,4.8286,4.8286,4.8286,4.8414,4.8726,4.9336,5.0134,5.1397,5.2768,5.3547,5.375,5.3828,5.3887,5.3887,5.3984,5.4023,5.4023,5.4023,5.4023,5.4023,5.4023,5.4023,5.4023,5.4023,5.4023,5.4043,5.4394,5.4355,5.4062,5.4492,5.4492,5.4141,5.3789,5.3398,5.3027,5.3379,5.3242,5.2949,5.373,5.4023,5.3984,3.5191,3.5191,3.5191,3.5191,3.5191,3.5244,3.5404,3.5297,3.5244,3.5404,3.5284,3.5191,3.5191,3.5191,3.5244,3.5391,3.5672,3.5912,3.6059,3.6072,3.6072,3.6072,3.5925,3.5845,3.5845,3.5698,3.5471,3.5191,3.5191,3.5191,3.5191,3.5191,3.5191,3.5191,3.5191,3.5191,3.5191,3.5191,3.5191,3.5191,3.5191,3.5191,3.5191,3.5191,3.5191,3.5191,3.5191,3.5191,3.5191,3.5191,3.5191,3.5191,3.5191,3.5914,3.7249,3.9403,4.1533,4.379,4.594,4.7455,4.8286,4.8286,4.8286,4.8286,4.8286,4.8286,4.8286,4.8286,4.8286,4.8286,4.8286,4.8286,4.8286,4.8286,4.8286,4.8286,4.8286,4.8451,4.8671,4.8891,4.9945,5.1239,5.2699,5.3581,5.4023,5.4023,5.4023,5.4023,5.4023,5.4023,5.4023,5.4023,5.4023,5.4023,5.4023,5.4023,5.4023,5.4023,5.4023,5.4023,5.4043,5.4258,5.4238,5.4043,5.4277,5.4121,5.3672,5.3223,5.2793,5.2461,5.2891,5.291,5.2812,5.3711,5.4023,5.3926,3.5191,3.5191,3.5191,3.5191,3.5191,3.5217,3.5257,3.5231,3.5217,3.5271,3.5231,3.5191,3.5191,3.5244,3.5391,3.5672,3.5979,3.6166,3.6219,3.6219,3.6219,3.6219,3.6179,3.6153,3.6153,3.6099,3.5832,3.5351,3.5297,3.5271,3.5271,3.5217,3.5191,3.5191,3.5191,3.5191,3.5191,3.5191,3.5191,3.5191,3.5191,3.5191,3.5191,3.5191,3.5191,3.5191,3.5191,3.5191,3.5191,3.5191,3.5191,3.5191,3.5191,3.6425,3.8366,4.0523,4.2469,4.4498,4.7057,4.7772,4.7871,4.8187,4.8286,4.8286,4.8286,4.8286,4.8286,4.8286,4.8286,4.8286,4.8286,4.8286,4.8286,4.8286,4.8286,4.8304,4.8377,4.8689,4.8964,4.9193,5.0872,5.2597,5.3882,5.4023,5.4023,5.4023,5.4023,5.4023,5.4023,5.4023,5.4023,5.4023,5.4023,5.4023,5.4023,5.4023,5.4023,5.4023,5.4023,5.4023,5.4023,5.4023,5.4023,5.4023,5.4023,5.3769,5.332,5.2891,5.25,5.2226,5.2578,5.2754,5.293,5.373,5.4023,5.3906,3.5191,3.5191,3.5191,3.5191,3.5191,3.5284,3.5538,3.5364,3.5284,3.5538,3.5351,3.5191,3.5191,3.5418,3.5685,3.5992,3.6273,3.654,3.6794,3.6834,3.6834,3.6834,3.658,3.6433,3.6433,3.6206,3.6032,3.5952,3.5698,3.5578,3.5565,3.5311,3.5191,3.5191,3.5191,3.5191,3.5191,3.5191,3.5191,3.5191,3.5191,3.5191,3.5191,3.5191,3.5191,3.5191,3.5191,3.5191,3.5191,3.5191,3.5191,3.5191,3.5191,3.5401,3.6124,3.8262,3.9181,4.0317,4.4296,4.5421,4.594,4.7772,4.8286,4.8286,4.8286,4.8286,4.8286,4.8286,4.8286,4.8286,4.8286,4.8286,4.8286,4.8286,4.8286,4.8414,4.8781,4.8873,4.9368,5.0476,5.2087,5.323,5.3921,5.4023,5.4023,5.4023,5.4023,5.4023,5.4023,5.4023,5.4023,5.4023,5.4023,5.4023,5.4023,5.4023,5.4023,5.4023,5.4023,5.4023,5.4023,5.4023,5.4023,5.4023,5.4023,5.3769,5.332,5.2891,5.2676,5.2637,5.2695,5.2949,5.334,5.3848,5.4023,5.3906,3.5191,3.5191,3.5191,3.5191,3.5191,3.5244,3.5364,3.5284,3.5244,3.5364,3.5271,3.5191,3.5191,3.5605,3.5925,3.6059,3.6473,3.6794,3.6941,3.6941,3.6941,3.6941,3.6834,3.6754,3.6754,3.662,3.654,3.654,3.6099,3.5872,3.5872,3.5752,3.5685,3.5672,3.5511,3.5431,3.5431,3.5271,3.5191,3.5191,3.5191,3.5191,3.5191,3.5191,3.5191,3.5191,3.5191,3.5191,3.5191,3.5191,3.5191,3.5191,3.5191,3.6019,3.7249,3.8158,3.9388,4.0934,4.4093,4.5019,4.5521,4.7772,4.8286,4.8286,4.8286,4.8286,4.8286,4.8286,4.8286,4.8286,4.8286,4.8286,4.8286,4.8286,4.8487,4.8708,4.8891,4.9313,5.0012,5.108,5.2352,5.3288,5.3493,5.3819,5.4023,5.4023,5.4023,5.4023,5.4023,5.4023,5.4023,5.4023,5.4023,5.4023,5.4023,5.4023,5.4023,5.4023,5.4023,5.4023,5.4023,5.4023,5.4023,5.4023,5.4023,5.3633,5.2988,5.2793,5.2578,5.2383,5.2617,5.3125,5.375,5.3965,5.4023,5.3945]}]]